<?xml version='1.0' encoding='UTF-8'?><gpx version="1.1" creator="JPX - https://github.com/jenetics/jpx" xmlns="http://www.topografix.com/GPX/1/1"><trk><trkseg><trkpt lat="45.59453631817182" lon="10.134516352241782"><ele>164.0</ele><time>2026-05-04T15:58:33.998Z</time></trkpt><trkpt lat="45.59450835398653" lon="10.134605565384168"><ele>164.0</ele><time>2026-05-04T15:59:05Z</time></trkpt><trkpt lat="45.59449017858939" lon="10.13470535409161"><ele>164.0</ele><time>2026-05-04T15:59:09Z</time></trkpt><trkpt lat="45.59443878819559" lon="10.134891340980278"><ele>164.0</ele><time>2026-05-04T15:59:14Z</time></trkpt><trkpt lat="45.59442958863733" lon="10.135013346455375"><ele>164.0</ele><time>2026-05-04T15:59:18Z</time></trkpt><trkpt lat="45.59443789986907" lon="10.135118859606509"><ele>164.0</ele><time>2026-05-04T15:59:21Z</time></trkpt><trkpt lat="45.59444756730306" lon="10.135225175395437"><ele>164.0</ele><time>2026-05-04T15:59:24Z</time></trkpt><trkpt lat="45.59446500611835" lon="10.1353302043993"><ele>164.0</ele><time>2026-05-04T15:59:28Z</time></trkpt><trkpt lat="45.594504503608285" lon="10.135430916315263"><ele>164.0</ele><time>2026-05-04T15:59:33Z</time></trkpt><trkpt lat="45.59451904230832" lon="10.135547242201158"><ele>164.0</ele><time>2026-05-04T15:59:37Z</time></trkpt><trkpt lat="45.59452916493154" lon="10.135663200903855"><ele>164.0</ele><time>2026-05-04T15:59:40Z</time></trkpt><trkpt lat="45.59454857468814" lon="10.135773543166243"><ele>164.0</ele><time>2026-05-04T15:59:43Z</time></trkpt><trkpt lat="45.59457171576849" lon="10.135873084858522"><ele>164.0</ele><time>2026-05-04T15:59:46.001Z</time></trkpt><trkpt lat="45.594584923734025" lon="10.135973656526515"><ele>164.0</ele><time>2026-05-04T15:59:49.001Z</time></trkpt><trkpt lat="45.594597762638145" lon="10.136077326329026"><ele>164.0</ele><time>2026-05-04T15:59:52.001Z</time></trkpt><trkpt lat="45.59460439467499" lon="10.136190485387027"><ele>164.0</ele><time>2026-05-04T15:59:55.001Z</time></trkpt><trkpt lat="45.594624084942296" lon="10.13630407405191"><ele>164.0</ele><time>2026-05-04T15:59:58.001Z</time></trkpt><trkpt lat="45.594641029301314" lon="10.136400686665533"><ele>164.0</ele><time>2026-05-04T16:00:01.001Z</time></trkpt><trkpt lat="45.594649759520905" lon="10.136505717054796"><ele>163.7142857142857</ele><time>2026-05-04T16:00:04.001Z</time></trkpt><trkpt lat="45.59466826241155" lon="10.136597050783076"><ele>163.42857142857142</ele><time>2026-05-04T16:00:07.001Z</time></trkpt><trkpt lat="45.59470494742605" lon="10.13668997448836"><ele>163.14285714285714</ele><time>2026-05-04T16:00:10.001Z</time></trkpt><trkpt lat="45.594779253594716" lon="10.136704972113554"><ele>162.85714285714283</ele><time>2026-05-04T16:00:13.001Z</time></trkpt><trkpt lat="45.59485424549132" lon="10.136720151291446"><ele>162.57142857142856</ele><time>2026-05-04T16:00:17.001Z</time></trkpt><trkpt lat="45.59493473524939" lon="10.13671409077343"><ele>162.28571428571428</ele><time>2026-05-04T16:00:21.001Z</time></trkpt><trkpt lat="45.594998930774125" lon="10.136712704201004"><ele>162.0</ele><time>2026-05-04T16:00:24.001Z</time></trkpt><trkpt lat="45.59508698072973" lon="10.13671209811209"><ele>162.0</ele><time>2026-05-04T16:00:27.999Z</time></trkpt><trkpt lat="45.5951523943859" lon="10.13670262100725"><ele>162.0</ele><time>2026-05-04T16:00:30.999Z</time></trkpt><trkpt lat="45.59521569304721" lon="10.13670554034012"><ele>162.0</ele><time>2026-05-04T16:00:33.999Z</time></trkpt><trkpt lat="45.59528180710136" lon="10.136761818520862"><ele>162.0</ele><time>2026-05-04T16:00:36.999Z</time></trkpt><trkpt lat="45.5952973135491" lon="10.136879524378259"><ele>162.0</ele><time>2026-05-04T16:00:39.999Z</time></trkpt><trkpt lat="45.59528213042332" lon="10.13697544683829"><ele>162.0</ele><time>2026-05-04T16:00:42.999Z</time></trkpt><trkpt lat="45.59527004191712" lon="10.137094873157917"><ele>162.0</ele><time>2026-05-04T16:00:46.999Z</time></trkpt><trkpt lat="45.59525559207186" lon="10.137188708007224"><ele>162.0</ele><time>2026-05-04T16:00:49.999Z</time></trkpt><trkpt lat="45.595242370890325" lon="10.13728435233846"><ele>162.0</ele><time>2026-05-04T16:00:52.999Z</time></trkpt><trkpt lat="45.59523882720558" lon="10.137378569155048"><ele>162.0</ele><time>2026-05-04T16:00:55.999Z</time></trkpt><trkpt lat="45.595245176026616" lon="10.1374875623404"><ele>162.0</ele><time>2026-05-04T16:00:59Z</time></trkpt><trkpt lat="45.59522568601696" lon="10.137584284504346"><ele>162.0</ele><time>2026-05-04T16:01:02Z</time></trkpt><trkpt lat="45.59523126441954" lon="10.137687088504412"><ele>162.0</ele><time>2026-05-04T16:01:05Z</time></trkpt><trkpt lat="45.5952278861259" lon="10.137797551670275"><ele>162.0</ele><time>2026-05-04T16:01:08Z</time></trkpt><trkpt lat="45.59523139096465" lon="10.137904550272527"><ele>162.0</ele><time>2026-05-04T16:01:11Z</time></trkpt><trkpt lat="45.59523874842425" lon="10.138007785371125"><ele>162.0</ele><time>2026-05-04T16:01:14Z</time></trkpt><trkpt lat="45.59524186723932" lon="10.138114972686516"><ele>162.0</ele><time>2026-05-04T16:01:17Z</time></trkpt><trkpt lat="45.59525052612543" lon="10.138222413502245"><ele>162.0</ele><time>2026-05-04T16:01:20Z</time></trkpt><trkpt lat="45.59524917639724" lon="10.138334262070448"><ele>162.0</ele><time>2026-05-04T16:01:23Z</time></trkpt><trkpt lat="45.59526279698603" lon="10.138430627041965"><ele>162.0</ele><time>2026-05-04T16:01:26Z</time></trkpt><trkpt lat="45.59526804440038" lon="10.138524181066582"><ele>162.0</ele><time>2026-05-04T16:01:29Z</time></trkpt><trkpt lat="45.595326370635824" lon="10.138563656094664"><ele>162.42857142857144</ele><time>2026-05-04T16:01:37Z</time></trkpt><trkpt lat="45.5953641016004" lon="10.13865451326913"><ele>162.85714285714286</ele><time>2026-05-04T16:01:42Z</time></trkpt><trkpt lat="45.59537504793709" lon="10.138754814736151"><ele>163.28571428571428</ele><time>2026-05-04T16:01:46Z</time></trkpt><trkpt lat="45.59538899941214" lon="10.138844222172336"><ele>163.71428571428572</ele><time>2026-05-04T16:01:50Z</time></trkpt><trkpt lat="45.595396024510315" lon="10.138934295632627"><ele>164.14285714285714</ele><time>2026-05-04T16:01:53Z</time></trkpt><trkpt lat="45.595400084060394" lon="10.139042116302377"><ele>164.57142857142858</ele><time>2026-05-04T16:01:56Z</time></trkpt><trkpt lat="45.5953937887251" lon="10.139171550126765"><ele>165.0</ele><time>2026-05-04T16:01:59Z</time></trkpt><trkpt lat="45.59536233339916" lon="10.139256667154248"><ele>165.0</ele><time>2026-05-04T16:02:01Z</time></trkpt><trkpt lat="45.59533688190787" lon="10.139377176452752"><ele>165.0</ele><time>2026-05-04T16:02:04Z</time></trkpt><trkpt lat="45.59534278524172" lon="10.139505412095412"><ele>165.0</ele><time>2026-05-04T16:02:07Z</time></trkpt><trkpt lat="45.595340849689514" lon="10.13962305189562"><ele>165.0</ele><time>2026-05-04T16:02:10Z</time></trkpt><trkpt lat="45.59534132811909" lon="10.139744420349617"><ele>165.0</ele><time>2026-05-04T16:02:13Z</time></trkpt><trkpt lat="45.5953458461123" lon="10.139860405791294"><ele>165.0</ele><time>2026-05-04T16:02:16Z</time></trkpt><trkpt lat="45.59534504929799" lon="10.139970195697439"><ele>164.85714285714286</ele><time>2026-05-04T16:02:19Z</time></trkpt><trkpt lat="45.595357414025074" lon="10.140076872430516"><ele>164.71428571428572</ele><time>2026-05-04T16:02:22Z</time></trkpt><trkpt lat="45.59536036632767" lon="10.140185654816452"><ele>164.57142857142856</ele><time>2026-05-04T16:02:25.001Z</time></trkpt><trkpt lat="45.59536443101849" lon="10.140288969350044"><ele>164.42857142857144</ele><time>2026-05-04T16:02:28.001Z</time></trkpt><trkpt lat="45.59537143876922" lon="10.140390212788477"><ele>164.28571428571428</ele><time>2026-05-04T16:02:31.001Z</time></trkpt><trkpt lat="45.5953749938338" lon="10.140499194315781"><ele>164.14285714285714</ele><time>2026-05-04T16:02:33.999Z</time></trkpt><trkpt lat="45.595387288792026" lon="10.140608833798963"><ele>164.0</ele><time>2026-05-04T16:02:36.999Z</time></trkpt><trkpt lat="45.59540851828895" lon="10.140711571098914"><ele>164.33333333333331</ele><time>2026-05-04T16:02:39.999Z</time></trkpt><trkpt lat="45.595438404877015" lon="10.140815793432303"><ele>164.66666666666666</ele><time>2026-05-04T16:02:42.999Z</time></trkpt><trkpt lat="45.59545936391487" lon="10.140935035036964"><ele>165.0</ele><time>2026-05-04T16:02:46Z</time></trkpt><trkpt lat="45.59548846927618" lon="10.141039266248583"><ele>165.33333333333334</ele><time>2026-05-04T16:02:49Z</time></trkpt><trkpt lat="45.59552415324594" lon="10.141140581432142"><ele>165.66666666666669</ele><time>2026-05-04T16:02:52Z</time></trkpt><trkpt lat="45.59555071852649" lon="10.141244886241184"><ele>166.0</ele><time>2026-05-04T16:02:55Z</time></trkpt><trkpt lat="45.59558155705312" lon="10.141342752158714"><ele>166.0</ele><time>2026-05-04T16:02:58Z</time></trkpt><trkpt lat="45.59561294625365" lon="10.141445073748539"><ele>166.0</ele><time>2026-05-04T16:03:01Z</time></trkpt><trkpt lat="45.59564532193017" lon="10.141544191730835"><ele>166.0</ele><time>2026-05-04T16:03:04Z</time></trkpt><trkpt lat="45.59566996352416" lon="10.14164854037914"><ele>166.0</ele><time>2026-05-04T16:03:07Z</time></trkpt><trkpt lat="45.595691842004264" lon="10.141740512211967"><ele>166.0</ele><time>2026-05-04T16:03:10Z</time></trkpt><trkpt lat="45.59569926698955" lon="10.141850135822311"><ele>166.0</ele><time>2026-05-04T16:03:13Z</time></trkpt><trkpt lat="45.595710603513695" lon="10.141946004355837"><ele>166.0</ele><time>2026-05-04T16:03:16Z</time></trkpt><trkpt lat="45.59571492959861" lon="10.142048018344607"><ele>166.14285714285714</ele><time>2026-05-04T16:03:19Z</time></trkpt><trkpt lat="45.59571024691341" lon="10.142143579250641"><ele>166.2857142857143</ele><time>2026-05-04T16:03:22Z</time></trkpt><trkpt lat="45.59570193798322" lon="10.142253175516524"><ele>166.42857142857144</ele><time>2026-05-04T16:03:25Z</time></trkpt><trkpt lat="45.59569083623882" lon="10.142357478786973"><ele>166.57142857142856</ele><time>2026-05-04T16:03:28Z</time></trkpt><trkpt lat="45.595681191559954" lon="10.142451838840753"><ele>166.71428571428572</ele><time>2026-05-04T16:03:31Z</time></trkpt><trkpt lat="45.59566739238722" lon="10.142546494956381"><ele>166.85714285714286</ele><time>2026-05-04T16:03:34Z</time></trkpt><trkpt lat="45.59567653341014" lon="10.142654414725408"><ele>167.0</ele><time>2026-05-04T16:03:37Z</time></trkpt><trkpt lat="45.59566396161115" lon="10.1427605709986"><ele>167.28571428571428</ele><time>2026-05-04T16:03:40Z</time></trkpt><trkpt lat="45.595663064400455" lon="10.142867847631514"><ele>167.57142857142858</ele><time>2026-05-04T16:03:43Z</time></trkpt><trkpt lat="45.595647298827245" lon="10.142971085187577"><ele>167.85714285714286</ele><time>2026-05-04T16:03:46Z</time></trkpt><trkpt lat="45.59563035110841" lon="10.143075937061665"><ele>168.14285714285714</ele><time>2026-05-04T16:03:49Z</time></trkpt><trkpt lat="45.59563075231669" lon="10.14317780454108"><ele>168.42857142857142</ele><time>2026-05-04T16:03:52Z</time></trkpt><trkpt lat="45.595610286201165" lon="10.14326561034837"><ele>168.71428571428572</ele><time>2026-05-04T16:03:55Z</time></trkpt><trkpt lat="45.59558268423693" lon="10.14335490760012"><ele>169.0</ele><time>2026-05-04T16:03:58Z</time></trkpt><trkpt lat="45.59556511794846" lon="10.143445905394593"><ele>169.85714285714286</ele><time>2026-05-04T16:04:01Z</time></trkpt><trkpt lat="45.595533277016486" lon="10.143556729347397"><ele>170.71428571428572</ele><time>2026-05-04T16:04:05.001Z</time></trkpt><trkpt lat="45.59550844931308" lon="10.143644131177531"><ele>171.57142857142856</ele><time>2026-05-04T16:04:08.001Z</time></trkpt><trkpt lat="45.59549020471769" lon="10.143734168130514"><ele>172.42857142857144</ele><time>2026-05-04T16:04:11.001Z</time></trkpt><trkpt lat="45.59546378050063" lon="10.143823487993606"><ele>173.28571428571428</ele><time>2026-05-04T16:04:14.001Z</time></trkpt><trkpt lat="45.595439577647745" lon="10.143920176920068"><ele>174.14285714285714</ele><time>2026-05-04T16:04:17.001Z</time></trkpt><trkpt lat="45.59542078525758" lon="10.144019142886469"><ele>175.0</ele><time>2026-05-04T16:04:20.001Z</time></trkpt><trkpt lat="45.59539572063263" lon="10.144129906204089"><ele>175.28571428571428</ele><time>2026-05-04T16:04:23.001Z</time></trkpt><trkpt lat="45.59536677535032" lon="10.144233240918117"><ele>175.57142857142856</ele><time>2026-05-04T16:04:26.001Z</time></trkpt><trkpt lat="45.59534194224971" lon="10.144328134972719"><ele>175.85714285714286</ele><time>2026-05-04T16:04:29.001Z</time></trkpt><trkpt lat="45.59532505119546" lon="10.144432163691752"><ele>176.14285714285714</ele><time>2026-05-04T16:04:32.001Z</time></trkpt><trkpt lat="45.595315843511706" lon="10.144543904498878"><ele>176.42857142857142</ele><time>2026-05-04T16:04:35.001Z</time></trkpt><trkpt lat="45.595295307095334" lon="10.14464295640838"><ele>176.71428571428572</ele><time>2026-05-04T16:04:38.001Z</time></trkpt><trkpt lat="45.59526921283085" lon="10.144741991870283"><ele>177.0</ele><time>2026-05-04T16:04:41Z</time></trkpt><trkpt lat="45.59525698162189" lon="10.14484667695822"><ele>176.2857142857143</ele><time>2026-05-04T16:04:44Z</time></trkpt><trkpt lat="45.59523619173451" lon="10.144949866827094"><ele>175.57142857142856</ele><time>2026-05-04T16:04:47Z</time></trkpt><trkpt lat="45.595219398715294" lon="10.145043890181668"><ele>174.85714285714286</ele><time>2026-05-04T16:04:50Z</time></trkpt><trkpt lat="45.595208415838904" lon="10.1451459420017"><ele>174.14285714285717</ele><time>2026-05-04T16:04:53Z</time></trkpt><trkpt lat="45.59518995632467" lon="10.145246689548802"><ele>173.42857142857144</ele><time>2026-05-04T16:04:56Z</time></trkpt><trkpt lat="45.59517935270213" lon="10.145341063452229"><ele>172.71428571428572</ele><time>2026-05-04T16:04:59Z</time></trkpt><trkpt lat="45.59516927702372" lon="10.145439225322175"><ele>172.0</ele><time>2026-05-04T16:05:02Z</time></trkpt><trkpt lat="45.5951690627282" lon="10.145538734290463"><ele>172.00000000000003</ele><time>2026-05-04T16:05:05Z</time></trkpt><trkpt lat="45.595173176920426" lon="10.145640796459032"><ele>172.0</ele><time>2026-05-04T16:05:08Z</time></trkpt><trkpt lat="45.59517651441294" lon="10.14573653652917"><ele>172.0</ele><time>2026-05-04T16:05:11Z</time></trkpt><trkpt lat="45.59517730040365" lon="10.145835213258625"><ele>172.0</ele><time>2026-05-04T16:05:14Z</time></trkpt><trkpt lat="45.595183079232534" lon="10.145953977699559"><ele>172.0</ele><time>2026-05-04T16:05:18Z</time></trkpt><trkpt lat="45.59520059567126" lon="10.146045167227916"><ele>172.00000000000003</ele><time>2026-05-04T16:05:21Z</time></trkpt><trkpt lat="45.59520643253473" lon="10.146145825299694"><ele>172.0</ele><time>2026-05-04T16:05:24Z</time></trkpt><trkpt lat="45.59521051451215" lon="10.146249957566297"><ele>172.57142857142858</ele><time>2026-05-04T16:05:27Z</time></trkpt><trkpt lat="45.59521389613005" lon="10.146355259181204"><ele>173.14285714285714</ele><time>2026-05-04T16:05:30Z</time></trkpt><trkpt lat="45.59522819911743" lon="10.146456918016748"><ele>173.71428571428572</ele><time>2026-05-04T16:05:33Z</time></trkpt><trkpt lat="45.595233261083614" lon="10.146570679513827"><ele>174.28571428571428</ele><time>2026-05-04T16:05:37Z</time></trkpt><trkpt lat="45.59524121044726" lon="10.146660334433621"><ele>174.85714285714286</ele><time>2026-05-04T16:05:40Z</time></trkpt><trkpt lat="45.595249495978805" lon="10.146757794710288"><ele>175.42857142857144</ele><time>2026-05-04T16:05:43Z</time></trkpt><trkpt lat="45.59524069736927" lon="10.14686352721794"><ele>176.0</ele><time>2026-05-04T16:05:46Z</time></trkpt><trkpt lat="45.59524988496645" lon="10.146979379840756"><ele>176.85714285714286</ele><time>2026-05-04T16:05:50Z</time></trkpt><trkpt lat="45.595261763952315" lon="10.147079206109945"><ele>177.71428571428572</ele><time>2026-05-04T16:05:53.001Z</time></trkpt><trkpt lat="45.59526586234779" lon="10.147178325584603"><ele>178.57142857142856</ele><time>2026-05-04T16:05:56.001Z</time></trkpt><trkpt lat="45.595275621890956" lon="10.14727721962516"><ele>179.42857142857144</ele><time>2026-05-04T16:05:59.001Z</time></trkpt><trkpt lat="45.59521931327978" lon="10.147357247227085"><ele>180.28571428571428</ele><time>2026-05-04T16:06:03.001Z</time></trkpt><trkpt lat="45.59513488715126" lon="10.147369053479835"><ele>181.14285714285714</ele><time>2026-05-04T16:06:06.001Z</time></trkpt><trkpt lat="45.59506454560951" lon="10.147341619761265"><ele>182.0</ele><time>2026-05-04T16:06:09.001Z</time></trkpt><trkpt lat="45.59499317712338" lon="10.14733802790301"><ele>182.0</ele><time>2026-05-04T16:06:12.001Z</time></trkpt><trkpt lat="45.59492215568106" lon="10.147340116110556"><ele>182.0</ele><time>2026-05-04T16:06:15.001Z</time></trkpt><trkpt lat="45.59485205875908" lon="10.147337749706308"><ele>182.0</ele><time>2026-05-04T16:06:18.001Z</time></trkpt><trkpt lat="45.594773728192195" lon="10.147319010688996"><ele>182.0</ele><time>2026-05-04T16:06:21.001Z</time></trkpt><trkpt lat="45.59470215283544" lon="10.147302009172003"><ele>182.0</ele><time>2026-05-04T16:06:24.001Z</time></trkpt><trkpt lat="45.59463460843302" lon="10.14728555850453"><ele>182.0</ele><time>2026-05-04T16:06:27.001Z</time></trkpt><trkpt lat="45.59456760725925" lon="10.147269616170693"><ele>182.0</ele><time>2026-05-04T16:06:30.001Z</time></trkpt><trkpt lat="45.59449265889866" lon="10.14725813015354"><ele>183.28571428571428</ele><time>2026-05-04T16:06:33.001Z</time></trkpt><trkpt lat="45.594437672433216" lon="10.147310169388048"><ele>184.57142857142856</ele><time>2026-05-04T16:06:36.001Z</time></trkpt><trkpt lat="45.59441286137939" lon="10.147404846856935"><ele>185.85714285714286</ele><time>2026-05-04T16:06:39.001Z</time></trkpt><trkpt lat="45.59440434700821" lon="10.147500136229546"><ele>187.14285714285714</ele><time>2026-05-04T16:06:42.001Z</time></trkpt><trkpt lat="45.594401338358225" lon="10.147598347226005"><ele>188.42857142857142</ele><time>2026-05-04T16:06:45.001Z</time></trkpt><trkpt lat="45.594393184318946" lon="10.14769529975229"><ele>189.71428571428572</ele><time>2026-05-04T16:06:48Z</time></trkpt><trkpt lat="45.594375303563" lon="10.147790362304415"><ele>191.0</ele><time>2026-05-04T16:06:51Z</time></trkpt><trkpt lat="45.59438067191518" lon="10.147893485589002"><ele>191.0</ele><time>2026-05-04T16:06:54Z</time></trkpt><trkpt lat="45.594372331278485" lon="10.148006165678035"><ele>191.0</ele><time>2026-05-04T16:06:57Z</time></trkpt><trkpt lat="45.59436572959379" lon="10.14809764635544"><ele>191.0</ele><time>2026-05-04T16:07:00Z</time></trkpt><trkpt lat="45.594354944174604" lon="10.148213261182114"><ele>191.0</ele><time>2026-05-04T16:07:03Z</time></trkpt><trkpt lat="45.59435003354522" lon="10.148323495085013"><ele>191.0</ele><time>2026-05-04T16:07:06Z</time></trkpt><trkpt lat="45.59434543949455" lon="10.148434111111442"><ele>191.0</ele><time>2026-05-04T16:07:09Z</time></trkpt><trkpt lat="45.59433017990904" lon="10.148531109504463"><ele>190.2857142857143</ele><time>2026-05-04T16:07:12Z</time></trkpt><trkpt lat="45.59431327222715" lon="10.14862517771833"><ele>189.57142857142856</ele><time>2026-05-04T16:07:15Z</time></trkpt><trkpt lat="45.59429502406054" lon="10.148712123345502"><ele>188.85714285714286</ele><time>2026-05-04T16:07:18Z</time></trkpt><trkpt lat="45.594291398401026" lon="10.148816187581708"><ele>188.14285714285717</ele><time>2026-05-04T16:07:21Z</time></trkpt><trkpt lat="45.59428349697139" lon="10.148921832092139"><ele>187.42857142857144</ele><time>2026-05-04T16:07:24Z</time></trkpt><trkpt lat="45.594275201176664" lon="10.149030405612763"><ele>186.71428571428572</ele><time>2026-05-04T16:07:27Z</time></trkpt><trkpt lat="45.59423419357434" lon="10.149112768453225"><ele>186.0</ele><time>2026-05-04T16:07:30Z</time></trkpt><trkpt lat="45.59418489006504" lon="10.149208848235364"><ele>185.66666666666666</ele><time>2026-05-04T16:07:33Z</time></trkpt><trkpt lat="45.59413601360778" lon="10.149295338163327"><ele>185.33333333333334</ele><time>2026-05-04T16:07:36Z</time></trkpt><trkpt lat="45.59408673072986" lon="10.149392201080758"><ele>185.0</ele><time>2026-05-04T16:07:39Z</time></trkpt><trkpt lat="45.594049549480424" lon="10.149485646424818"><ele>184.66666666666669</ele><time>2026-05-04T16:07:42Z</time></trkpt><trkpt lat="45.5940226304565" lon="10.149586760676392"><ele>184.33333333333334</ele><time>2026-05-04T16:07:45Z</time></trkpt><trkpt lat="45.59399050727525" lon="10.149679463195696"><ele>184.0</ele><time>2026-05-04T16:07:48Z</time></trkpt><trkpt lat="45.59395945467521" lon="10.149780784813201"><ele>183.71428571428572</ele><time>2026-05-04T16:07:51.001Z</time></trkpt><trkpt lat="45.59393380173585" lon="10.149878024543431"><ele>183.42857142857142</ele><time>2026-05-04T16:07:54.001Z</time></trkpt><trkpt lat="45.5939163051234" lon="10.149966532181237"><ele>183.14285714285714</ele><time>2026-05-04T16:07:57.001Z</time></trkpt><trkpt lat="45.59388959031235" lon="10.150050523919429"><ele>182.85714285714286</ele><time>2026-05-04T16:08:00.001Z</time></trkpt><trkpt lat="45.59385441544955" lon="10.150141281706219"><ele>182.57142857142856</ele><time>2026-05-04T16:08:03.001Z</time></trkpt><trkpt lat="45.593829068034324" lon="10.15024627768301"><ele>182.28571428571428</ele><time>2026-05-04T16:08:06.001Z</time></trkpt><trkpt lat="45.59381021048864" lon="10.150350142888376"><ele>182.0</ele><time>2026-05-04T16:08:09.001Z</time></trkpt><trkpt lat="45.593797950302914" lon="10.150453749641661"><ele>182.0</ele><time>2026-05-04T16:08:12.001Z</time></trkpt><trkpt lat="45.59378075355061" lon="10.150566584383684"><ele>182.0</ele><time>2026-05-04T16:08:15.001Z</time></trkpt><trkpt lat="45.59376009781458" lon="10.150675555683897"><ele>182.0</ele><time>2026-05-04T16:08:18.001Z</time></trkpt><trkpt lat="45.59373312449237" lon="10.15077254764736"><ele>182.0</ele><time>2026-05-04T16:08:21.001Z</time></trkpt><trkpt lat="45.59370254478381" lon="10.150867892511227"><ele>182.0</ele><time>2026-05-04T16:08:24.001Z</time></trkpt><trkpt lat="45.59367167149671" lon="10.150960028297018"><ele>182.0</ele><time>2026-05-04T16:08:27.001Z</time></trkpt><trkpt lat="45.593641158077" lon="10.151058051339032"><ele>181.66666666666666</ele><time>2026-05-04T16:08:30.001Z</time></trkpt><trkpt lat="45.59360631964646" lon="10.151151509965693"><ele>181.33333333333331</ele><time>2026-05-04T16:08:33.001Z</time></trkpt><trkpt lat="45.59358829348961" lon="10.15126458302731"><ele>181.0</ele><time>2026-05-04T16:08:36.001Z</time></trkpt><trkpt lat="45.59357901169011" lon="10.15136293768459"><ele>180.66666666666666</ele><time>2026-05-04T16:08:39.001Z</time></trkpt><trkpt lat="45.59358042439812" lon="10.15147551902701"><ele>180.33333333333334</ele><time>2026-05-04T16:08:42.001Z</time></trkpt><trkpt lat="45.59356753135443" lon="10.151595079119897"><ele>180.0</ele><time>2026-05-04T16:08:46.001Z</time></trkpt><trkpt lat="45.593523826973325" lon="10.151672265034765"><ele>180.0</ele><time>2026-05-04T16:08:49.001Z</time></trkpt><trkpt lat="45.59349223812179" lon="10.151762118481356"><ele>180.0</ele><time>2026-05-04T16:08:52Z</time></trkpt><trkpt lat="45.59345285943452" lon="10.151852064726063"><ele>180.0</ele><time>2026-05-04T16:08:55Z</time></trkpt><trkpt lat="45.59339034160414" lon="10.151915190844674"><ele>180.0</ele><time>2026-05-04T16:08:58Z</time></trkpt><trkpt lat="45.593321081570416" lon="10.151924488250724"><ele>180.0</ele><time>2026-05-04T16:09:01Z</time></trkpt><trkpt lat="45.59328645707287" lon="10.152002179423226"><ele>180.0</ele><time>2026-05-04T16:09:04Z</time></trkpt><trkpt lat="45.593226425061644" lon="10.152063383993855"><ele>180.0</ele><time>2026-05-04T16:09:07Z</time></trkpt><trkpt lat="45.59316601496892" lon="10.152120068023624"><ele>180.0</ele><time>2026-05-04T16:09:10Z</time></trkpt><trkpt lat="45.593130741648274" lon="10.15222856317314"><ele>180.0</ele><time>2026-05-04T16:09:13Z</time></trkpt><trkpt lat="45.593125845327926" lon="10.152371384009992"><ele>180.0</ele><time>2026-05-04T16:09:16Z</time></trkpt><trkpt lat="45.593123001460675" lon="10.152467255260948"><ele>180.0</ele><time>2026-05-04T16:09:18Z</time></trkpt><trkpt lat="45.593059557385104" lon="10.152531403075516"><ele>180.0</ele><time>2026-05-04T16:09:22Z</time></trkpt><trkpt lat="45.592984950311404" lon="10.152577794668424"><ele>180.0</ele><time>2026-05-04T16:09:25Z</time></trkpt><trkpt lat="45.59290100958767" lon="10.152603397221405"><ele>180.14285714285714</ele><time>2026-05-04T16:09:29Z</time></trkpt><trkpt lat="45.59283965606606" lon="10.152545762964643"><ele>180.2857142857143</ele><time>2026-05-04T16:09:32Z</time></trkpt><trkpt lat="45.59277434558621" lon="10.152577819946083"><ele>180.42857142857144</ele><time>2026-05-04T16:09:35Z</time></trkpt><trkpt lat="45.592704748728295" lon="10.152578856348637"><ele>180.57142857142856</ele><time>2026-05-04T16:09:38Z</time></trkpt><trkpt lat="45.59263339041088" lon="10.152553200357302"><ele>180.71428571428572</ele><time>2026-05-04T16:09:41Z</time></trkpt><trkpt lat="45.59255365691185" lon="10.152529890773398"><ele>180.85714285714286</ele><time>2026-05-04T16:09:45Z</time></trkpt><trkpt lat="45.592479246501725" lon="10.152510883838312"><ele>181.0</ele><time>2026-05-04T16:09:48Z</time></trkpt><trkpt lat="45.592395450074505" lon="10.152513827023926"><ele>181.0</ele><time>2026-05-04T16:09:51Z</time></trkpt><trkpt lat="45.59233001989311" lon="10.152529870044486"><ele>181.0</ele><time>2026-05-04T16:09:53.001Z</time></trkpt><trkpt lat="45.59227540630741" lon="10.152456052823325"><ele>181.0</ele><time>2026-05-04T16:09:56.001Z</time></trkpt><trkpt lat="45.592271707578064" lon="10.152356905951791"><ele>181.0</ele><time>2026-05-04T16:09:59.001Z</time></trkpt><trkpt lat="45.592204666891924" lon="10.152305703457559"><ele>181.0</ele><time>2026-05-04T16:10:02.001Z</time></trkpt><trkpt lat="45.59213253334682" lon="10.152293102648827"><ele>181.0</ele><time>2026-05-04T16:10:05.001Z</time></trkpt><trkpt lat="45.59206132442944" lon="10.152283957854515"><ele>181.0</ele><time>2026-05-04T16:10:08.001Z</time></trkpt><trkpt lat="45.591987579025314" lon="10.15224426351329"><ele>182.0</ele><time>2026-05-04T16:10:11.001Z</time></trkpt><trkpt lat="45.59191079350942" lon="10.152183177802932"><ele>183.0</ele><time>2026-05-04T16:10:14.001Z</time></trkpt><trkpt lat="45.59183884298989" lon="10.152128008321043"><ele>184.0</ele><time>2026-05-04T16:10:17.001Z</time></trkpt><trkpt lat="45.59177462013046" lon="10.152076477074813"><ele>185.0</ele><time>2026-05-04T16:10:20.001Z</time></trkpt><trkpt lat="45.59170016581122" lon="10.152024967558287"><ele>186.0</ele><time>2026-05-04T16:10:23.001Z</time></trkpt><trkpt lat="45.591618928149806" lon="10.151995277163358"><ele>187.0</ele><time>2026-05-04T16:10:26.001Z</time></trkpt><trkpt lat="45.591551710486165" lon="10.151973287175283"><ele>187.0</ele><time>2026-05-04T16:10:29.001Z</time></trkpt><trkpt lat="45.59148025352311" lon="10.151964945952203"><ele>187.0</ele><time>2026-05-04T16:10:32.001Z</time></trkpt><trkpt lat="45.59140933698655" lon="10.151946010960229"><ele>187.0</ele><time>2026-05-04T16:10:35.001Z</time></trkpt><trkpt lat="45.59133856152187" lon="10.151934522506853"><ele>187.0</ele><time>2026-05-04T16:10:38.001Z</time></trkpt><trkpt lat="45.59126257047644" lon="10.151932936125224"><ele>187.0</ele><time>2026-05-04T16:10:41.001Z</time></trkpt><trkpt lat="45.5911743278005" lon="10.151921589706543"><ele>187.0</ele><time>2026-05-04T16:10:44.001Z</time></trkpt><trkpt lat="45.59109947201268" lon="10.151913928402983"><ele>186.5</ele><time>2026-05-04T16:10:47.001Z</time></trkpt><trkpt lat="45.591015894213655" lon="10.151915441316286"><ele>186.0</ele><time>2026-05-04T16:10:50.001Z</time></trkpt><trkpt lat="45.59094789862009" lon="10.15189477356146"><ele>185.5</ele><time>2026-05-04T16:10:53.001Z</time></trkpt><trkpt lat="45.59087411133063" lon="10.151891828573262"><ele>185.0</ele><time>2026-05-04T16:10:56.001Z</time></trkpt><trkpt lat="45.59079594892388" lon="10.151880859957775"><ele>184.5</ele><time>2026-05-04T16:10:59Z</time></trkpt><trkpt lat="45.59072434784252" lon="10.151837817510465"><ele>184.0</ele><time>2026-05-04T16:11:02Z</time></trkpt><trkpt lat="45.59065172001757" lon="10.151789361173517"><ele>184.0</ele><time>2026-05-04T16:11:05Z</time></trkpt><trkpt lat="45.59058795447827" lon="10.151725477529867"><ele>184.0</ele><time>2026-05-04T16:11:08Z</time></trkpt><trkpt lat="45.59052231361104" lon="10.15167947819501"><ele>184.0</ele><time>2026-05-04T16:11:11Z</time></trkpt><trkpt lat="45.59045435558731" lon="10.151645264155556"><ele>184.0</ele><time>2026-05-04T16:11:14Z</time></trkpt><trkpt lat="45.59038017875368" lon="10.151606516752533"><ele>184.0</ele><time>2026-05-04T16:11:17Z</time></trkpt><trkpt lat="45.590315950884886" lon="10.151555948041134"><ele>184.0</ele><time>2026-05-04T16:11:20Z</time></trkpt><trkpt lat="45.59025222576875" lon="10.15149543919514"><ele>183.71428571428572</ele><time>2026-05-04T16:11:23Z</time></trkpt><trkpt lat="45.59019012519164" lon="10.151445235968643"><ele>183.42857142857142</ele><time>2026-05-04T16:11:26Z</time></trkpt><trkpt lat="45.59013256115735" lon="10.151387593994986"><ele>183.14285714285714</ele><time>2026-05-04T16:11:29Z</time></trkpt><trkpt lat="45.59007100208799" lon="10.15132723708499"><ele>182.85714285714286</ele><time>2026-05-04T16:11:32Z</time></trkpt><trkpt lat="45.59002408967336" lon="10.151246963380043"><ele>182.57142857142856</ele><time>2026-05-04T16:11:35Z</time></trkpt><trkpt lat="45.58997078446915" lon="10.151176880400866"><ele>182.28571428571428</ele><time>2026-05-04T16:11:38Z</time></trkpt><trkpt lat="45.58992664369898" lon="10.151087522843797"><ele>182.0</ele><time>2026-05-04T16:11:41Z</time></trkpt><trkpt lat="45.58987359591747" lon="10.151012926673696"><ele>182.0</ele><time>2026-05-04T16:11:44Z</time></trkpt><trkpt lat="45.58984922220666" lon="10.150911263964547"><ele>182.0</ele><time>2026-05-04T16:11:47Z</time></trkpt><trkpt lat="45.589811620932366" lon="10.150811226685915"><ele>182.0</ele><time>2026-05-04T16:11:50Z</time></trkpt><trkpt lat="45.58977142844784" lon="10.150723038629469"><ele>182.0</ele><time>2026-05-04T16:11:53Z</time></trkpt><trkpt lat="45.589709223740435" lon="10.150661690154118"><ele>182.0</ele><time>2026-05-04T16:11:56Z</time></trkpt><trkpt lat="45.58963335557121" lon="10.150624941834955"><ele>182.0</ele><time>2026-05-04T16:11:59Z</time></trkpt><trkpt lat="45.589553110205806" lon="10.150581986809087"><ele>182.0</ele><time>2026-05-04T16:12:02Z</time></trkpt><trkpt lat="45.589557430637036" lon="10.150461760182928"><ele>182.0</ele><time>2026-05-04T16:12:05Z</time></trkpt><trkpt lat="45.58959245133349" lon="10.150374433119417"><ele>182.0</ele><time>2026-05-04T16:12:08.001Z</time></trkpt><trkpt lat="45.589605087769606" lon="10.15028036643119"><ele>182.0</ele><time>2026-05-04T16:12:11.001Z</time></trkpt><trkpt lat="45.58961502378592" lon="10.150188159781019"><ele>182.0</ele><time>2026-05-04T16:12:14.001Z</time></trkpt><trkpt lat="45.589635132149844" lon="10.150081788406158"><ele>182.0</ele><time>2026-05-04T16:12:17.001Z</time></trkpt><trkpt lat="45.589656525806824" lon="10.149984807008265"><ele>182.0</ele><time>2026-05-04T16:12:20.001Z</time></trkpt><trkpt lat="45.589680316993714" lon="10.14989975622229"><ele>181.16666666666666</ele><time>2026-05-04T16:12:23.001Z</time></trkpt><trkpt lat="45.58970187081795" lon="10.149781361237904"><ele>180.33333333333331</ele><time>2026-05-04T16:12:27.001Z</time></trkpt><trkpt lat="45.58968063621417" lon="10.14967503993457"><ele>179.5</ele><time>2026-05-04T16:12:30.001Z</time></trkpt><trkpt lat="45.58964189785809" lon="10.149574689747038"><ele>178.66666666666666</ele><time>2026-05-04T16:12:33.001Z</time></trkpt><trkpt lat="45.589594455835794" lon="10.149480227463334"><ele>177.83333333333334</ele><time>2026-05-04T16:12:36.001Z</time></trkpt><trkpt lat="45.589538324127645" lon="10.149413244962778"><ele>177.0</ele><time>2026-05-04T16:12:39.001Z</time></trkpt><trkpt lat="45.58948656625121" lon="10.14933380829599"><ele>176.14285714285714</ele><time>2026-05-04T16:12:42.001Z</time></trkpt><trkpt lat="45.58943807993645" lon="10.14925443337222"><ele>175.28571428571428</ele><time>2026-05-04T16:12:45.001Z</time></trkpt><trkpt lat="45.589400440581734" lon="10.149168896202024"><ele>174.42857142857142</ele><time>2026-05-04T16:12:48.001Z</time></trkpt><trkpt lat="45.58936467884692" lon="10.149075611740868"><ele>173.57142857142856</ele><time>2026-05-04T16:12:51.001Z</time></trkpt><trkpt lat="45.58933891280595" lon="10.14898323464236"><ele>172.71428571428572</ele><time>2026-05-04T16:12:54.001Z</time></trkpt><trkpt lat="45.58931253555323" lon="10.148891066420589"><ele>171.85714285714283</ele><time>2026-05-04T16:12:57.001Z</time></trkpt><trkpt lat="45.589263317428745" lon="10.148813821575922"><ele>171.0</ele><time>2026-05-04T16:13:00.001Z</time></trkpt><trkpt lat="45.589189575206674" lon="10.148772945607938"><ele>171.0</ele><time>2026-05-04T16:13:03.001Z</time></trkpt><trkpt lat="45.58911038286592" lon="10.148714980249336"><ele>171.0</ele><time>2026-05-04T16:13:06Z</time></trkpt><trkpt lat="45.58902744887756" lon="10.148664852202845"><ele>171.0</ele><time>2026-05-04T16:13:09Z</time></trkpt><trkpt lat="45.588959970806634" lon="10.148611196956631"><ele>171.0</ele><time>2026-05-04T16:13:12Z</time></trkpt><trkpt lat="45.58889218638355" lon="10.148578693002651"><ele>171.0</ele><time>2026-05-04T16:13:15Z</time></trkpt><trkpt lat="45.58881026616677" lon="10.14856527203225"><ele>171.0</ele><time>2026-05-04T16:13:18Z</time></trkpt><trkpt lat="45.588729683138546" lon="10.148529059559499"><ele>169.66666666666666</ele><time>2026-05-04T16:13:21Z</time></trkpt><trkpt lat="45.5886528297072" lon="10.148512774641846"><ele>168.33333333333334</ele><time>2026-05-04T16:13:24Z</time></trkpt><trkpt lat="45.58858177604761" lon="10.148520534529592"><ele>167.0</ele><time>2026-05-04T16:13:27Z</time></trkpt><trkpt lat="45.588500759040606" lon="10.148563788464218"><ele>165.66666666666669</ele><time>2026-05-04T16:13:30Z</time></trkpt><trkpt lat="45.588437589479774" lon="10.148631517602286"><ele>164.33333333333334</ele><time>2026-05-04T16:13:33Z</time></trkpt><trkpt lat="45.58836826564642" lon="10.148691564160867"><ele>163.0</ele><time>2026-05-04T16:13:36Z</time></trkpt><trkpt lat="45.588306795904465" lon="10.148748322335457"><ele>163.0</ele><time>2026-05-04T16:13:39Z</time></trkpt><trkpt lat="45.58824929999791" lon="10.148818512239245"><ele>163.0</ele><time>2026-05-04T16:13:42Z</time></trkpt><trkpt lat="45.58818681802011" lon="10.14886961070139"><ele>163.0</ele><time>2026-05-04T16:13:45Z</time></trkpt><trkpt lat="45.58811925329193" lon="10.148929792418192"><ele>163.0</ele><time>2026-05-04T16:13:48Z</time></trkpt><trkpt lat="45.58805311031363" lon="10.14895542775831"><ele>163.0</ele><time>2026-05-04T16:13:51Z</time></trkpt><trkpt lat="45.58798569451469" lon="10.148994649760766"><ele>163.0</ele><time>2026-05-04T16:13:54Z</time></trkpt><trkpt lat="45.58791809373645" lon="10.14902029118004"><ele>163.0</ele><time>2026-05-04T16:13:57Z</time></trkpt><trkpt lat="45.58785087057943" lon="10.14905070969346"><ele>162.14285714285714</ele><time>2026-05-04T16:14:00Z</time></trkpt><trkpt lat="45.587776812203124" lon="10.149064453036768"><ele>161.28571428571428</ele><time>2026-05-04T16:14:03Z</time></trkpt><trkpt lat="45.58770013085139" lon="10.14907281855396"><ele>160.42857142857142</ele><time>2026-05-04T16:14:06Z</time></trkpt><trkpt lat="45.58762900382652" lon="10.149080515007967"><ele>159.57142857142856</ele><time>2026-05-04T16:14:09Z</time></trkpt><trkpt lat="45.58755385731098" lon="10.149065926517988"><ele>158.71428571428572</ele><time>2026-05-04T16:14:12Z</time></trkpt><trkpt lat="45.58748663312546" lon="10.149052650236527"><ele>157.85714285714283</ele><time>2026-05-04T16:14:15Z</time></trkpt><trkpt lat="45.58741217865117" lon="10.14904904262104"><ele>157.0</ele><time>2026-05-04T16:14:18Z</time></trkpt><trkpt lat="45.58733883924234" lon="10.14902496644968"><ele>156.99999999999997</ele><time>2026-05-04T16:14:21.001Z</time></trkpt><trkpt lat="45.58726534418869" lon="10.149022097550398"><ele>157.0</ele><time>2026-05-04T16:14:24.001Z</time></trkpt><trkpt lat="45.587192381409665" lon="10.14901959561623"><ele>157.0</ele><time>2026-05-04T16:14:27.001Z</time></trkpt><trkpt lat="45.58711712855142" lon="10.149023262959172"><ele>157.0</ele><time>2026-05-04T16:14:30.001Z</time></trkpt><trkpt lat="45.58705170118258" lon="10.14903161113335"><ele>157.0</ele><time>2026-05-04T16:14:33.001Z</time></trkpt><trkpt lat="45.586971325693824" lon="10.149041502355397"><ele>156.99999999999997</ele><time>2026-05-04T16:14:36.001Z</time></trkpt><trkpt lat="45.58689495296835" lon="10.149062677902416"><ele>157.0</ele><time>2026-05-04T16:14:39.001Z</time></trkpt><trkpt lat="45.58681909389014" lon="10.149091502641928"><ele>156.42857142857142</ele><time>2026-05-04T16:14:42.001Z</time></trkpt><trkpt lat="45.58675305140114" lon="10.14912519501342"><ele>155.85714285714286</ele><time>2026-05-04T16:14:45.001Z</time></trkpt><trkpt lat="45.58668525467248" lon="10.14917465916685"><ele>155.28571428571428</ele><time>2026-05-04T16:14:48.001Z</time></trkpt><trkpt lat="45.58660873939759" lon="10.149195948483394"><ele>154.71428571428572</ele><time>2026-05-04T16:14:51.001Z</time></trkpt><trkpt lat="45.58654090104227" lon="10.14921572007426"><ele>154.14285714285714</ele><time>2026-05-04T16:14:54.001Z</time></trkpt><trkpt lat="45.586472353624835" lon="10.149231451873398"><ele>153.57142857142856</ele><time>2026-05-04T16:14:57.001Z</time></trkpt><trkpt lat="45.58640179101111" lon="10.149240821508505"><ele>153.0</ele><time>2026-05-04T16:15:00.001Z</time></trkpt><trkpt lat="45.58633475335043" lon="10.149225476413353"><ele>153.0</ele><time>2026-05-04T16:15:03.001Z</time></trkpt><trkpt lat="45.58626645163407" lon="10.149217582723951"><ele>153.0</ele><time>2026-05-04T16:15:06.001Z</time></trkpt><trkpt lat="45.586200270334004" lon="10.149195067027916"><ele>153.0</ele><time>2026-05-04T16:15:09.001Z</time></trkpt><trkpt lat="45.58612625234351" lon="10.149175474302911"><ele>153.0</ele><time>2026-05-04T16:15:12Z</time></trkpt><trkpt lat="45.58605192062657" lon="10.149167743815024"><ele>153.0</ele><time>2026-05-04T16:15:15Z</time></trkpt><trkpt lat="45.58597756367197" lon="10.149146926167374"><ele>153.0</ele><time>2026-05-04T16:15:18Z</time></trkpt><trkpt lat="45.58590058683492" lon="10.149132816421254"><ele>153.0</ele><time>2026-05-04T16:15:21Z</time></trkpt><trkpt lat="45.58582601321155" lon="10.149119198145133"><ele>153.33333333333334</ele><time>2026-05-04T16:15:24Z</time></trkpt><trkpt lat="45.585744437538914" lon="10.14909614439624"><ele>153.66666666666666</ele><time>2026-05-04T16:15:27Z</time></trkpt><trkpt lat="45.58566609518422" lon="10.149077546343483"><ele>154.0</ele><time>2026-05-04T16:15:30Z</time></trkpt><trkpt lat="45.585585824912435" lon="10.14907060073942"><ele>154.33333333333331</ele><time>2026-05-04T16:15:33Z</time></trkpt><trkpt lat="45.58551339507331" lon="10.149069517071037"><ele>154.66666666666666</ele><time>2026-05-04T16:15:36Z</time></trkpt><trkpt lat="45.585436487941976" lon="10.149063408280554"><ele>155.0</ele><time>2026-05-04T16:15:39Z</time></trkpt><trkpt lat="45.58536467718062" lon="10.149062798797994"><ele>154.83333333333331</ele><time>2026-05-04T16:15:42Z</time></trkpt><trkpt lat="45.58529178345828" lon="10.149072279501285"><ele>154.66666666666666</ele><time>2026-05-04T16:15:45Z</time></trkpt><trkpt lat="45.585216755963316" lon="10.149065573122023"><ele>154.5</ele><time>2026-05-04T16:15:48Z</time></trkpt><trkpt lat="45.58514617365927" lon="10.149053766078197"><ele>154.33333333333334</ele><time>2026-05-04T16:15:51Z</time></trkpt><trkpt lat="45.585065200371474" lon="10.149047281662291"><ele>154.16666666666669</ele><time>2026-05-04T16:15:54Z</time></trkpt><trkpt lat="45.584980943867016" lon="10.149040924081175"><ele>154.0</ele><time>2026-05-04T16:15:57Z</time></trkpt><trkpt lat="45.584900039609" lon="10.149026154210937"><ele>154.0</ele><time>2026-05-04T16:16:00Z</time></trkpt><trkpt lat="45.584828736407296" lon="10.14899466991001"><ele>154.0</ele><time>2026-05-04T16:16:03Z</time></trkpt><trkpt lat="45.58476352200627" lon="10.14896280137772"><ele>154.0</ele><time>2026-05-04T16:16:06Z</time></trkpt><trkpt lat="45.5846924702678" lon="10.14894566063011"><ele>154.0</ele><time>2026-05-04T16:16:09Z</time></trkpt><trkpt lat="45.5846133949432" lon="10.148912223637241"><ele>154.0</ele><time>2026-05-04T16:16:13Z</time></trkpt><trkpt lat="45.584537410003115" lon="10.148913680192196"><ele>154.0</ele><time>2026-05-04T16:16:16Z</time></trkpt><trkpt lat="45.58446375840879" lon="10.148864277988052"><ele>153.85714285714286</ele><time>2026-05-04T16:16:19Z</time></trkpt><trkpt lat="45.58439812332222" lon="10.148817365890554"><ele>153.71428571428572</ele><time>2026-05-04T16:16:22Z</time></trkpt><trkpt lat="45.584336035627956" lon="10.148744061663878"><ele>153.57142857142856</ele><time>2026-05-04T16:16:25Z</time></trkpt><trkpt lat="45.58426213231187" lon="10.148688813747933"><ele>153.42857142857144</ele><time>2026-05-04T16:16:28Z</time></trkpt><trkpt lat="45.58420815722476" lon="10.14864236866641"><ele>153.28571428571428</ele><time>2026-05-04T16:16:30Z</time></trkpt><trkpt lat="45.584164734906615" lon="10.148573068616049"><ele>153.14285714285714</ele><time>2026-05-04T16:16:33.001Z</time></trkpt><trkpt lat="45.58413174227233" lon="10.148495954815461"><ele>153.0</ele><time>2026-05-04T16:16:36.001Z</time></trkpt><trkpt lat="45.584084627363694" lon="10.148426776784088"><ele>153.0</ele><time>2026-05-04T16:16:39.001Z</time></trkpt><trkpt lat="45.58401853726095" lon="10.148371148345857"><ele>153.0</ele><time>2026-05-04T16:16:42.001Z</time></trkpt><trkpt lat="45.583957465739125" lon="10.148323440451179"><ele>153.0</ele><time>2026-05-04T16:16:45.001Z</time></trkpt><trkpt lat="45.58388693893596" lon="10.148260204409388"><ele>153.0</ele><time>2026-05-04T16:16:49.001Z</time></trkpt><trkpt lat="45.583822077477535" lon="10.148219840250992"><ele>153.0</ele><time>2026-05-04T16:16:52.001Z</time></trkpt><trkpt lat="45.58375372323732" lon="10.14817892949149"><ele>153.0</ele><time>2026-05-04T16:16:55.001Z</time></trkpt><trkpt lat="45.58367865273426" lon="10.148141076682096"><ele>152.14285714285714</ele><time>2026-05-04T16:16:58.001Z</time></trkpt><trkpt lat="45.583612741038614" lon="10.148083313775164"><ele>151.28571428571428</ele><time>2026-05-04T16:17:01.001Z</time></trkpt><trkpt lat="45.583554081417766" lon="10.148025290379824"><ele>150.42857142857144</ele><time>2026-05-04T16:17:04.001Z</time></trkpt><trkpt lat="45.583494647957096" lon="10.147965927619657"><ele>149.57142857142856</ele><time>2026-05-04T16:17:07.001Z</time></trkpt><trkpt lat="45.58343075403153" lon="10.147902858385876"><ele>148.71428571428572</ele><time>2026-05-04T16:17:10.001Z</time></trkpt><trkpt lat="45.58337068787231" lon="10.147859020209149"><ele>147.85714285714286</ele><time>2026-05-04T16:17:12.001Z</time></trkpt><trkpt lat="45.583321454371806" lon="10.147781747395449"><ele>147.0</ele><time>2026-05-04T16:17:15.001Z</time></trkpt><trkpt lat="45.58327854491408" lon="10.147701813199594"><ele>147.0</ele><time>2026-05-04T16:17:18Z</time></trkpt><trkpt lat="45.58325762636919" lon="10.147596554770814"><ele>147.0</ele><time>2026-05-04T16:17:21Z</time></trkpt><trkpt lat="45.58326528704295" lon="10.14750160248429"><ele>147.0</ele><time>2026-05-04T16:17:24Z</time></trkpt><trkpt lat="45.5832597288144" lon="10.14739659998598"><ele>147.0</ele><time>2026-05-04T16:17:27Z</time></trkpt><trkpt lat="45.583223086745974" lon="10.14730958792329"><ele>147.0</ele><time>2026-05-04T16:17:30Z</time></trkpt><trkpt lat="45.58315458751983" lon="10.14726341028057"><ele>147.0</ele><time>2026-05-04T16:17:33Z</time></trkpt><trkpt lat="45.58309127242285" lon="10.147233451918094"><ele>147.0</ele><time>2026-05-04T16:17:36Z</time></trkpt><trkpt lat="45.58302235309178" lon="10.147277732368048"><ele>146.85714285714286</ele><time>2026-05-04T16:17:39Z</time></trkpt><trkpt lat="45.58295369370853" lon="10.147312749914313"><ele>146.71428571428572</ele><time>2026-05-04T16:17:42Z</time></trkpt><trkpt lat="45.58287981305337" lon="10.147344651299543"><ele>146.57142857142856</ele><time>2026-05-04T16:17:45Z</time></trkpt><trkpt lat="45.582798895397495" lon="10.147335953894736"><ele>146.42857142857144</ele><time>2026-05-04T16:17:49Z</time></trkpt><trkpt lat="45.58273001925155" lon="10.147334370133152"><ele>146.28571428571428</ele><time>2026-05-04T16:17:52Z</time></trkpt><trkpt lat="45.58265887179856" lon="10.147329174330089"><ele>146.14285714285714</ele><time>2026-05-04T16:17:55Z</time></trkpt><trkpt lat="45.58258548908352" lon="10.14730819133834"><ele>146.0</ele><time>2026-05-04T16:17:58Z</time></trkpt><trkpt lat="45.5825115364676" lon="10.147302473975893"><ele>146.0</ele><time>2026-05-04T16:18:01Z</time></trkpt><trkpt lat="45.582443352418274" lon="10.147299168611967"><ele>146.0</ele><time>2026-05-04T16:18:04Z</time></trkpt><trkpt lat="45.58237681371932" lon="10.147274107241953"><ele>146.0</ele><time>2026-05-04T16:18:07Z</time></trkpt><trkpt lat="45.58235453459894" lon="10.147187014112337"><ele>146.0</ele><time>2026-05-04T16:18:10Z</time></trkpt><trkpt lat="45.5823464167867" lon="10.147088913217008"><ele>146.0</ele><time>2026-05-04T16:18:13Z</time></trkpt><trkpt lat="45.58234073861028" lon="10.146992680133813"><ele>146.0</ele><time>2026-05-04T16:18:16Z</time></trkpt><trkpt lat="45.58234178358391" lon="10.146881714397635"><ele>146.0</ele><time>2026-05-04T16:18:20Z</time></trkpt><trkpt lat="45.582336332267985" lon="10.146791352332947"><ele>146.0</ele><time>2026-05-04T16:18:23Z</time></trkpt><trkpt lat="45.58232708973303" lon="10.146686007755294"><ele>146.0</ele><time>2026-05-04T16:18:26Z</time></trkpt><trkpt lat="45.58232620384049" lon="10.146589864490362"><ele>146.0</ele><time>2026-05-04T16:18:29Z</time></trkpt><trkpt lat="45.58232923903555" lon="10.146497125972708"><ele>146.0</ele><time>2026-05-04T16:18:32Z</time></trkpt><trkpt lat="45.58232375144971" lon="10.146407427606395"><ele>146.0</ele><time>2026-05-04T16:18:35Z</time></trkpt><trkpt lat="45.582325114179156" lon="10.146302423195223"><ele>146.0</ele><time>2026-05-04T16:18:38.001Z</time></trkpt><trkpt lat="45.58234596691669" lon="10.14618376809628"><ele>146.0</ele><time>2026-05-04T16:18:42.001Z</time></trkpt><trkpt lat="45.5823426766244" lon="10.146093253176774"><ele>146.16666666666666</ele><time>2026-05-04T16:18:45.001Z</time></trkpt><trkpt lat="45.5823304201352" lon="10.145994278437932"><ele>146.33333333333331</ele><time>2026-05-04T16:18:48.001Z</time></trkpt><trkpt lat="45.582301166040516" lon="10.145867261781834"><ele>146.5</ele><time>2026-05-04T16:18:51.001Z</time></trkpt><trkpt lat="45.58224644010295" lon="10.145769531735434"><ele>146.66666666666666</ele><time>2026-05-04T16:18:54.001Z</time></trkpt><trkpt lat="45.582189317453945" lon="10.145682530518991"><ele>146.83333333333334</ele><time>2026-05-04T16:18:57.001Z</time></trkpt><trkpt lat="45.58213262212486" lon="10.145617407666423"><ele>147.0</ele><time>2026-05-04T16:19:00.001Z</time></trkpt><trkpt lat="45.58207825217007" lon="10.145545352008082"><ele>147.14285714285714</ele><time>2026-05-04T16:19:03.001Z</time></trkpt><trkpt lat="45.58205633832026" lon="10.145457430608667"><ele>147.28571428571428</ele><time>2026-05-04T16:19:06.001Z</time></trkpt><trkpt lat="45.582091579351165" lon="10.145372399660653"><ele>147.42857142857144</ele><time>2026-05-04T16:19:09.001Z</time></trkpt><trkpt lat="45.58210470207163" lon="10.14525505108712"><ele>147.57142857142856</ele><time>2026-05-04T16:19:13.001Z</time></trkpt><trkpt lat="45.582094333523855" lon="10.145136499007181"><ele>147.71428571428572</ele><time>2026-05-04T16:19:17.001Z</time></trkpt><trkpt lat="45.58208316738363" lon="10.145041821330768"><ele>147.85714285714286</ele><time>2026-05-04T16:19:20.001Z</time></trkpt><trkpt lat="45.582077443854324" lon="10.144943993979657"><ele>148.0</ele><time>2026-05-04T16:19:23Z</time></trkpt><trkpt lat="45.58206721412431" lon="10.144852074461495"><ele>147.5</ele><time>2026-05-04T16:19:26Z</time></trkpt><trkpt lat="45.58206193444314" lon="10.144750790978526"><ele>147.0</ele><time>2026-05-04T16:19:29Z</time></trkpt><trkpt lat="45.58205191048041" lon="10.144651937892926"><ele>146.5</ele><time>2026-05-04T16:19:32Z</time></trkpt><trkpt lat="45.58204150841176" lon="10.144549209825461"><ele>146.0</ele><time>2026-05-04T16:19:35Z</time></trkpt><trkpt lat="45.58203852224314" lon="10.144450620626916"><ele>145.5</ele><time>2026-05-04T16:19:38Z</time></trkpt><trkpt lat="45.582025367297994" lon="10.144335696051108"><ele>145.0</ele><time>2026-05-04T16:19:41Z</time></trkpt><trkpt lat="45.58202438433247" lon="10.144204881802239"><ele>145.0</ele><time>2026-05-04T16:19:44Z</time></trkpt><trkpt lat="45.58201850221744" lon="10.144093319379559"><ele>145.0</ele><time>2026-05-04T16:19:47Z</time></trkpt><trkpt lat="45.58201909908864" lon="10.143981296691607"><ele>145.0</ele><time>2026-05-04T16:19:50Z</time></trkpt><trkpt lat="45.582033001824904" lon="10.143887861246435"><ele>145.0</ele><time>2026-05-04T16:19:53Z</time></trkpt><trkpt lat="45.582056330834625" lon="10.143779766057499"><ele>145.0</ele><time>2026-05-04T16:19:56Z</time></trkpt><trkpt lat="45.582070982958754" lon="10.143666954948337"><ele>145.0</ele><time>2026-05-04T16:19:59Z</time></trkpt><trkpt lat="45.58208067677449" lon="10.143558679161691"><ele>144.83333333333334</ele><time>2026-05-04T16:20:02Z</time></trkpt><trkpt lat="45.58209259003469" lon="10.143448423317286"><ele>144.66666666666669</ele><time>2026-05-04T16:20:05Z</time></trkpt><trkpt lat="45.58210561778057" lon="10.143339384783284"><ele>144.5</ele><time>2026-05-04T16:20:08Z</time></trkpt><trkpt lat="45.582111585808114" lon="10.14321326221329"><ele>144.33333333333334</ele><time>2026-05-04T16:20:11Z</time></trkpt><trkpt lat="45.58212105805243" lon="10.143106053308527"><ele>144.16666666666666</ele><time>2026-05-04T16:20:14Z</time></trkpt><trkpt lat="45.582132627160284" lon="10.14299709784537"><ele>144.0</ele><time>2026-05-04T16:20:17Z</time></trkpt><trkpt lat="45.582139401406145" lon="10.142880964257936"><ele>144.33333333333334</ele><time>2026-05-04T16:20:20Z</time></trkpt><trkpt lat="45.58215278746228" lon="10.142772178217697"><ele>144.66666666666666</ele><time>2026-05-04T16:20:23Z</time></trkpt><trkpt lat="45.58216066909389" lon="10.142664651662265"><ele>145.0</ele><time>2026-05-04T16:20:26Z</time></trkpt><trkpt lat="45.58216752272213" lon="10.142555798956465"><ele>145.33333333333331</ele><time>2026-05-04T16:20:29Z</time></trkpt><trkpt lat="45.582178166015396" lon="10.142449606394782"><ele>145.66666666666666</ele><time>2026-05-04T16:20:32Z</time></trkpt><trkpt lat="45.58218578686324" lon="10.142341694296334"><ele>146.0</ele><time>2026-05-04T16:20:35Z</time></trkpt><trkpt lat="45.58220233369515" lon="10.142231641007012"><ele>146.14285714285714</ele><time>2026-05-04T16:20:38Z</time></trkpt><trkpt lat="45.58221265375868" lon="10.142128742808964"><ele>146.28571428571428</ele><time>2026-05-04T16:20:41Z</time></trkpt><trkpt lat="45.58222353181538" lon="10.142019322586776"><ele>146.42857142857144</ele><time>2026-05-04T16:20:44Z</time></trkpt><trkpt lat="45.58222572739603" lon="10.141919096061452"><ele>146.57142857142856</ele><time>2026-05-04T16:20:47Z</time></trkpt><trkpt lat="45.582221223218134" lon="10.141816906436034"><ele>146.71428571428572</ele><time>2026-05-04T16:20:50Z</time></trkpt><trkpt lat="45.58221772153264" lon="10.14171067384985"><ele>146.85714285714286</ele><time>2026-05-04T16:20:53Z</time></trkpt><trkpt lat="45.58221648887136" lon="10.141605204265689"><ele>147.0</ele><time>2026-05-04T16:20:56.001Z</time></trkpt><trkpt lat="45.582218339041745" lon="10.14150178810509"><ele>147.14285714285714</ele><time>2026-05-04T16:20:59.001Z</time></trkpt><trkpt lat="45.582215579136594" lon="10.141389674491112"><ele>147.28571428571428</ele><time>2026-05-04T16:21:02.001Z</time></trkpt><trkpt lat="45.58222140678786" lon="10.14129636701495"><ele>147.42857142857144</ele><time>2026-05-04T16:21:05.001Z</time></trkpt><trkpt lat="45.58221844992779" lon="10.141193179098938"><ele>147.57142857142856</ele><time>2026-05-04T16:21:08.001Z</time></trkpt><trkpt lat="45.58222386830388" lon="10.141082799242314"><ele>147.71428571428572</ele><time>2026-05-04T16:21:11.001Z</time></trkpt><trkpt lat="45.58223055752821" lon="10.140974086407237"><ele>147.85714285714286</ele><time>2026-05-04T16:21:14.001Z</time></trkpt><trkpt lat="45.5822422546169" lon="10.140872081482263"><ele>148.0</ele><time>2026-05-04T16:21:17.001Z</time></trkpt><trkpt lat="45.5822514404056" lon="10.14077164271408"><ele>147.83333333333334</ele><time>2026-05-04T16:21:22.001Z</time></trkpt><trkpt lat="45.58223540386153" lon="10.140646168388814"><ele>147.66666666666669</ele><time>2026-05-04T16:21:25.001Z</time></trkpt><trkpt lat="45.582261906220516" lon="10.140541474769707"><ele>147.5</ele><time>2026-05-04T16:21:28Z</time></trkpt><trkpt lat="45.58228452553627" lon="10.140438741319139"><ele>147.33333333333334</ele><time>2026-05-04T16:21:31Z</time></trkpt><trkpt lat="45.582306957597744" lon="10.140341137767734"><ele>147.16666666666666</ele><time>2026-05-04T16:21:34Z</time></trkpt><trkpt lat="45.58232512338247" lon="10.140240186787306"><ele>147.0</ele><time>2026-05-04T16:21:37Z</time></trkpt><trkpt lat="45.58234659210928" lon="10.140143958738454"><ele>147.0</ele><time>2026-05-04T16:21:40Z</time></trkpt><trkpt lat="45.58236828811714" lon="10.14004491005702"><ele>147.0</ele><time>2026-05-04T16:21:43Z</time></trkpt><trkpt lat="45.58238284105537" lon="10.139950391889599"><ele>147.0</ele><time>2026-05-04T16:21:46Z</time></trkpt><trkpt lat="45.58240955347302" lon="10.139854034470497"><ele>147.0</ele><time>2026-05-04T16:21:49Z</time></trkpt><trkpt lat="45.582418381808786" lon="10.139734902181289"><ele>147.0</ele><time>2026-05-04T16:21:52Z</time></trkpt><trkpt lat="45.58243675997179" lon="10.139636561278719"><ele>147.0</ele><time>2026-05-04T16:21:55Z</time></trkpt><trkpt lat="45.58245675429375" lon="10.13952843397514"><ele>147.0</ele><time>2026-05-04T16:21:58Z</time></trkpt><trkpt lat="45.58248021049122" lon="10.139429922908421"><ele>147.0</ele><time>2026-05-04T16:22:01Z</time></trkpt><trkpt lat="45.58250540994221" lon="10.13933480771283"><ele>147.0</ele><time>2026-05-04T16:22:04Z</time></trkpt><trkpt lat="45.5825253824751" lon="10.139244859603666"><ele>147.0</ele><time>2026-05-04T16:22:07Z</time></trkpt><trkpt lat="45.58254961523931" lon="10.139152567125649"><ele>147.0</ele><time>2026-05-04T16:22:10Z</time></trkpt><trkpt lat="45.58257743862728" lon="10.13906712976717"><ele>147.0</ele><time>2026-05-04T16:22:13Z</time></trkpt><trkpt lat="45.58260766885084" lon="10.138981747758072"><ele>147.0</ele><time>2026-05-04T16:22:16Z</time></trkpt><trkpt lat="45.58264002469433" lon="10.138896803294061"><ele>147.0</ele><time>2026-05-04T16:22:19Z</time></trkpt><trkpt lat="45.58267409387969" lon="10.13880623719971"><ele>147.0</ele><time>2026-05-04T16:22:22Z</time></trkpt><trkpt lat="45.582716607201284" lon="10.138720251392398"><ele>147.0</ele><time>2026-05-04T16:22:25Z</time></trkpt><trkpt lat="45.582759315728296" lon="10.138639908286473"><ele>147.0</ele><time>2026-05-04T16:22:28Z</time></trkpt><trkpt lat="45.582792707272795" lon="10.138539499214898"><ele>147.0</ele><time>2026-05-04T16:22:31Z</time></trkpt><trkpt lat="45.5828449480214" lon="10.13846150397839"><ele>147.0</ele><time>2026-05-04T16:22:34Z</time></trkpt><trkpt lat="45.58289522108166" lon="10.13838079121471"><ele>147.0</ele><time>2026-05-04T16:22:37Z</time></trkpt><trkpt lat="45.582939321629986" lon="10.138282749416312"><ele>147.16666666666666</ele><time>2026-05-04T16:22:40Z</time></trkpt><trkpt lat="45.58298832345435" lon="10.13819106428789"><ele>147.33333333333334</ele><time>2026-05-04T16:22:43Z</time></trkpt><trkpt lat="45.583029935117395" lon="10.138082375951461"><ele>147.5</ele><time>2026-05-04T16:22:46Z</time></trkpt><trkpt lat="45.583065532545994" lon="10.137975552995911"><ele>147.66666666666669</ele><time>2026-05-04T16:22:49Z</time></trkpt><trkpt lat="45.58308441877723" lon="10.137864577654497"><ele>147.83333333333334</ele><time>2026-05-04T16:22:52Z</time></trkpt><trkpt lat="45.58312466502896" lon="10.13777259138932"><ele>148.0</ele><time>2026-05-04T16:22:55Z</time></trkpt><trkpt lat="45.583153617157805" lon="10.137677235830854"><ele>148.0</ele><time>2026-05-04T16:22:58Z</time></trkpt><trkpt lat="45.583193301164606" lon="10.13758048261896"><ele>148.0</ele><time>2026-05-04T16:23:01Z</time></trkpt><trkpt lat="45.58321970661597" lon="10.137480515765843"><ele>148.0</ele><time>2026-05-04T16:23:04Z</time></trkpt><trkpt lat="45.58325389549273" lon="10.137385170577591"><ele>148.0</ele><time>2026-05-04T16:23:07Z</time></trkpt><trkpt lat="45.583283962161545" lon="10.137284385763413"><ele>148.0</ele><time>2026-05-04T16:23:10Z</time></trkpt><trkpt lat="45.583313101247455" lon="10.137196744617905"><ele>148.0</ele><time>2026-05-04T16:23:13Z</time></trkpt><trkpt lat="45.58333403104734" lon="10.137093923478382"><ele>148.0</ele><time>2026-05-04T16:23:16Z</time></trkpt><trkpt lat="45.58335106765165" lon="10.136993716936438"><ele>148.0</ele><time>2026-05-04T16:23:19.001Z</time></trkpt><trkpt lat="45.583367680936625" lon="10.136893451799994"><ele>148.0</ele><time>2026-05-04T16:23:22.001Z</time></trkpt><trkpt lat="45.5833822824699" lon="10.13678714616155"><ele>148.0</ele><time>2026-05-04T16:23:25.001Z</time></trkpt><trkpt lat="45.58339963608165" lon="10.136687696167533"><ele>148.0</ele><time>2026-05-04T16:23:28.001Z</time></trkpt><trkpt lat="45.58341777334031" lon="10.136579958690083"><ele>148.0</ele><time>2026-05-04T16:23:31.001Z</time></trkpt><trkpt lat="45.58342719709555" lon="10.13647940698865"><ele>148.0</ele><time>2026-05-04T16:23:34Z</time></trkpt><trkpt lat="45.58344102351773" lon="10.136377521466503"><ele>148.0</ele><time>2026-05-04T16:23:37Z</time></trkpt><trkpt lat="45.583454965794814" lon="10.136282163356777"><ele>148.14285714285714</ele><time>2026-05-04T16:23:40Z</time></trkpt><trkpt lat="45.583469085330854" lon="10.136191802959699"><ele>148.28571428571428</ele><time>2026-05-04T16:23:43Z</time></trkpt><trkpt lat="45.58348648045343" lon="10.136089721616974"><ele>148.42857142857142</ele><time>2026-05-04T16:23:46Z</time></trkpt><trkpt lat="45.583500366875576" lon="10.135988469603868"><ele>148.57142857142856</ele><time>2026-05-04T16:23:49Z</time></trkpt><trkpt lat="45.583515940010415" lon="10.135887587467527"><ele>148.7142857142857</ele><time>2026-05-04T16:23:52Z</time></trkpt><trkpt lat="45.58352747849712" lon="10.135778311684314"><ele>148.85714285714286</ele><time>2026-05-04T16:23:54Z</time></trkpt><trkpt lat="45.58355135708089" lon="10.135683506192803"><ele>149.0</ele><time>2026-05-04T16:23:57Z</time></trkpt><trkpt lat="45.583576157431764" lon="10.135588018627296"><ele>149.14285714285714</ele><time>2026-05-04T16:24:00Z</time></trkpt><trkpt lat="45.5836025481489" lon="10.135492803967129"><ele>149.28571428571428</ele><time>2026-05-04T16:24:03Z</time></trkpt><trkpt lat="45.58362292445794" lon="10.135398085751339"><ele>149.42857142857142</ele><time>2026-05-04T16:24:06Z</time></trkpt><trkpt lat="45.58364801149426" lon="10.135302725231435"><ele>149.57142857142856</ele><time>2026-05-04T16:24:09Z</time></trkpt><trkpt lat="45.58367207677566" lon="10.135195237033132"><ele>149.71428571428572</ele><time>2026-05-04T16:24:12Z</time></trkpt><trkpt lat="45.583691036622014" lon="10.135092249755893"><ele>149.85714285714283</ele><time>2026-05-04T16:24:15Z</time></trkpt><trkpt lat="45.583713618471904" lon="10.134990016451168"><ele>150.0</ele><time>2026-05-04T16:24:18Z</time></trkpt><trkpt lat="45.583729693017375" lon="10.134889067813175"><ele>149.99999999999997</ele><time>2026-05-04T16:24:21Z</time></trkpt><trkpt lat="45.583750894328674" lon="10.134786691673074"><ele>150.0</ele><time>2026-05-04T16:24:24Z</time></trkpt><trkpt lat="45.58376868360238" lon="10.134681923591423"><ele>150.0</ele><time>2026-05-04T16:24:27Z</time></trkpt><trkpt lat="45.583781012015194" lon="10.134574806179897"><ele>150.0</ele><time>2026-05-04T16:24:30Z</time></trkpt><trkpt lat="45.583792929382334" lon="10.134475061867853"><ele>150.0</ele><time>2026-05-04T16:24:33Z</time></trkpt><trkpt lat="45.58380744320625" lon="10.134364015331172"><ele>149.99999999999997</ele><time>2026-05-04T16:24:36Z</time></trkpt><trkpt lat="45.58381820658391" lon="10.134269525356656"><ele>150.0</ele><time>2026-05-04T16:24:39Z</time></trkpt><trkpt lat="45.58383190343605" lon="10.13416280335752"><ele>149.99999999999997</ele><time>2026-05-04T16:24:42Z</time></trkpt><trkpt lat="45.583838319725594" lon="10.13406673746976"><ele>150.0</ele><time>2026-05-04T16:24:45Z</time></trkpt><trkpt lat="45.58384453726595" lon="10.133962599062901"><ele>150.0</ele><time>2026-05-04T16:24:48Z</time></trkpt><trkpt lat="45.583851877981544" lon="10.13386841864323"><ele>150.0</ele><time>2026-05-04T16:24:51Z</time></trkpt><trkpt lat="45.58386885532912" lon="10.133768207031524"><ele>150.0</ele><time>2026-05-04T16:24:54Z</time></trkpt><trkpt lat="45.58388231011928" lon="10.133672181078358"><ele>149.99999999999997</ele><time>2026-05-04T16:24:57Z</time></trkpt><trkpt lat="45.58390332554777" lon="10.133572794751956"><ele>150.0</ele><time>2026-05-04T16:25:00Z</time></trkpt><trkpt lat="45.58392300696004" lon="10.133474875132865"><ele>150.33333333333334</ele><time>2026-05-04T16:25:03Z</time></trkpt><trkpt lat="45.58394486585624" lon="10.133375323071675"><ele>150.66666666666666</ele><time>2026-05-04T16:25:06Z</time></trkpt><trkpt lat="45.583963873278584" lon="10.133281788145434"><ele>151.0</ele><time>2026-05-04T16:25:09Z</time></trkpt><trkpt lat="45.58399025240039" lon="10.133183834096947"><ele>151.33333333333331</ele><time>2026-05-04T16:25:12Z</time></trkpt><trkpt lat="45.584018252993346" lon="10.133073551662465"><ele>151.66666666666666</ele><time>2026-05-04T16:25:15.001Z</time></trkpt><trkpt lat="45.58402587134196" lon="10.13296451831614"><ele>152.0</ele><time>2026-05-04T16:25:18.001Z</time></trkpt><trkpt lat="45.58402408586197" lon="10.132834334725535"><ele>152.0</ele><time>2026-05-04T16:25:21.001Z</time></trkpt><trkpt lat="45.584014466527904" lon="10.132700861945361"><ele>152.0</ele><time>2026-05-04T16:25:24.001Z</time></trkpt><trkpt lat="45.584002814581595" lon="10.132595146034673"><ele>152.0</ele><time>2026-05-04T16:25:27.001Z</time></trkpt><trkpt lat="45.58399625540314" lon="10.13249311921832"><ele>152.0</ele><time>2026-05-04T16:25:30.001Z</time></trkpt><trkpt lat="45.583983127964885" lon="10.1323844494428"><ele>152.0</ele><time>2026-05-04T16:25:33.001Z</time></trkpt><trkpt lat="45.58398182250448" lon="10.13228102367826"><ele>152.0</ele><time>2026-05-04T16:25:36.001Z</time></trkpt><trkpt lat="45.5839744305469" lon="10.132182112057695"><ele>152.0</ele><time>2026-05-04T16:25:39.001Z</time></trkpt><trkpt lat="45.58397035139901" lon="10.13208801969221"><ele>152.0</ele><time>2026-05-04T16:25:42Z</time></trkpt><trkpt lat="45.583970229937016" lon="10.131986443696478"><ele>152.0</ele><time>2026-05-04T16:25:45Z</time></trkpt><trkpt lat="45.583964391729154" lon="10.131891640643149"><ele>152.0</ele><time>2026-05-04T16:25:48Z</time></trkpt><trkpt lat="45.58396635249311" lon="10.131784589384216"><ele>152.0</ele><time>2026-05-04T16:25:51Z</time></trkpt><trkpt lat="45.583965559970444" lon="10.131675694555899"><ele>152.0</ele><time>2026-05-04T16:25:54Z</time></trkpt><trkpt lat="45.58397006995515" lon="10.131566498045034"><ele>152.0</ele><time>2026-05-04T16:25:57Z</time></trkpt><trkpt lat="45.58397310301511" lon="10.131463802363335"><ele>151.85714285714286</ele><time>2026-05-04T16:26:00Z</time></trkpt><trkpt lat="45.58397188818986" lon="10.131358689704381"><ele>151.71428571428572</ele><time>2026-05-04T16:26:03Z</time></trkpt><trkpt lat="45.5839772036347" lon="10.131263146696009"><ele>151.57142857142858</ele><time>2026-05-04T16:26:06Z</time></trkpt><trkpt lat="45.58396962825008" lon="10.131166529675685"><ele>151.42857142857144</ele><time>2026-05-04T16:26:09Z</time></trkpt><trkpt lat="45.583966328248" lon="10.13107004575409"><ele>151.28571428571428</ele><time>2026-05-04T16:26:12Z</time></trkpt><trkpt lat="45.58397415086427" lon="10.130965458007395"><ele>151.14285714285717</ele><time>2026-05-04T16:26:15Z</time></trkpt><trkpt lat="45.58396574575502" lon="10.13085474781205"><ele>151.0</ele><time>2026-05-04T16:26:18Z</time></trkpt><trkpt lat="45.58396799164466" lon="10.130755565075992"><ele>151.16666666666669</ele><time>2026-05-04T16:26:21Z</time></trkpt><trkpt lat="45.5839708468669" lon="10.130653885331848"><ele>151.33333333333334</ele><time>2026-05-04T16:26:24Z</time></trkpt><trkpt lat="45.58397254351826" lon="10.130553496826943"><ele>151.5</ele><time>2026-05-04T16:26:27Z</time></trkpt><trkpt lat="45.58397599900268" lon="10.130451164662798"><ele>151.66666666666666</ele><time>2026-05-04T16:26:30Z</time></trkpt><trkpt lat="45.583927064953876" lon="10.13034583140595"><ele>151.83333333333331</ele><time>2026-05-04T16:26:33Z</time></trkpt><trkpt lat="45.58384494611891" lon="10.130321294853147"><ele>152.0</ele><time>2026-05-04T16:26:36Z</time></trkpt><trkpt lat="45.58376726906876" lon="10.13032111847411"><ele>152.0</ele><time>2026-05-04T16:26:39Z</time></trkpt><trkpt lat="45.58369758057005" lon="10.130351185030493"><ele>152.0</ele><time>2026-05-04T16:26:42Z</time></trkpt><trkpt lat="45.583629890235855" lon="10.130390077156381"><ele>152.0</ele><time>2026-05-04T16:26:45Z</time></trkpt><trkpt lat="45.583564896169754" lon="10.130426732936257"><ele>152.0</ele><time>2026-05-04T16:26:48Z</time></trkpt><trkpt lat="45.58349277804852" lon="10.130463099264722"><ele>152.0</ele><time>2026-05-04T16:26:51Z</time></trkpt><trkpt lat="45.583422108867325" lon="10.130488686615678"><ele>152.0</ele><time>2026-05-04T16:26:54Z</time></trkpt><trkpt lat="45.58335166853235" lon="10.130511611576456"><ele>152.0</ele><time>2026-05-04T16:26:57Z</time></trkpt><trkpt lat="45.58328056050481" lon="10.130522805723022"><ele>151.85714285714286</ele><time>2026-05-04T16:27:00Z</time></trkpt><trkpt lat="45.5832073134443" lon="10.130536501307736"><ele>151.71428571428572</ele><time>2026-05-04T16:27:03Z</time></trkpt><trkpt lat="45.583131929794234" lon="10.130541328052205"><ele>151.57142857142858</ele><time>2026-05-04T16:27:06Z</time></trkpt><trkpt lat="45.58305747246803" lon="10.130549817095181"><ele>151.42857142857144</ele><time>2026-05-04T16:27:09Z</time></trkpt><trkpt lat="45.58298375432584" lon="10.13055011883449"><ele>151.28571428571428</ele><time>2026-05-04T16:27:12Z</time></trkpt><trkpt lat="45.58290857931701" lon="10.13055426777849"><ele>151.14285714285717</ele><time>2026-05-04T16:27:15Z</time></trkpt><trkpt lat="45.58283603513448" lon="10.130566902288768"><ele>151.0</ele><time>2026-05-04T16:27:18Z</time></trkpt><trkpt lat="45.58276310754343" lon="10.130575182018713"><ele>151.33333333333334</ele><time>2026-05-04T16:27:21Z</time></trkpt><trkpt lat="45.58268937193285" lon="10.130580709006006"><ele>151.66666666666669</ele><time>2026-05-04T16:27:24Z</time></trkpt><trkpt lat="45.58261194720239" lon="10.130587240192334"><ele>152.0</ele><time>2026-05-04T16:27:27Z</time></trkpt><trkpt lat="45.58253441080539" lon="10.130595396899531"><ele>152.33333333333334</ele><time>2026-05-04T16:27:30Z</time></trkpt><trkpt lat="45.58245880901486" lon="10.130601967688172"><ele>152.66666666666666</ele><time>2026-05-04T16:27:33Z</time></trkpt><trkpt lat="45.582388141593015" lon="10.13060292566976"><ele>153.0</ele><time>2026-05-04T16:27:36.001Z</time></trkpt><trkpt lat="45.582311673502396" lon="10.130616178053755"><ele>153.0</ele><time>2026-05-04T16:27:39.001Z</time></trkpt><trkpt lat="45.582237024950906" lon="10.130619460637506"><ele>153.0</ele><time>2026-05-04T16:27:42.001Z</time></trkpt><trkpt lat="45.582165663034715" lon="10.130639547831919"><ele>153.0</ele><time>2026-05-04T16:27:45.001Z</time></trkpt><trkpt lat="45.5820935419835" lon="10.130668258657908"><ele>153.0</ele><time>2026-05-04T16:27:48Z</time></trkpt><trkpt lat="45.582031299094936" lon="10.130712557690279"><ele>153.0</ele><time>2026-05-04T16:27:51Z</time></trkpt><trkpt lat="45.581969854765426" lon="10.130771701041956"><ele>153.0</ele><time>2026-05-04T16:27:54Z</time></trkpt><trkpt lat="45.581908663616694" lon="10.130812579441232"><ele>153.0</ele><time>2026-05-04T16:27:57Z</time></trkpt><trkpt lat="45.58184303705943" lon="10.130851232468936"><ele>152.33333333333334</ele><time>2026-05-04T16:28:00Z</time></trkpt><trkpt lat="45.58177974793452" lon="10.13089351835032"><ele>151.66666666666666</ele><time>2026-05-04T16:28:03Z</time></trkpt><trkpt lat="45.58170959560107" lon="10.130925277125677"><ele>151.0</ele><time>2026-05-04T16:28:06Z</time></trkpt><trkpt lat="45.58164932290875" lon="10.130977645920094"><ele>150.33333333333331</ele><time>2026-05-04T16:28:09Z</time></trkpt><trkpt lat="45.58158341094598" lon="10.131042228997076"><ele>149.66666666666666</ele><time>2026-05-04T16:28:12Z</time></trkpt><trkpt lat="45.58151944440131" lon="10.13110925027451"><ele>149.0</ele><time>2026-05-04T16:28:15Z</time></trkpt><trkpt lat="45.581456556148765" lon="10.131178841352515"><ele>149.0</ele><time>2026-05-04T16:28:18Z</time></trkpt><trkpt lat="45.581394221510095" lon="10.131251580221393"><ele>149.0</ele><time>2026-05-04T16:28:21Z</time></trkpt><trkpt lat="45.581333584021614" lon="10.131315543879959"><ele>149.0</ele><time>2026-05-04T16:28:24Z</time></trkpt><trkpt lat="45.581277045830134" lon="10.131386610429773"><ele>149.0</ele><time>2026-05-04T16:28:27Z</time></trkpt><trkpt lat="45.581217397403115" lon="10.131447685603632"><ele>149.0</ele><time>2026-05-04T16:28:30Z</time></trkpt><trkpt lat="45.581157128717464" lon="10.131507572209527"><ele>149.0</ele><time>2026-05-04T16:28:33Z</time></trkpt><trkpt lat="45.58109700347835" lon="10.131561668003233"><ele>149.0</ele><time>2026-05-04T16:28:36Z</time></trkpt><trkpt lat="45.58103472052905" lon="10.131616773814919"><ele>148.33333333333331</ele><time>2026-05-04T16:28:39Z</time></trkpt><trkpt lat="45.58096958134104" lon="10.131666005921787"><ele>147.66666666666666</ele><time>2026-05-04T16:28:42Z</time></trkpt><trkpt lat="45.58090895640696" lon="10.131729270456104"><ele>147.0</ele><time>2026-05-04T16:28:45Z</time></trkpt><trkpt lat="45.58085145326144" lon="10.131797009145634"><ele>146.33333333333334</ele><time>2026-05-04T16:28:48Z</time></trkpt><trkpt lat="45.58078308775606" lon="10.131856031446988"><ele>145.66666666666669</ele><time>2026-05-04T16:28:51Z</time></trkpt><trkpt lat="45.580719801980784" lon="10.131917722349797"><ele>145.0</ele><time>2026-05-04T16:28:54Z</time></trkpt><trkpt lat="45.580654999716465" lon="10.13197367372922"><ele>145.0</ele><time>2026-05-04T16:28:57Z</time></trkpt><trkpt lat="45.580598157637525" lon="10.132039840086001"><ele>145.0</ele><time>2026-05-04T16:29:00Z</time></trkpt><trkpt lat="45.58054317644891" lon="10.132111817903162"><ele>145.0</ele><time>2026-05-04T16:29:03Z</time></trkpt><trkpt lat="45.5804729385344" lon="10.132159422480413"><ele>145.0</ele><time>2026-05-04T16:29:06Z</time></trkpt><trkpt lat="45.580406708321625" lon="10.132212876568062"><ele>145.0</ele><time>2026-05-04T16:29:09Z</time></trkpt><trkpt lat="45.580341225333484" lon="10.132261949684018"><ele>145.0</ele><time>2026-05-04T16:29:12Z</time></trkpt><trkpt lat="45.580268242653084" lon="10.132301575924231"><ele>145.33333333333334</ele><time>2026-05-04T16:29:15Z</time></trkpt><trkpt lat="45.58019804783375" lon="10.132338794112467"><ele>145.66666666666669</ele><time>2026-05-04T16:29:18Z</time></trkpt><trkpt lat="45.58013027526213" lon="10.132370840488685"><ele>146.0</ele><time>2026-05-04T16:29:21Z</time></trkpt><trkpt lat="45.58005510655098" lon="10.13240165522046"><ele>146.33333333333334</ele><time>2026-05-04T16:29:24Z</time></trkpt><trkpt lat="45.57998337974249" lon="10.132441537817519"><ele>146.66666666666666</ele><time>2026-05-04T16:29:27Z</time></trkpt><trkpt lat="45.57991524963172" lon="10.132485302349481"><ele>147.0</ele><time>2026-05-04T16:29:30Z</time></trkpt><trkpt lat="45.57984535143673" lon="10.132521828475095"><ele>147.16666666666666</ele><time>2026-05-04T16:29:33Z</time></trkpt><trkpt lat="45.57977708043973" lon="10.13256814094426"><ele>147.33333333333334</ele><time>2026-05-04T16:29:36Z</time></trkpt><trkpt lat="45.57970183245325" lon="10.132608924794257"><ele>147.5</ele><time>2026-05-04T16:29:39Z</time></trkpt><trkpt lat="45.579629345321955" lon="10.132659294943068"><ele>147.66666666666669</ele><time>2026-05-04T16:29:42Z</time></trkpt><trkpt lat="45.579556113770494" lon="10.132698865883155"><ele>147.83333333333334</ele><time>2026-05-04T16:29:45Z</time></trkpt><trkpt lat="45.57948615575431" lon="10.132726025256773"><ele>148.0</ele><time>2026-05-04T16:29:48Z</time></trkpt><trkpt lat="45.57941731696857" lon="10.13274465617708"><ele>148.14285714285714</ele><time>2026-05-04T16:29:51Z</time></trkpt><trkpt lat="45.57933450220736" lon="10.13274977281045"><ele>148.28571428571428</ele><time>2026-05-04T16:29:54.001Z</time></trkpt><trkpt lat="45.57926077940449" lon="10.132725517494293"><ele>148.42857142857142</ele><time>2026-05-04T16:29:57.001Z</time></trkpt><trkpt lat="45.57919499442872" lon="10.132719278652148"><ele>148.57142857142856</ele><time>2026-05-04T16:30:00.001Z</time></trkpt><trkpt lat="45.579118562632424" lon="10.132728284019999"><ele>148.7142857142857</ele><time>2026-05-04T16:30:03.001Z</time></trkpt><trkpt lat="45.57904226692196" lon="10.132718548488922"><ele>148.85714285714286</ele><time>2026-05-04T16:30:06.001Z</time></trkpt><trkpt lat="45.5789722020841" lon="10.132714621237401"><ele>149.0</ele><time>2026-05-04T16:30:09.001Z</time></trkpt><trkpt lat="45.57889655666746" lon="10.132723937687443"><ele>149.0</ele><time>2026-05-04T16:30:12.001Z</time></trkpt><trkpt lat="45.57884264433881" lon="10.132771296869523"><ele>149.0</ele><time>2026-05-04T16:30:14.001Z</time></trkpt><trkpt lat="45.57876760485646" lon="10.132794965159997"><ele>149.0</ele><time>2026-05-04T16:30:17.001Z</time></trkpt><trkpt lat="45.578694105584404" lon="10.132804141633079"><ele>149.0</ele><time>2026-05-04T16:30:20.001Z</time></trkpt><trkpt lat="45.57862245735589" lon="10.132805412263563"><ele>149.0</ele><time>2026-05-04T16:30:23.001Z</time></trkpt><trkpt lat="45.578549843124385" lon="10.132809849973585"><ele>149.0</ele><time>2026-05-04T16:30:26.001Z</time></trkpt><trkpt lat="45.578474972428666" lon="10.132806564726142"><ele>149.0</ele><time>2026-05-04T16:30:29.001Z</time></trkpt><trkpt lat="45.57839973285366" lon="10.132804831971356"><ele>148.85714285714286</ele><time>2026-05-04T16:30:32.001Z</time></trkpt><trkpt lat="45.57832708514496" lon="10.132812185812284"><ele>148.7142857142857</ele><time>2026-05-04T16:30:35.001Z</time></trkpt><trkpt lat="45.578253802078855" lon="10.132825018986422"><ele>148.57142857142856</ele><time>2026-05-04T16:30:38.001Z</time></trkpt><trkpt lat="45.57818392445234" lon="10.13283142259816"><ele>148.42857142857142</ele><time>2026-05-04T16:30:41.001Z</time></trkpt><trkpt lat="45.57811269990619" lon="10.13284556074571"><ele>148.28571428571428</ele><time>2026-05-04T16:30:44.001Z</time></trkpt><trkpt lat="45.57803637181718" lon="10.132847238896737"><ele>148.14285714285714</ele><time>2026-05-04T16:30:47.001Z</time></trkpt><trkpt lat="45.577961374928435" lon="10.132857438920858"><ele>148.0</ele><time>2026-05-04T16:30:50.001Z</time></trkpt><trkpt lat="45.57788712208528" lon="10.132862061908472"><ele>147.5</ele><time>2026-05-04T16:30:53.001Z</time></trkpt><trkpt lat="45.57780885072981" lon="10.132857249842464"><ele>147.0</ele><time>2026-05-04T16:30:56.001Z</time></trkpt><trkpt lat="45.57773458044761" lon="10.132849516922159"><ele>146.5</ele><time>2026-05-04T16:30:59.001Z</time></trkpt><trkpt lat="45.57766508387803" lon="10.132839747229246"><ele>146.0</ele><time>2026-05-04T16:31:02.001Z</time></trkpt><trkpt lat="45.577589503746594" lon="10.132835177704475"><ele>145.5</ele><time>2026-05-04T16:31:05.001Z</time></trkpt><trkpt lat="45.57751022525158" lon="10.132825028860493"><ele>145.0</ele><time>2026-05-04T16:31:08.001Z</time></trkpt><trkpt lat="45.5774335670728" lon="10.132817860295669"><ele>145.0</ele><time>2026-05-04T16:31:11.001Z</time></trkpt><trkpt lat="45.577356016157424" lon="10.132810078406402"><ele>145.0</ele><time>2026-05-04T16:31:14.001Z</time></trkpt><trkpt lat="45.57727840815204" lon="10.132797733435188"><ele>145.0</ele><time>2026-05-04T16:31:17.001Z</time></trkpt><trkpt lat="45.57720919237236" lon="10.132788677747184"><ele>145.0</ele><time>2026-05-04T16:31:20.001Z</time></trkpt><trkpt lat="45.57713164750615" lon="10.132770962436789"><ele>145.0</ele><time>2026-05-04T16:31:23.001Z</time></trkpt><trkpt lat="45.577061000927124" lon="10.132748646423188"><ele>145.0</ele><time>2026-05-04T16:31:26.001Z</time></trkpt><trkpt lat="45.57698480510796" lon="10.132731809376201"><ele>144.85714285714286</ele><time>2026-05-04T16:31:29.001Z</time></trkpt><trkpt lat="45.57691696354701" lon="10.132711536089065"><ele>144.71428571428572</ele><time>2026-05-04T16:31:32.001Z</time></trkpt><trkpt lat="45.57684769212716" lon="10.132688838627871"><ele>144.57142857142858</ele><time>2026-05-04T16:31:35.001Z</time></trkpt><trkpt lat="45.57678389352638" lon="10.13266032735211"><ele>144.42857142857144</ele><time>2026-05-04T16:31:38.001Z</time></trkpt><trkpt lat="45.57671566394829" lon="10.132644017594442"><ele>144.28571428571428</ele><time>2026-05-04T16:31:41.001Z</time></trkpt><trkpt lat="45.576633620971805" lon="10.132623919661508"><ele>144.14285714285717</ele><time>2026-05-04T16:31:45.001Z</time></trkpt><trkpt lat="45.576567798784616" lon="10.132615295157912"><ele>144.0</ele><time>2026-05-04T16:31:48.001Z</time></trkpt><trkpt lat="45.57649893903619" lon="10.132609439403584"><ele>144.0</ele><time>2026-05-04T16:31:51.001Z</time></trkpt><trkpt lat="45.576420651042774" lon="10.132605041328688"><ele>144.0</ele><time>2026-05-04T16:31:54.001Z</time></trkpt><trkpt lat="45.576346170519315" lon="10.132599197548865"><ele>144.0</ele><time>2026-05-04T16:31:57.001Z</time></trkpt><trkpt lat="45.576264382558065" lon="10.132592378432518"><ele>144.0</ele><time>2026-05-04T16:32:00.001Z</time></trkpt><trkpt lat="45.57618128421309" lon="10.13258488863129"><ele>144.0</ele><time>2026-05-04T16:32:03.001Z</time></trkpt><trkpt lat="45.576106859623856" lon="10.132578978082337"><ele>144.0</ele><time>2026-05-04T16:32:06.001Z</time></trkpt><trkpt lat="45.576023562543426" lon="10.13257391764271"><ele>144.16666666666666</ele><time>2026-05-04T16:32:09.001Z</time></trkpt><trkpt lat="45.57593748014356" lon="10.132565428913624"><ele>144.33333333333334</ele><time>2026-05-04T16:32:12.001Z</time></trkpt><trkpt lat="45.57585915577936" lon="10.132555174457112"><ele>144.5</ele><time>2026-05-04T16:32:15.001Z</time></trkpt><trkpt lat="45.57577947193175" lon="10.132544238092597"><ele>144.66666666666669</ele><time>2026-05-04T16:32:18.001Z</time></trkpt><trkpt lat="45.57570229229436" lon="10.132527307656416"><ele>144.83333333333334</ele><time>2026-05-04T16:32:21.002Z</time></trkpt><trkpt lat="45.57563176808521" lon="10.132504662083504"><ele>145.0</ele><time>2026-05-04T16:32:24.002Z</time></trkpt><trkpt lat="45.57556189900303" lon="10.13247815810599"><ele>145.0</ele><time>2026-05-04T16:32:27.002Z</time></trkpt><trkpt lat="45.57549331630794" lon="10.132448203458123"><ele>145.0</ele><time>2026-05-04T16:32:30.002Z</time></trkpt><trkpt lat="45.57541432482782" lon="10.132425751700682"><ele>145.0</ele><time>2026-05-04T16:32:33.002Z</time></trkpt><trkpt lat="45.575333004785925" lon="10.132406849693856"><ele>145.0</ele><time>2026-05-04T16:32:36.002Z</time></trkpt><trkpt lat="45.57526378272408" lon="10.132385549077537"><ele>145.0</ele><time>2026-05-04T16:32:39.002Z</time></trkpt><trkpt lat="45.57519075189319" lon="10.132363948424263"><ele>145.0</ele><time>2026-05-04T16:32:42.002Z</time></trkpt><trkpt lat="45.57511403139436" lon="10.13234151565962"><ele>144.83333333333334</ele><time>2026-05-04T16:32:45.002Z</time></trkpt><trkpt lat="45.57504336460333" lon="10.132316470214423"><ele>144.66666666666669</ele><time>2026-05-04T16:32:48.002Z</time></trkpt><trkpt lat="45.57496769874128" lon="10.132273360843723"><ele>144.5</ele><time>2026-05-04T16:32:51.002Z</time></trkpt><trkpt lat="45.5748956478716" lon="10.132232415973586"><ele>144.33333333333334</ele><time>2026-05-04T16:32:54.002Z</time></trkpt><trkpt lat="45.574815533281225" lon="10.132199419299777"><ele>144.16666666666666</ele><time>2026-05-04T16:32:57.002Z</time></trkpt><trkpt lat="45.574740369549886" lon="10.132161732534993"><ele>144.0</ele><time>2026-05-04T16:33:00.002Z</time></trkpt><trkpt lat="45.5746674882124" lon="10.132129610150683"><ele>144.00000000000003</ele><time>2026-05-04T16:33:03.002Z</time></trkpt><trkpt lat="45.574605885349975" lon="10.132089542191457"><ele>144.0</ele><time>2026-05-04T16:33:06.002Z</time></trkpt><trkpt lat="45.574532564396264" lon="10.132056588855608"><ele>144.0</ele><time>2026-05-04T16:33:09.002Z</time></trkpt><trkpt lat="45.574459544427" lon="10.132009242743184"><ele>144.0</ele><time>2026-05-04T16:33:12.002Z</time></trkpt><trkpt lat="45.57439681818117" lon="10.131974840646276"><ele>144.0</ele><time>2026-05-04T16:33:15.002Z</time></trkpt><trkpt lat="45.57432060989563" lon="10.131938645049315"><ele>144.00000000000003</ele><time>2026-05-04T16:33:18.002Z</time></trkpt><trkpt lat="45.5742559481998" lon="10.131899419361645"><ele>144.0</ele><time>2026-05-04T16:33:21.002Z</time></trkpt><trkpt lat="45.574183913578494" lon="10.131868910091567"><ele>143.83333333333334</ele><time>2026-05-04T16:33:24.002Z</time></trkpt><trkpt lat="45.57410829678357" lon="10.131851284481527"><ele>143.66666666666666</ele><time>2026-05-04T16:33:27.002Z</time></trkpt><trkpt lat="45.57403091735647" lon="10.131847764746466"><ele>143.5</ele><time>2026-05-04T16:33:30.002Z</time></trkpt><trkpt lat="45.57395105737973" lon="10.131851708572018"><ele>143.33333333333331</ele><time>2026-05-04T16:33:33.002Z</time></trkpt><trkpt lat="45.57387576338708" lon="10.131868895348472"><ele>143.16666666666666</ele><time>2026-05-04T16:33:36.002Z</time></trkpt><trkpt lat="45.57380466200115" lon="10.13189277002883"><ele>143.0</ele><time>2026-05-04T16:33:39.002Z</time></trkpt><trkpt lat="45.573724336155585" lon="10.131906961004383"><ele>143.0</ele><time>2026-05-04T16:33:42.002Z</time></trkpt><trkpt lat="45.573645106189545" lon="10.131936676355371"><ele>143.0</ele><time>2026-05-04T16:33:45.002Z</time></trkpt><trkpt lat="45.57356272179253" lon="10.131957846952107"><ele>143.0</ele><time>2026-05-04T16:33:48.002Z</time></trkpt><trkpt lat="45.57349004755698" lon="10.131980573677707"><ele>143.0</ele><time>2026-05-04T16:33:51.002Z</time></trkpt><trkpt lat="45.573412480221656" lon="10.132015308876035"><ele>143.0</ele><time>2026-05-04T16:33:54.002Z</time></trkpt><trkpt lat="45.57334028747887" lon="10.132023782554965"><ele>143.0</ele><time>2026-05-04T16:33:57.002Z</time></trkpt><trkpt lat="45.57326914625331" lon="10.132050795530663"><ele>143.0</ele><time>2026-05-04T16:34:00.002Z</time></trkpt><trkpt lat="45.573187211874426" lon="10.132070421568985"><ele>143.0</ele><time>2026-05-04T16:34:03.002Z</time></trkpt><trkpt lat="45.573108855670796" lon="10.132080059798241"><ele>143.0</ele><time>2026-05-04T16:34:06.002Z</time></trkpt><trkpt lat="45.57302848283859" lon="10.132092880650834"><ele>143.0</ele><time>2026-05-04T16:34:09.002Z</time></trkpt><trkpt lat="45.57295152566789" lon="10.132091180551829"><ele>143.0</ele><time>2026-05-04T16:34:12.002Z</time></trkpt><trkpt lat="45.572876649109" lon="10.132091890540885"><ele>143.0</ele><time>2026-05-04T16:34:15.002Z</time></trkpt><trkpt lat="45.57280380518484" lon="10.132093529859175"><ele>143.16666666666666</ele><time>2026-05-04T16:34:18.002Z</time></trkpt><trkpt lat="45.57270549757362" lon="10.132096855987335"><ele>143.33333333333331</ele><time>2026-05-04T16:34:22.002Z</time></trkpt><trkpt lat="45.572623821495306" lon="10.13210093464946"><ele>143.5</ele><time>2026-05-04T16:34:25.002Z</time></trkpt><trkpt lat="45.57254678014554" lon="10.132109385029526"><ele>143.66666666666666</ele><time>2026-05-04T16:34:28.002Z</time></trkpt><trkpt lat="45.572470127866865" lon="10.132111387427008"><ele>143.83333333333334</ele><time>2026-05-04T16:34:31.002Z</time></trkpt><trkpt lat="45.572398071493346" lon="10.132120364198578"><ele>144.0</ele><time>2026-05-04T16:34:34.002Z</time></trkpt><trkpt lat="45.57232379627039" lon="10.132132670589066"><ele>144.00000000000003</ele><time>2026-05-04T16:34:37.002Z</time></trkpt><trkpt lat="45.57224211199598" lon="10.132142349082827"><ele>144.0</ele><time>2026-05-04T16:34:40.002Z</time></trkpt><trkpt lat="45.57216505804668" lon="10.132161709630175"><ele>144.0</ele><time>2026-05-04T16:34:43.002Z</time></trkpt><trkpt lat="45.572088770552746" lon="10.132174368674127"><ele>144.0</ele><time>2026-05-04T16:34:46.002Z</time></trkpt><trkpt lat="45.57201334975371" lon="10.132190579566005"><ele>144.0</ele><time>2026-05-04T16:34:49.003Z</time></trkpt><trkpt lat="45.57195131520139" lon="10.13221774464721"><ele>144.00000000000003</ele><time>2026-05-04T16:34:52.003Z</time></trkpt><trkpt lat="45.57188157508114" lon="10.132225274986864"><ele>144.0</ele><time>2026-05-04T16:34:55.003Z</time></trkpt><trkpt lat="45.57180590157281" lon="10.132215381511585"><ele>144.0</ele><time>2026-05-04T16:34:58.003Z</time></trkpt><trkpt lat="45.57175911025813" lon="10.132126517295374"><ele>144.0</ele><time>2026-05-04T16:35:01.003Z</time></trkpt><trkpt lat="45.57172310237181" lon="10.132025062019242"><ele>144.0</ele><time>2026-05-04T16:35:04.003Z</time></trkpt><trkpt lat="45.571689006020165" lon="10.131928614556774"><ele>144.0</ele><time>2026-05-04T16:35:07.003Z</time></trkpt><trkpt lat="45.57166348269227" lon="10.13182196836101"><ele>144.0</ele><time>2026-05-04T16:35:10.003Z</time></trkpt><trkpt lat="45.57163576550605" lon="10.131715262147917"><ele>144.0</ele><time>2026-05-04T16:35:13.003Z</time></trkpt><trkpt lat="45.57160885963002" lon="10.131611415800057"><ele>143.83333333333334</ele><time>2026-05-04T16:35:16.003Z</time></trkpt><trkpt lat="45.571582895472574" lon="10.131508683138446"><ele>143.66666666666666</ele><time>2026-05-04T16:35:19.003Z</time></trkpt><trkpt lat="45.571560112896286" lon="10.131410778017944"><ele>143.5</ele><time>2026-05-04T16:35:22.003Z</time></trkpt><trkpt lat="45.57153316044139" lon="10.131307504033847"><ele>143.33333333333331</ele><time>2026-05-04T16:35:25.003Z</time></trkpt><trkpt lat="45.57150926246844" lon="10.13120128084711"><ele>143.16666666666666</ele><time>2026-05-04T16:35:28.003Z</time></trkpt><trkpt lat="45.571485078007804" lon="10.131100600433355"><ele>143.0</ele><time>2026-05-04T16:35:31.003Z</time></trkpt><trkpt lat="45.571463431580796" lon="10.130997807929226"><ele>143.0</ele><time>2026-05-04T16:35:34.003Z</time></trkpt><trkpt lat="45.57144250632522" lon="10.130882964568542"><ele>143.0</ele><time>2026-05-04T16:35:37.003Z</time></trkpt><trkpt lat="45.57141736524246" lon="10.130776639036908"><ele>143.0</ele><time>2026-05-04T16:35:40.003Z</time></trkpt><trkpt lat="45.57139128294035" lon="10.130666135133444"><ele>143.0</ele><time>2026-05-04T16:35:43.003Z</time></trkpt><trkpt lat="45.57136855109365" lon="10.130554211105595"><ele>143.0</ele><time>2026-05-04T16:35:46.003Z</time></trkpt><trkpt lat="45.57133821315354" lon="10.130454986826582"><ele>143.0</ele><time>2026-05-04T16:35:49.003Z</time></trkpt><trkpt lat="45.57131241941831" lon="10.130352133373057"><ele>143.14285714285714</ele><time>2026-05-04T16:35:52.003Z</time></trkpt><trkpt lat="45.57129044619438" lon="10.130256552300757"><ele>143.28571428571428</ele><time>2026-05-04T16:35:55.003Z</time></trkpt><trkpt lat="45.57128774104194" lon="10.130142444262907"><ele>143.42857142857144</ele><time>2026-05-04T16:35:58.003Z</time></trkpt><trkpt lat="45.57127537189392" lon="10.130044610034886"><ele>143.57142857142856</ele><time>2026-05-04T16:36:01.003Z</time></trkpt><trkpt lat="45.57134148870795" lon="10.129987228311084"><ele>143.71428571428572</ele><time>2026-05-04T16:36:04.003Z</time></trkpt><trkpt lat="45.57140501561083" lon="10.12994467710261"><ele>143.85714285714286</ele><time>2026-05-04T16:36:07.003Z</time></trkpt><trkpt lat="45.57147309028324" lon="10.12991721272935"><ele>144.0</ele><time>2026-05-04T16:36:10.003Z</time></trkpt><trkpt lat="45.57154476470479" lon="10.12989929098215"><ele>144.00000000000003</ele><time>2026-05-04T16:36:13.003Z</time></trkpt><trkpt lat="45.571615858800364" lon="10.129872554483356"><ele>144.0</ele><time>2026-05-04T16:36:16.003Z</time></trkpt><trkpt lat="45.57168839189653" lon="10.12986739801627"><ele>144.0</ele><time>2026-05-04T16:36:19.003Z</time></trkpt><trkpt lat="45.57176481688452" lon="10.129853362235192"><ele>144.0</ele><time>2026-05-04T16:36:22.003Z</time></trkpt><trkpt lat="45.57184120865645" lon="10.129838836465561"><ele>144.0</ele><time>2026-05-04T16:36:25.003Z</time></trkpt><trkpt lat="45.57190853019962" lon="10.129827299571943"><ele>144.00000000000003</ele><time>2026-05-04T16:36:28.003Z</time></trkpt><trkpt lat="45.57197914362695" lon="10.129817577577919"><ele>144.0</ele><time>2026-05-04T16:36:31.003Z</time></trkpt><trkpt lat="45.572044878718984" lon="10.129793266565741"><ele>144.2857142857143</ele><time>2026-05-04T16:36:34.003Z</time></trkpt><trkpt lat="45.57211260264599" lon="10.129771021739264"><ele>144.57142857142858</ele><time>2026-05-04T16:36:37.003Z</time></trkpt><trkpt lat="45.572184068686035" lon="10.12975226262523"><ele>144.85714285714286</ele><time>2026-05-04T16:36:40.003Z</time></trkpt><trkpt lat="45.57225443402599" lon="10.129724762927857"><ele>145.14285714285717</ele><time>2026-05-04T16:36:43.003Z</time></trkpt><trkpt lat="45.57233246385065" lon="10.129701106121287"><ele>145.42857142857144</ele><time>2026-05-04T16:36:46.003Z</time></trkpt><trkpt lat="45.57239511047931" lon="10.12967847007607"><ele>145.71428571428572</ele><time>2026-05-04T16:36:49.003Z</time></trkpt><trkpt lat="45.57246830714839" lon="10.129645298751194"><ele>146.0</ele><time>2026-05-04T16:36:52.003Z</time></trkpt><trkpt lat="45.57255548501528" lon="10.129638243294481"><ele>146.0</ele><time>2026-05-04T16:36:55.003Z</time></trkpt><trkpt lat="45.572631433417556" lon="10.129633089846244"><ele>146.0</ele><time>2026-05-04T16:36:58.003Z</time></trkpt><trkpt lat="45.57270499371224" lon="10.12961593500591"><ele>146.0</ele><time>2026-05-04T16:37:01.003Z</time></trkpt><trkpt lat="45.572776214158814" lon="10.129608896681217"><ele>146.0</ele><time>2026-05-04T16:37:04.003Z</time></trkpt><trkpt lat="45.57284572466763" lon="10.129597450767752"><ele>146.0</ele><time>2026-05-04T16:37:07.003Z</time></trkpt><trkpt lat="45.57291827622553" lon="10.129583792382094"><ele>146.0</ele><time>2026-05-04T16:37:10.003Z</time></trkpt><trkpt lat="45.572997089857694" lon="10.12956956710348"><ele>146.0</ele><time>2026-05-04T16:37:13.003Z</time></trkpt><trkpt lat="45.57307524788637" lon="10.129553657863994"><ele>145.85714285714286</ele><time>2026-05-04T16:37:16.004Z</time></trkpt><trkpt lat="45.57314526875804" lon="10.129547598285976"><ele>145.71428571428572</ele><time>2026-05-04T16:37:19.004Z</time></trkpt><trkpt lat="45.57322059381732" lon="10.129534483005258"><ele>145.57142857142858</ele><time>2026-05-04T16:37:22.004Z</time></trkpt><trkpt lat="45.5732968109171" lon="10.12952706870039"><ele>145.42857142857144</ele><time>2026-05-04T16:37:25.004Z</time></trkpt><trkpt lat="45.573368135517796" lon="10.129499762645823"><ele>145.2857142857143</ele><time>2026-05-04T16:37:28.004Z</time></trkpt><trkpt lat="45.573441356834216" lon="10.129483228374964"><ele>145.14285714285714</ele><time>2026-05-04T16:37:31.004Z</time></trkpt><trkpt lat="45.5735149115646" lon="10.129469304559207"><ele>145.0</ele><time>2026-05-04T16:37:34.004Z</time></trkpt><trkpt lat="45.57358814951877" lon="10.129465119604202"><ele>145.0</ele><time>2026-05-04T16:37:37.004Z</time></trkpt><trkpt lat="45.573644086092294" lon="10.12951068540872"><ele>145.0</ele><time>2026-05-04T16:37:40.004Z</time></trkpt><trkpt lat="45.57371067042771" lon="10.129563552122228"><ele>145.0</ele><time>2026-05-04T16:37:43.004Z</time></trkpt><trkpt lat="45.573798109187244" lon="10.12956498769834"><ele>145.0</ele><time>2026-05-04T16:37:46.004Z</time></trkpt><trkpt lat="45.573876832837875" lon="10.129539130035857"><ele>145.0</ele><time>2026-05-04T16:37:49.004Z</time></trkpt><trkpt lat="45.57393468669893" lon="10.129465150981341"><ele>145.0</ele><time>2026-05-04T16:37:52.004Z</time></trkpt><trkpt lat="45.57393750491162" lon="10.129349105718717"><ele>145.0</ele><time>2026-05-04T16:37:55.004Z</time></trkpt><trkpt lat="45.57392989366087" lon="10.12924578995673"><ele>145.0</ele><time>2026-05-04T16:37:58.004Z</time></trkpt><trkpt lat="45.573911157947165" lon="10.129140365704771"><ele>145.0</ele><time>2026-05-04T16:38:01.004Z</time></trkpt><trkpt lat="45.57389227297399" lon="10.129038003082696"><ele>145.0</ele><time>2026-05-04T16:38:05.004Z</time></trkpt><trkpt lat="45.57388516198217" lon="10.128941835625112"><ele>145.0</ele><time>2026-05-04T16:38:08.004Z</time></trkpt><trkpt lat="45.573877702843006" lon="10.128844975910827"><ele>145.0</ele><time>2026-05-04T16:38:11.004Z</time></trkpt><trkpt lat="45.573861361132565" lon="10.128732527735261"><ele>145.0</ele><time>2026-05-04T16:38:14.004Z</time></trkpt><trkpt lat="45.57384742928834" lon="10.128622770864062"><ele>145.0</ele><time>2026-05-04T16:38:17.004Z</time></trkpt><trkpt lat="45.57382639027879" lon="10.128514019886936"><ele>145.0</ele><time>2026-05-04T16:38:20.004Z</time></trkpt><trkpt lat="45.573821410985055" lon="10.12840895415204"><ele>145.0</ele><time>2026-05-04T16:38:23.004Z</time></trkpt><trkpt lat="45.57380421353776" lon="10.128301887158432"><ele>145.0</ele><time>2026-05-04T16:38:26.004Z</time></trkpt><trkpt lat="45.57379306880004" lon="10.128195597899422"><ele>145.0</ele><time>2026-05-04T16:38:29.004Z</time></trkpt><trkpt lat="45.573773780781124" lon="10.128076553187045"><ele>145.0</ele><time>2026-05-04T16:38:32.004Z</time></trkpt><trkpt lat="45.5737606951725" lon="10.127977494217559"><ele>145.0</ele><time>2026-05-04T16:38:35.004Z</time></trkpt><trkpt lat="45.57372914797893" lon="10.12788260008442"><ele>145.0</ele><time>2026-05-04T16:38:38.004Z</time></trkpt><trkpt lat="45.573731783871615" lon="10.127779893582538"><ele>145.0</ele><time>2026-05-04T16:38:41.004Z</time></trkpt><trkpt lat="45.57372348588322" lon="10.127672973846712"><ele>145.0</ele><time>2026-05-04T16:38:44.004Z</time></trkpt><trkpt lat="45.57371885659867" lon="10.127562480728558"><ele>145.0</ele><time>2026-05-04T16:38:47.004Z</time></trkpt><trkpt lat="45.573716517989126" lon="10.127455953871875"><ele>145.0</ele><time>2026-05-04T16:38:50.004Z</time></trkpt><trkpt lat="45.57369682916726" lon="10.1273501174895"><ele>145.0</ele><time>2026-05-04T16:38:53.004Z</time></trkpt><trkpt lat="45.57368863129053" lon="10.127239767180425"><ele>145.0</ele><time>2026-05-04T16:38:56.004Z</time></trkpt><trkpt lat="45.57367462198668" lon="10.127137075068175"><ele>145.0</ele><time>2026-05-04T16:38:59.004Z</time></trkpt><trkpt lat="45.573660762110876" lon="10.12702255313088"><ele>145.0</ele><time>2026-05-04T16:39:02.004Z</time></trkpt><trkpt lat="45.57364980917838" lon="10.126909599724529"><ele>145.0</ele><time>2026-05-04T16:39:05.004Z</time></trkpt><trkpt lat="45.573642074655176" lon="10.126804719696436"><ele>145.0</ele><time>2026-05-04T16:39:08.004Z</time></trkpt><trkpt lat="45.57362500869997" lon="10.126705688772919"><ele>145.0</ele><time>2026-05-04T16:39:11.004Z</time></trkpt><trkpt lat="45.57361418656589" lon="10.12661084274386"><ele>145.0</ele><time>2026-05-04T16:39:14.004Z</time></trkpt><trkpt lat="45.573599331601606" lon="10.126518733761413"><ele>145.0</ele><time>2026-05-04T16:39:17.004Z</time></trkpt><trkpt lat="45.573585308043846" lon="10.126424703551587"><ele>145.0</ele><time>2026-05-04T16:39:20.004Z</time></trkpt><trkpt lat="45.573583299411126" lon="10.126312907833254"><ele>145.0</ele><time>2026-05-04T16:39:23.004Z</time></trkpt><trkpt lat="45.57356932411308" lon="10.126217311970391"><ele>145.0</ele><time>2026-05-04T16:39:26.004Z</time></trkpt><trkpt lat="45.5735609078209" lon="10.126115003327248"><ele>145.0</ele><time>2026-05-04T16:39:29.004Z</time></trkpt><trkpt lat="45.57355696971039" lon="10.126011384492731"><ele>145.0</ele><time>2026-05-04T16:39:32.004Z</time></trkpt><trkpt lat="45.5735479764754" lon="10.125911062993936"><ele>145.0</ele><time>2026-05-04T16:39:35.004Z</time></trkpt><trkpt lat="45.57353940016295" lon="10.12580509293739"><ele>145.0</ele><time>2026-05-04T16:39:38.004Z</time></trkpt><trkpt lat="45.57352692553989" lon="10.125699352387242"><ele>145.0</ele><time>2026-05-04T16:39:41.005Z</time></trkpt><trkpt lat="45.57352590932653" lon="10.125593958831274"><ele>145.0</ele><time>2026-05-04T16:39:44.005Z</time></trkpt><trkpt lat="45.57356894843987" lon="10.125496821528502"><ele>145.0</ele><time>2026-05-04T16:39:48.005Z</time></trkpt><trkpt lat="45.573606485096995" lon="10.12540920185738"><ele>145.0</ele><time>2026-05-04T16:39:51.005Z</time></trkpt><trkpt lat="45.57365885036005" lon="10.125340874343708"><ele>145.16666666666669</ele><time>2026-05-04T16:39:54.005Z</time></trkpt><trkpt lat="45.573703785800625" lon="10.125261136774903"><ele>145.33333333333334</ele><time>2026-05-04T16:39:57.005Z</time></trkpt><trkpt lat="45.573748217239086" lon="10.125168176182779"><ele>145.5</ele><time>2026-05-04T16:40:00.005Z</time></trkpt><trkpt lat="45.57380151335642" lon="10.125082924695683"><ele>145.66666666666666</ele><time>2026-05-04T16:40:03.005Z</time></trkpt><trkpt lat="45.5738713192622" lon="10.125027903393544"><ele>145.83333333333331</ele><time>2026-05-04T16:40:06.005Z</time></trkpt><trkpt lat="45.57394057397613" lon="10.12500635274783"><ele>146.0</ele><time>2026-05-04T16:40:09.005Z</time></trkpt><trkpt lat="45.57401323855951" lon="10.125002023226989"><ele>146.0</ele><time>2026-05-04T16:40:12.005Z</time></trkpt><trkpt lat="45.574091174610466" lon="10.124980018040945"><ele>146.0</ele><time>2026-05-04T16:40:15.005Z</time></trkpt><trkpt lat="45.57415907028674" lon="10.124971484181849"><ele>146.0</ele><time>2026-05-04T16:40:18.005Z</time></trkpt><trkpt lat="45.57422959821584" lon="10.124967755439476"><ele>146.0</ele><time>2026-05-04T16:40:21.005Z</time></trkpt><trkpt lat="45.57429896002731" lon="10.124968228741087"><ele>146.0</ele><time>2026-05-04T16:40:24.005Z</time></trkpt><trkpt lat="45.57438054630303" lon="10.12495819205853"><ele>146.0</ele><time>2026-05-04T16:40:27.005Z</time></trkpt><trkpt lat="45.57445703245561" lon="10.124952068845086"><ele>146.0</ele><time>2026-05-04T16:40:30.005Z</time></trkpt><trkpt lat="45.57453601040989" lon="10.12493666319905"><ele>146.28571428571428</ele><time>2026-05-04T16:40:33.005Z</time></trkpt><trkpt lat="45.57460403387402" lon="10.124928324364294"><ele>146.57142857142858</ele><time>2026-05-04T16:40:36.005Z</time></trkpt><trkpt lat="45.574677798054495" lon="10.124916767340707"><ele>146.85714285714286</ele><time>2026-05-04T16:40:39.005Z</time></trkpt><trkpt lat="45.57475090684802" lon="10.124900320793207"><ele>147.14285714285714</ele><time>2026-05-04T16:40:42.005Z</time></trkpt><trkpt lat="45.5748268494936" lon="10.124897737521502"><ele>147.42857142857142</ele><time>2026-05-04T16:40:45.005Z</time></trkpt><trkpt lat="45.57490180003652" lon="10.12488701671912"><ele>147.71428571428572</ele><time>2026-05-04T16:40:48.005Z</time></trkpt><trkpt lat="45.57497275839471" lon="10.124865592341369"><ele>148.0</ele><time>2026-05-04T16:40:51.005Z</time></trkpt><trkpt lat="45.57504397222053" lon="10.124830443474579"><ele>148.0</ele><time>2026-05-04T16:40:54.005Z</time></trkpt><trkpt lat="45.575112350733285" lon="10.124785952989962"><ele>148.0</ele><time>2026-05-04T16:40:57.005Z</time></trkpt><trkpt lat="45.575178411213315" lon="10.124738222219568"><ele>148.0</ele><time>2026-05-04T16:41:00.005Z</time></trkpt><trkpt lat="45.5752531590055" lon="10.12468202491338"><ele>148.0</ele><time>2026-05-04T16:41:03.005Z</time></trkpt><trkpt lat="45.575316011780366" lon="10.124622675520346"><ele>148.0</ele><time>2026-05-04T16:41:06.005Z</time></trkpt><trkpt lat="45.57538698450012" lon="10.124548953981007"><ele>148.0</ele><time>2026-05-04T16:41:09.005Z</time></trkpt><trkpt lat="45.57545027990112" lon="10.124500115635332"><ele>148.0</ele><time>2026-05-04T16:41:12.005Z</time></trkpt><trkpt lat="45.57552026174462" lon="10.124467835411616"><ele>148.0</ele><time>2026-05-04T16:41:15.005Z</time></trkpt><trkpt lat="45.57558454598243" lon="10.124443418259187"><ele>148.0</ele><time>2026-05-04T16:41:18.005Z</time></trkpt><trkpt lat="45.575654726330626" lon="10.124435000426383"><ele>148.0</ele><time>2026-05-04T16:41:21.005Z</time></trkpt><trkpt lat="45.57572427275447" lon="10.12443861650185"><ele>148.0</ele><time>2026-05-04T16:41:24.005Z</time></trkpt><trkpt lat="45.57579034588634" lon="10.124428474975703"><ele>148.0</ele><time>2026-05-04T16:41:27.005Z</time></trkpt><trkpt lat="45.575866149324284" lon="10.124416416966307"><ele>148.0</ele><time>2026-05-04T16:41:30.005Z</time></trkpt><trkpt lat="45.57593702254622" lon="10.124405256402635"><ele>148.0</ele><time>2026-05-04T16:41:33.005Z</time></trkpt><trkpt lat="45.57600309447276" lon="10.124384907517708"><ele>148.0</ele><time>2026-05-04T16:41:36.005Z</time></trkpt><trkpt lat="45.5760818575352" lon="10.124373851415704"><ele>148.0</ele><time>2026-05-04T16:41:39.005Z</time></trkpt><trkpt lat="45.57615571657629" lon="10.124388088728576"><ele>148.0</ele><time>2026-05-04T16:41:42.005Z</time></trkpt><trkpt lat="45.576238166363325" lon="10.12439518925316"><ele>148.0</ele><time>2026-05-04T16:41:45.005Z</time></trkpt><trkpt lat="45.57632176655378" lon="10.12437923309501"><ele>148.0</ele><time>2026-05-04T16:41:48.005Z</time></trkpt><trkpt lat="45.57639555016805" lon="10.124363107097045"><ele>148.14285714285714</ele><time>2026-05-04T16:41:51.005Z</time></trkpt><trkpt lat="45.5764662036588" lon="10.124358492747902"><ele>148.28571428571428</ele><time>2026-05-04T16:41:54.005Z</time></trkpt><trkpt lat="45.57653591860618" lon="10.124347129535254"><ele>148.42857142857142</ele><time>2026-05-04T16:41:57.005Z</time></trkpt><trkpt lat="45.576606885856265" lon="10.124322662848625"><ele>148.57142857142856</ele><time>2026-05-04T16:42:00.005Z</time></trkpt><trkpt lat="45.57667980751684" lon="10.124302252420163"><ele>148.7142857142857</ele><time>2026-05-04T16:42:03.005Z</time></trkpt><trkpt lat="45.57674415178427" lon="10.124296339695348"><ele>148.85714285714286</ele><time>2026-05-04T16:42:06.005Z</time></trkpt><trkpt lat="45.5768318935534" lon="10.124270032779402"><ele>149.0</ele><time>2026-05-04T16:42:10.006Z</time></trkpt><trkpt lat="45.576906665268744" lon="10.124252561221711"><ele>149.0</ele><time>2026-05-04T16:42:13.006Z</time></trkpt><trkpt lat="45.57697980550498" lon="10.124214262666156"><ele>149.0</ele><time>2026-05-04T16:42:16.006Z</time></trkpt><trkpt lat="45.57703467236406" lon="10.124169629311442"><ele>149.0</ele><time>2026-05-04T16:42:18.006Z</time></trkpt><trkpt lat="45.577118376411775" lon="10.124120924160483"><ele>149.0</ele><time>2026-05-04T16:42:21.006Z</time></trkpt><trkpt lat="45.57720315965283" lon="10.124082048791438"><ele>149.0</ele><time>2026-05-04T16:42:24.006Z</time></trkpt><trkpt lat="45.57727768125404" lon="10.124047851560217"><ele>149.0</ele><time>2026-05-04T16:42:27.006Z</time></trkpt><trkpt lat="45.57735748912041" lon="10.12400639992854"><ele>149.33333333333331</ele><time>2026-05-04T16:42:30.006Z</time></trkpt><trkpt lat="45.57744029660678" lon="10.123985257321799"><ele>149.66666666666666</ele><time>2026-05-04T16:42:33.006Z</time></trkpt><trkpt lat="45.57751926423637" lon="10.123961124715773"><ele>150.0</ele><time>2026-05-04T16:42:36.006Z</time></trkpt><trkpt lat="45.57759633963253" lon="10.123935181769928"><ele>150.33333333333334</ele><time>2026-05-04T16:42:39.006Z</time></trkpt><trkpt lat="45.57766867884885" lon="10.123929774427989"><ele>150.66666666666669</ele><time>2026-05-04T16:42:42.006Z</time></trkpt><trkpt lat="45.577741799210806" lon="10.1239170202511"><ele>151.0</ele><time>2026-05-04T16:42:45.006Z</time></trkpt><trkpt lat="45.57782287197843" lon="10.123900935049186"><ele>151.0</ele><time>2026-05-04T16:42:48.006Z</time></trkpt><trkpt lat="45.57790247802588" lon="10.12388476030731"><ele>151.0</ele><time>2026-05-04T16:42:51.006Z</time></trkpt><trkpt lat="45.577976716758215" lon="10.123881622112094"><ele>151.0</ele><time>2026-05-04T16:42:54.006Z</time></trkpt><trkpt lat="45.57805170315404" lon="10.123867801277346"><ele>151.0</ele><time>2026-05-04T16:42:57.006Z</time></trkpt><trkpt lat="45.57812249160594" lon="10.123859328054253"><ele>151.0</ele><time>2026-05-04T16:43:00.006Z</time></trkpt><trkpt lat="45.57820189563133" lon="10.123855620998627"><ele>151.0</ele><time>2026-05-04T16:43:03.006Z</time></trkpt><trkpt lat="45.57828182394411" lon="10.123851592156269"><ele>151.0</ele><time>2026-05-04T16:43:06.006Z</time></trkpt><trkpt lat="45.57835494796675" lon="10.123849984897042"><ele>151.0</ele><time>2026-05-04T16:43:09.006Z</time></trkpt><trkpt lat="45.578428095460225" lon="10.1238394604687"><ele>151.0</ele><time>2026-05-04T16:43:12.006Z</time></trkpt><trkpt lat="45.578501034730344" lon="10.123832175383393"><ele>151.0</ele><time>2026-05-04T16:43:15.006Z</time></trkpt><trkpt lat="45.57858012357464" lon="10.123835482028097"><ele>151.0</ele><time>2026-05-04T16:43:18.006Z</time></trkpt><trkpt lat="45.578657608053376" lon="10.123822014878458"><ele>151.0</ele><time>2026-05-04T16:43:21.006Z</time></trkpt><trkpt lat="45.57873081304251" lon="10.123808561961878"><ele>151.16666666666669</ele><time>2026-05-04T16:43:24.006Z</time></trkpt><trkpt lat="45.57879496634843" lon="10.123800242337618"><ele>151.33333333333334</ele><time>2026-05-04T16:43:27.006Z</time></trkpt><trkpt lat="45.578874342617645" lon="10.123797320381358"><ele>151.5</ele><time>2026-05-04T16:43:30.006Z</time></trkpt><trkpt lat="45.57895511023794" lon="10.123796244590896"><ele>151.66666666666666</ele><time>2026-05-04T16:43:33.006Z</time></trkpt><trkpt lat="45.57903301417033" lon="10.12379588311515"><ele>151.83333333333331</ele><time>2026-05-04T16:43:36.006Z</time></trkpt><trkpt lat="45.57911396130035" lon="10.123795294016867"><ele>152.0</ele><time>2026-05-04T16:43:39.006Z</time></trkpt><trkpt lat="45.57918528293334" lon="10.123795890480633"><ele>152.0</ele><time>2026-05-04T16:43:42.006Z</time></trkpt><trkpt lat="45.57926288546165" lon="10.123801283126022"><ele>152.0</ele><time>2026-05-04T16:43:45.006Z</time></trkpt><trkpt lat="45.57933212467119" lon="10.123807119166523"><ele>152.0</ele><time>2026-05-04T16:43:48.006Z</time></trkpt><trkpt lat="45.579412082515624" lon="10.123802057707566"><ele>152.0</ele><time>2026-05-04T16:43:51.006Z</time></trkpt><trkpt lat="45.57949303820982" lon="10.123809353466187"><ele>152.0</ele><time>2026-05-04T16:43:54.006Z</time></trkpt><trkpt lat="45.57955604444333" lon="10.123815263297269"><ele>152.0</ele><time>2026-05-04T16:43:57.006Z</time></trkpt><trkpt lat="45.57962926819657" lon="10.123803238977041"><ele>152.0</ele><time>2026-05-04T16:44:00.006Z</time></trkpt><trkpt lat="45.579703492571475" lon="10.123812929011184"><ele>152.16666666666666</ele><time>2026-05-04T16:44:03.006Z</time></trkpt><trkpt lat="45.57978947399476" lon="10.12381457013581"><ele>152.33333333333331</ele><time>2026-05-04T16:44:06.006Z</time></trkpt><trkpt lat="45.579863463414014" lon="10.12381715655907"><ele>152.5</ele><time>2026-05-04T16:44:09.006Z</time></trkpt><trkpt lat="45.57993990119803" lon="10.123821139075972"><ele>152.66666666666666</ele><time>2026-05-04T16:44:12.006Z</time></trkpt><trkpt lat="45.58001783165303" lon="10.123824201816124"><ele>152.83333333333334</ele><time>2026-05-04T16:44:15.006Z</time></trkpt><trkpt lat="45.58009667732583" lon="10.12383119843032"><ele>153.0</ele><time>2026-05-04T16:44:18.006Z</time></trkpt><trkpt lat="45.58017453085904" lon="10.123839733952162"><ele>153.0</ele><time>2026-05-04T16:44:21.006Z</time></trkpt><trkpt lat="45.580246544029144" lon="10.123854467170544"><ele>153.0</ele><time>2026-05-04T16:44:24.006Z</time></trkpt><trkpt lat="45.580317243252004" lon="10.123861481487157"><ele>153.0</ele><time>2026-05-04T16:44:27.006Z</time></trkpt><trkpt lat="45.58039668970868" lon="10.1238598919941"><ele>153.0</ele><time>2026-05-04T16:44:30.006Z</time></trkpt><trkpt lat="45.58046774252196" lon="10.123858555665297"><ele>153.0</ele><time>2026-05-04T16:44:33.006Z</time></trkpt><trkpt lat="45.58054271667838" lon="10.123858003876952"><ele>153.0</ele><time>2026-05-04T16:44:36.007Z</time></trkpt><trkpt lat="45.58061841580436" lon="10.123853099236467"><ele>153.0</ele><time>2026-05-04T16:44:39.007Z</time></trkpt><trkpt lat="45.58068915434651" lon="10.123839166827702"><ele>153.0</ele><time>2026-05-04T16:44:42.007Z</time></trkpt><trkpt lat="45.580764625305505" lon="10.12383034613831"><ele>153.0</ele><time>2026-05-04T16:44:45.007Z</time></trkpt><trkpt lat="45.58083361325688" lon="10.123818613022078"><ele>153.0</ele><time>2026-05-04T16:44:48.007Z</time></trkpt><trkpt lat="45.58090944355158" lon="10.123816857023824"><ele>153.0</ele><time>2026-05-04T16:44:51.007Z</time></trkpt><trkpt lat="45.580984337500986" lon="10.123812525611623"><ele>153.0</ele><time>2026-05-04T16:44:54.007Z</time></trkpt><trkpt lat="45.58105350061913" lon="10.123811610513357"><ele>153.0</ele><time>2026-05-04T16:44:57.007Z</time></trkpt><trkpt lat="45.58112948663631" lon="10.123809465751263"><ele>153.0</ele><time>2026-05-04T16:45:00.007Z</time></trkpt><trkpt lat="45.581197828969515" lon="10.123811906764573"><ele>153.0</ele><time>2026-05-04T16:45:03.007Z</time></trkpt><trkpt lat="45.58128431613087" lon="10.123800788345624"><ele>153.0</ele><time>2026-05-04T16:45:06.007Z</time></trkpt><trkpt lat="45.581365659778264" lon="10.1237984420861"><ele>153.0</ele><time>2026-05-04T16:45:09.007Z</time></trkpt><trkpt lat="45.58144505261312" lon="10.123805371302558"><ele>153.0</ele><time>2026-05-04T16:45:12.007Z</time></trkpt><trkpt lat="45.58153042729421" lon="10.123805825260161"><ele>153.0</ele><time>2026-05-04T16:45:15.007Z</time></trkpt><trkpt lat="45.58160526639394" lon="10.123806952520772"><ele>153.0</ele><time>2026-05-04T16:45:18.007Z</time></trkpt><trkpt lat="45.5816710778452" lon="10.123821236859236"><ele>153.0</ele><time>2026-05-04T16:45:21.007Z</time></trkpt><trkpt lat="45.58174969664071" lon="10.123829474341367"><ele>153.0</ele><time>2026-05-04T16:45:24.007Z</time></trkpt><trkpt lat="45.581821969677414" lon="10.123827993679752"><ele>153.0</ele><time>2026-05-04T16:45:27.007Z</time></trkpt><trkpt lat="45.58190015766698" lon="10.12380812293082"><ele>153.0</ele><time>2026-05-04T16:45:30.007Z</time></trkpt><trkpt lat="45.58196093319982" lon="10.123763577731138"><ele>153.0</ele><time>2026-05-04T16:45:33.007Z</time></trkpt><trkpt lat="45.58200994858256" lon="10.123698336959984"><ele>153.0</ele><time>2026-05-04T16:45:36.007Z</time></trkpt><trkpt lat="45.582037392142716" lon="10.123612283130107"><ele>153.0</ele><time>2026-05-04T16:45:39.007Z</time></trkpt><trkpt lat="45.5820610028213" lon="10.123517300322822"><ele>153.16666666666666</ele><time>2026-05-04T16:45:42.007Z</time></trkpt><trkpt lat="45.582061254998315" lon="10.123417128941092"><ele>153.33333333333334</ele><time>2026-05-04T16:45:45.007Z</time></trkpt><trkpt lat="45.58208260694428" lon="10.123300149225576"><ele>153.5</ele><time>2026-05-04T16:45:49.007Z</time></trkpt><trkpt lat="45.58209675843218" lon="10.12318247975363"><ele>153.66666666666669</ele><time>2026-05-04T16:45:53.007Z</time></trkpt><trkpt lat="45.58209833883575" lon="10.123078932873273"><ele>153.83333333333334</ele><time>2026-05-04T16:45:56.007Z</time></trkpt><trkpt lat="45.58211308158936" lon="10.122973679579928"><ele>154.0</ele><time>2026-05-04T16:46:00.007Z</time></trkpt><trkpt lat="45.58211911884569" lon="10.122875344751515"><ele>154.16666666666669</ele><time>2026-05-04T16:46:03.007Z</time></trkpt><trkpt lat="45.58212542184352" lon="10.122776508825776"><ele>154.33333333333334</ele><time>2026-05-04T16:46:06.007Z</time></trkpt><trkpt lat="45.582124368508836" lon="10.122662073597027"><ele>154.5</ele><time>2026-05-04T16:46:09.007Z</time></trkpt><trkpt lat="45.58212542173306" lon="10.1225428021061"><ele>154.66666666666666</ele><time>2026-05-04T16:46:12.007Z</time></trkpt><trkpt lat="45.58212718305929" lon="10.122428111162092"><ele>154.83333333333331</ele><time>2026-05-04T16:46:15.007Z</time></trkpt><trkpt lat="45.58213235102353" lon="10.122316511890515"><ele>155.0</ele><time>2026-05-04T16:46:18.007Z</time></trkpt><trkpt lat="45.58213515220411" lon="10.122213575121407"><ele>155.14285714285714</ele><time>2026-05-04T16:46:21.007Z</time></trkpt><trkpt lat="45.58214281006572" lon="10.122116409845411"><ele>155.28571428571428</ele><time>2026-05-04T16:46:24.007Z</time></trkpt><trkpt lat="45.58214541065203" lon="10.122014424178621"><ele>155.42857142857144</ele><time>2026-05-04T16:46:27.007Z</time></trkpt><trkpt lat="45.58214941617811" lon="10.12192144561884"><ele>155.57142857142856</ele><time>2026-05-04T16:46:30.007Z</time></trkpt><trkpt lat="45.58215327044104" lon="10.121815612789632"><ele>155.7142857142857</ele><time>2026-05-04T16:46:33.007Z</time></trkpt><trkpt lat="45.582162257215515" lon="10.121701782038187"><ele>155.85714285714286</ele><time>2026-05-04T16:46:36.007Z</time></trkpt><trkpt lat="45.582162365736075" lon="10.121599044168681"><ele>156.0</ele><time>2026-05-04T16:46:39.007Z</time></trkpt><trkpt lat="45.5821627217689" lon="10.12148244221381"><ele>155.66666666666666</ele><time>2026-05-04T16:46:42.007Z</time></trkpt><trkpt lat="45.582161119847186" lon="10.121366560514106"><ele>155.33333333333334</ele><time>2026-05-04T16:46:45.007Z</time></trkpt><trkpt lat="45.5821642253234" lon="10.121259816549507"><ele>155.0</ele><time>2026-05-04T16:46:48.007Z</time></trkpt><trkpt lat="45.582157168703155" lon="10.121156767021295"><ele>154.66666666666669</ele><time>2026-05-04T16:46:51.007Z</time></trkpt><trkpt lat="45.5821489356429" lon="10.121042119352134"><ele>154.33333333333334</ele><time>2026-05-04T16:46:54.007Z</time></trkpt><trkpt lat="45.58213698072625" lon="10.12094268541287"><ele>154.0</ele><time>2026-05-04T16:46:57.007Z</time></trkpt><trkpt lat="45.582111327628965" lon="10.120837875967956"><ele>154.0</ele><time>2026-05-04T16:47:00.007Z</time></trkpt><trkpt lat="45.582087281018744" lon="10.120743106404767"><ele>154.0</ele><time>2026-05-04T16:47:03.007Z</time></trkpt><trkpt lat="45.582054068876424" lon="10.120650700814027"><ele>154.0</ele><time>2026-05-04T16:47:06.008Z</time></trkpt><trkpt lat="45.58202229935265" lon="10.12054935196033"><ele>154.0</ele><time>2026-05-04T16:47:09.008Z</time></trkpt><trkpt lat="45.58199033820536" lon="10.120458816921978"><ele>154.0</ele><time>2026-05-04T16:47:12.008Z</time></trkpt><trkpt lat="45.58195943666681" lon="10.120361679043754"><ele>154.0</ele><time>2026-05-04T16:47:15.008Z</time></trkpt><trkpt lat="45.58193013368158" lon="10.120267265182573"><ele>154.0</ele><time>2026-05-04T16:47:18.008Z</time></trkpt><trkpt lat="45.581912304772445" lon="10.120162113647382"><ele>154.14285714285714</ele><time>2026-05-04T16:47:21.008Z</time></trkpt><trkpt lat="45.581894853243284" lon="10.120075234824805"><ele>154.28571428571428</ele><time>2026-05-04T16:47:24.008Z</time></trkpt><trkpt lat="45.581880830567336" lon="10.119975980148842"><ele>154.42857142857144</ele><time>2026-05-04T16:47:27.008Z</time></trkpt><trkpt lat="45.581877343314034" lon="10.119875345128595"><ele>154.57142857142856</ele><time>2026-05-04T16:47:30.008Z</time></trkpt><trkpt lat="45.58187486738137" lon="10.119766923007719"><ele>154.71428571428572</ele><time>2026-05-04T16:47:33.008Z</time></trkpt><trkpt lat="45.58187952359198" lon="10.119655552173418"><ele>154.85714285714286</ele><time>2026-05-04T16:47:36.008Z</time></trkpt><trkpt lat="45.581886610009775" lon="10.119550587610826"><ele>155.0</ele><time>2026-05-04T16:47:39.008Z</time></trkpt><trkpt lat="45.58189873750308" lon="10.11944998944344"><ele>155.0</ele><time>2026-05-04T16:47:42.008Z</time></trkpt><trkpt lat="45.58190857357598" lon="10.11934705257112"><ele>155.0</ele><time>2026-05-04T16:47:45.008Z</time></trkpt><trkpt lat="45.58191684145842" lon="10.119234245801108"><ele>155.0</ele><time>2026-05-04T16:47:48.008Z</time></trkpt><trkpt lat="45.5819337405631" lon="10.119131510122275"><ele>155.0</ele><time>2026-05-04T16:47:51.008Z</time></trkpt><trkpt lat="45.58195125586537" lon="10.119021248720516"><ele>155.0</ele><time>2026-05-04T16:47:54.008Z</time></trkpt><trkpt lat="45.581969682404115" lon="10.11892294520132"><ele>155.0</ele><time>2026-05-04T16:47:57.008Z</time></trkpt><trkpt lat="45.58198741664139" lon="10.118828904944362"><ele>155.0</ele><time>2026-05-04T16:48:00.001Z</time></trkpt><trkpt lat="45.58200576904921" lon="10.118726197275492"><ele>155.0</ele><time>2026-05-04T16:48:03.001Z</time></trkpt><trkpt lat="45.582028793728114" lon="10.118628136956042"><ele>155.0</ele><time>2026-05-04T16:48:06.001Z</time></trkpt><trkpt lat="45.582051708613974" lon="10.11853270371139"><ele>155.0</ele><time>2026-05-04T16:48:09.001Z</time></trkpt><trkpt lat="45.5820736737674" lon="10.118425103391024"><ele>155.0</ele><time>2026-05-04T16:48:12.001Z</time></trkpt><trkpt lat="45.582109995953275" lon="10.118340718645532"><ele>155.0</ele><time>2026-05-04T16:48:15.001Z</time></trkpt><trkpt lat="45.58216208571151" lon="10.118263537415931"><ele>155.0</ele><time>2026-05-04T16:48:18.001Z</time></trkpt><trkpt lat="45.58223948836495" lon="10.118216516339357"><ele>155.0</ele><time>2026-05-04T16:48:21.001Z</time></trkpt><trkpt lat="45.58230515714357" lon="10.118170083240932"><ele>155.0</ele><time>2026-05-04T16:48:24.001Z</time></trkpt><trkpt lat="45.582372699050914" lon="10.118109693930375"><ele>155.0</ele><time>2026-05-04T16:48:27.001Z</time></trkpt><trkpt lat="45.582430497671616" lon="10.118045522689549"><ele>155.0</ele><time>2026-05-04T16:48:30.001Z</time></trkpt><trkpt lat="45.58245157496919" lon="10.117958165360143"><ele>155.0</ele><time>2026-05-04T16:48:33.001Z</time></trkpt><trkpt lat="45.58241523668487" lon="10.11786865833331"><ele>155.0</ele><time>2026-05-04T16:48:36.001Z</time></trkpt><trkpt lat="45.58237427241104" lon="10.117789043905322"><ele>155.0</ele><time>2026-05-04T16:48:39.001Z</time></trkpt><trkpt lat="45.582334551718695" lon="10.117717626616571"><ele>155.0</ele><time>2026-05-04T16:48:42.001Z</time></trkpt><trkpt lat="45.58227482561977" lon="10.117641597761247"><ele>155.0</ele><time>2026-05-04T16:48:45.001Z</time></trkpt><trkpt lat="45.5822427392677" lon="10.11755358543548"><ele>155.0</ele><time>2026-05-04T16:48:48.001Z</time></trkpt><trkpt lat="45.58223038052062" lon="10.117441242082807"><ele>155.0</ele><time>2026-05-04T16:48:51.001Z</time></trkpt><trkpt lat="45.58221709785901" lon="10.11733894343082"><ele>155.0</ele><time>2026-05-04T16:48:54.001Z</time></trkpt><trkpt lat="45.5821930030241" lon="10.117244868086962"><ele>155.0</ele><time>2026-05-04T16:48:58.001Z</time></trkpt><trkpt lat="45.58218116789068" lon="10.117138900959521"><ele>155.0</ele><time>2026-05-04T16:49:01.001Z</time></trkpt><trkpt lat="45.582181108286406" lon="10.117024344076944"><ele>155.16666666666666</ele><time>2026-05-04T16:49:04.001Z</time></trkpt><trkpt lat="45.582173037027175" lon="10.11690059868371"><ele>155.33333333333331</ele><time>2026-05-04T16:49:07.001Z</time></trkpt><trkpt lat="45.58217491358155" lon="10.116779214432244"><ele>155.5</ele><time>2026-05-04T16:49:10.001Z</time></trkpt><trkpt lat="45.58217964393837" lon="10.116663651448988"><ele>155.66666666666666</ele><time>2026-05-04T16:49:13.001Z</time></trkpt><trkpt lat="45.582188913733994" lon="10.11655210601173"><ele>155.83333333333334</ele><time>2026-05-04T16:49:16.001Z</time></trkpt><trkpt lat="45.58219781425536" lon="10.116449880214546"><ele>156.0</ele><time>2026-05-04T16:49:19.001Z</time></trkpt><trkpt lat="45.582201070714326" lon="10.116331161708525"><ele>156.0</ele><time>2026-05-04T16:49:22.001Z</time></trkpt><trkpt lat="45.58220294196247" lon="10.116214645738156"><ele>156.0</ele><time>2026-05-04T16:49:25.001Z</time></trkpt><trkpt lat="45.58220797689496" lon="10.116117728341605"><ele>156.0</ele><time>2026-05-04T16:49:28.001Z</time></trkpt><trkpt lat="45.58221487101497" lon="10.116004423154026"><ele>156.0</ele><time>2026-05-04T16:49:31.001Z</time></trkpt><trkpt lat="45.58221922316932" lon="10.115892986644685"><ele>156.0</ele><time>2026-05-04T16:49:34.001Z</time></trkpt><trkpt lat="45.58224028253384" lon="10.115802808676335"><ele>156.0</ele><time>2026-05-04T16:49:37.001Z</time></trkpt><trkpt lat="45.58223726969135" lon="10.115711264614253"><ele>156.0</ele><time>2026-05-04T16:49:40.001Z</time></trkpt><trkpt lat="45.58224695633314" lon="10.115591492923448"><ele>156.5</ele><time>2026-05-04T16:49:44.001Z</time></trkpt><trkpt lat="45.582255810156184" lon="10.115480257416516"><ele>157.0</ele><time>2026-05-04T16:49:47.001Z</time></trkpt><trkpt lat="45.58226993975336" lon="10.115380254773054"><ele>157.5</ele><time>2026-05-04T16:49:50.001Z</time></trkpt><trkpt lat="45.582290097825734" lon="10.11528036248012"><ele>158.0</ele><time>2026-05-04T16:49:53.002Z</time></trkpt><trkpt lat="45.58230607155256" lon="10.115170399032376"><ele>158.5</ele><time>2026-05-04T16:49:56.002Z</time></trkpt><trkpt lat="45.58230917510728" lon="10.11506443650579"><ele>159.0</ele><time>2026-05-04T16:49:59.002Z</time></trkpt><trkpt lat="45.58232263242432" lon="10.114954979365484"><ele>159.0</ele><time>2026-05-04T16:50:02.002Z</time></trkpt><trkpt lat="45.58234231383912" lon="10.114846390210223"><ele>159.0</ele><time>2026-05-04T16:50:05.002Z</time></trkpt><trkpt lat="45.58236699382569" lon="10.114748075453825"><ele>159.0</ele><time>2026-05-04T16:50:08.002Z</time></trkpt><trkpt lat="45.58238403998322" lon="10.114648136934909"><ele>159.0</ele><time>2026-05-04T16:50:11.002Z</time></trkpt><trkpt lat="45.58240492850395" lon="10.114560775707492"><ele>159.0</ele><time>2026-05-04T16:50:14.002Z</time></trkpt><trkpt lat="45.582425477473464" lon="10.114459028672727"><ele>159.0</ele><time>2026-05-04T16:50:17.002Z</time></trkpt><trkpt lat="45.58244091742474" lon="10.11435575355313"><ele>159.0</ele><time>2026-05-04T16:50:20.002Z</time></trkpt><trkpt lat="45.58246622039376" lon="10.114259239665879"><ele>159.0</ele><time>2026-05-04T16:50:23.002Z</time></trkpt><trkpt lat="45.58248565024444" lon="10.114163231832292"><ele>159.0</ele><time>2026-05-04T16:50:26.002Z</time></trkpt><trkpt lat="45.582508721670244" lon="10.114068428130837"><ele>159.0</ele><time>2026-05-04T16:50:29.002Z</time></trkpt><trkpt lat="45.58252842153357" lon="10.113965168916238"><ele>159.0</ele><time>2026-05-04T16:50:32.002Z</time></trkpt><trkpt lat="45.582552164999655" lon="10.113871550090579"><ele>159.0</ele><time>2026-05-04T16:50:35.002Z</time></trkpt><trkpt lat="45.58257471666772" lon="10.11376918539859"><ele>159.0</ele><time>2026-05-04T16:50:38.002Z</time></trkpt><trkpt lat="45.58259442811954" lon="10.113668433475464"><ele>159.0</ele><time>2026-05-04T16:50:41.002Z</time></trkpt><trkpt lat="45.58262020963544" lon="10.113569944433095"><ele>159.14285714285714</ele><time>2026-05-04T16:50:44.002Z</time></trkpt><trkpt lat="45.5826420650537" lon="10.11347394472502"><ele>159.2857142857143</ele><time>2026-05-04T16:50:47.002Z</time></trkpt><trkpt lat="45.582659543347354" lon="10.113362937521671"><ele>159.42857142857144</ele><time>2026-05-04T16:50:50.002Z</time></trkpt><trkpt lat="45.582676879429826" lon="10.113266104740381"><ele>159.57142857142856</ele><time>2026-05-04T16:50:53.001Z</time></trkpt><trkpt lat="45.58269349112686" lon="10.113170813322046"><ele>159.71428571428572</ele><time>2026-05-04T16:50:56.001Z</time></trkpt><trkpt lat="45.58271335175539" lon="10.113068465014214"><ele>159.85714285714286</ele><time>2026-05-04T16:50:59.001Z</time></trkpt><trkpt lat="45.58273040505594" lon="10.112960490248742"><ele>160.0</ele><time>2026-05-04T16:51:02.001Z</time></trkpt><trkpt lat="45.582751064055465" lon="10.112858236818445"><ele>160.0</ele><time>2026-05-04T16:51:05.001Z</time></trkpt><trkpt lat="45.582764397395074" lon="10.112761991551295"><ele>160.0</ele><time>2026-05-04T16:51:08.001Z</time></trkpt><trkpt lat="45.58278220483169" lon="10.11265797675102"><ele>160.0</ele><time>2026-05-04T16:51:11.001Z</time></trkpt><trkpt lat="45.58279844091387" lon="10.112560941518216"><ele>160.0</ele><time>2026-05-04T16:51:14.001Z</time></trkpt><trkpt lat="45.58281684008684" lon="10.11246349604545"><ele>160.0</ele><time>2026-05-04T16:51:17.001Z</time></trkpt><trkpt lat="45.582836513453074" lon="10.112368651407587"><ele>160.0</ele><time>2026-05-04T16:51:20.001Z</time></trkpt><trkpt lat="45.58285380842892" lon="10.112256314715362"><ele>160.0</ele><time>2026-05-04T16:51:23.001Z</time></trkpt><trkpt lat="45.582861676383686" lon="10.112145083110363"><ele>160.0</ele><time>2026-05-04T16:51:26.001Z</time></trkpt><trkpt lat="45.58287692908852" lon="10.112032120081404"><ele>160.0</ele><time>2026-05-04T16:51:29.001Z</time></trkpt><trkpt lat="45.58288849702519" lon="10.1119380771881"><ele>160.0</ele><time>2026-05-04T16:51:32.001Z</time></trkpt><trkpt lat="45.58290250408598" lon="10.111832645393447"><ele>160.0</ele><time>2026-05-04T16:51:35.001Z</time></trkpt><trkpt lat="45.582914600044994" lon="10.111724781559525"><ele>160.0</ele><time>2026-05-04T16:51:38.001Z</time></trkpt><trkpt lat="45.582928424979634" lon="10.111618647545885"><ele>160.0</ele><time>2026-05-04T16:51:41.001Z</time></trkpt><trkpt lat="45.58294453175508" lon="10.111518148352493"><ele>160.0</ele><time>2026-05-04T16:51:44.001Z</time></trkpt><trkpt lat="45.5829585768177" lon="10.111408675646075"><ele>160.0</ele><time>2026-05-04T16:51:47.001Z</time></trkpt><trkpt lat="45.582980452314736" lon="10.11131738913761"><ele>160.0</ele><time>2026-05-04T16:51:50.001Z</time></trkpt><trkpt lat="45.582990535378734" lon="10.111193439970442"><ele>160.0</ele><time>2026-05-04T16:51:53.001Z</time></trkpt><trkpt lat="45.58300747757903" lon="10.11108486429704"><ele>160.0</ele><time>2026-05-04T16:51:56.001Z</time></trkpt><trkpt lat="45.58300934784913" lon="10.110971011591449"><ele>160.0</ele><time>2026-05-04T16:51:59.001Z</time></trkpt><trkpt lat="45.583018203831486" lon="10.110872446884516"><ele>160.0</ele><time>2026-05-04T16:52:02.001Z</time></trkpt><trkpt lat="45.583034734683885" lon="10.110762862891322"><ele>160.16666666666669</ele><time>2026-05-04T16:52:05.001Z</time></trkpt><trkpt lat="45.58307345813841" lon="10.110675794087413"><ele>160.33333333333334</ele><time>2026-05-04T16:52:08.001Z</time></trkpt><trkpt lat="45.583112110604894" lon="10.110584221220817"><ele>160.5</ele><time>2026-05-04T16:52:11.001Z</time></trkpt><trkpt lat="45.583151452471014" lon="10.110488973566243"><ele>160.66666666666666</ele><time>2026-05-04T16:52:14.001Z</time></trkpt><trkpt lat="45.58319856465057" lon="10.110404004583918"><ele>160.83333333333331</ele><time>2026-05-04T16:52:17.001Z</time></trkpt><trkpt lat="45.58326048481699" lon="10.110336525572395"><ele>161.0</ele><time>2026-05-04T16:52:20.002Z</time></trkpt><trkpt lat="45.58333482655595" lon="10.110302830297693"><ele>161.0</ele><time>2026-05-04T16:52:23.002Z</time></trkpt><trkpt lat="45.5834074324182" lon="10.110278206218004"><ele>161.0</ele><time>2026-05-04T16:52:26.002Z</time></trkpt><trkpt lat="45.58348494383996" lon="10.110241427798396"><ele>161.0</ele><time>2026-05-04T16:52:29.002Z</time></trkpt><trkpt lat="45.583563306368035" lon="10.110208834863833"><ele>161.0</ele><time>2026-05-04T16:52:32.002Z</time></trkpt><trkpt lat="45.583635817962126" lon="10.110181774702717"><ele>161.0</ele><time>2026-05-04T16:52:35.002Z</time></trkpt><trkpt lat="45.58371231286801" lon="10.110167479690075"><ele>161.0</ele><time>2026-05-04T16:52:38.002Z</time></trkpt><trkpt lat="45.58378630527759" lon="10.110171141147973"><ele>161.0</ele><time>2026-05-04T16:52:41.002Z</time></trkpt><trkpt lat="45.58385977572602" lon="10.11017645319296"><ele>161.0</ele><time>2026-05-04T16:52:44.002Z</time></trkpt><trkpt lat="45.583938398026035" lon="10.110180109942892"><ele>161.0</ele><time>2026-05-04T16:52:47.002Z</time></trkpt><trkpt lat="45.5840140975643" lon="10.110178112788262"><ele>161.0</ele><time>2026-05-04T16:52:50.002Z</time></trkpt><trkpt lat="45.58409232969287" lon="10.110172925550497"><ele>161.0</ele><time>2026-05-04T16:52:53.002Z</time></trkpt><trkpt lat="45.58416876364471" lon="10.110181015492936"><ele>161.0</ele><time>2026-05-04T16:52:56.002Z</time></trkpt><trkpt lat="45.58424557132189" lon="10.110196222085147"><ele>161.0</ele><time>2026-05-04T16:52:59.001Z</time></trkpt><trkpt lat="45.5843238209058" lon="10.110211507502239"><ele>161.0</ele><time>2026-05-04T16:53:02Z</time></trkpt><trkpt lat="45.584396225187376" lon="10.110231858469838"><ele>161.0</ele><time>2026-05-04T16:53:05Z</time></trkpt><trkpt lat="45.584465895333274" lon="10.110248108840109"><ele>161.0</ele><time>2026-05-04T16:53:08Z</time></trkpt><trkpt lat="45.58454271540231" lon="10.110270138501734"><ele>161.0</ele><time>2026-05-04T16:53:11Z</time></trkpt><trkpt lat="45.58461682298979" lon="10.110290120877243"><ele>161.0</ele><time>2026-05-04T16:53:14Z</time></trkpt><trkpt lat="45.58469083559387" lon="10.110322922332786"><ele>160.85714285714286</ele><time>2026-05-04T16:53:17Z</time></trkpt><trkpt lat="45.58476456730267" lon="10.110346172845697"><ele>160.71428571428572</ele><time>2026-05-04T16:53:20Z</time></trkpt><trkpt lat="45.58483555091718" lon="10.110359807495437"><ele>160.57142857142856</ele><time>2026-05-04T16:53:23Z</time></trkpt><trkpt lat="45.58490943244654" lon="10.110367105225206"><ele>160.42857142857144</ele><time>2026-05-04T16:53:26.001Z</time></trkpt><trkpt lat="45.58498175411736" lon="10.110342111603355"><ele>160.28571428571428</ele><time>2026-05-04T16:53:29.001Z</time></trkpt><trkpt lat="45.58504871214194" lon="10.110299541487809"><ele>160.14285714285714</ele><time>2026-05-04T16:53:32.001Z</time></trkpt><trkpt lat="45.58510350897862" lon="10.110224113178349"><ele>160.0</ele><time>2026-05-04T16:53:35.001Z</time></trkpt><trkpt lat="45.58514758780923" lon="10.110147821211507"><ele>160.0</ele><time>2026-05-04T16:53:38.001Z</time></trkpt><trkpt lat="45.58517584857093" lon="10.110059432029795"><ele>160.0</ele><time>2026-05-04T16:53:41.001Z</time></trkpt><trkpt lat="45.585226270260755" lon="10.110001487344118"><ele>160.0</ele><time>2026-05-04T16:53:44.001Z</time></trkpt><trkpt lat="45.585291226505404" lon="10.109939468488141"><ele>160.0</ele><time>2026-05-04T16:53:47.001Z</time></trkpt><trkpt lat="45.58537053246809" lon="10.109895681614887"><ele>160.0</ele><time>2026-05-04T16:53:51.001Z</time></trkpt><trkpt lat="45.58544119871857" lon="10.109899113376574"><ele>160.0</ele><time>2026-05-04T16:53:54.001Z</time></trkpt><trkpt lat="45.58550725055758" lon="10.109916258675675"><ele>160.0</ele><time>2026-05-04T16:53:57.001Z</time></trkpt><trkpt lat="45.58557431655691" lon="10.10993398571465"><ele>160.33333333333334</ele><time>2026-05-04T16:54:00.001Z</time></trkpt><trkpt lat="45.5856440125752" lon="10.10995902574792"><ele>160.66666666666669</ele><time>2026-05-04T16:54:03.001Z</time></trkpt><trkpt lat="45.585715451485804" lon="10.109973757035563"><ele>161.0</ele><time>2026-05-04T16:54:06.001Z</time></trkpt><trkpt lat="45.58578695595099" lon="10.109924302661604"><ele>161.33333333333334</ele><time>2026-05-04T16:54:09.001Z</time></trkpt><trkpt lat="45.58586463219321" lon="10.109949878985352"><ele>161.66666666666666</ele><time>2026-05-04T16:54:12.001Z</time></trkpt><trkpt lat="45.58594060757241" lon="10.109976437430674"><ele>162.0</ele><time>2026-05-04T16:54:15.001Z</time></trkpt><trkpt lat="45.58601115319861" lon="10.109998533126122"><ele>162.0</ele><time>2026-05-04T16:54:18.001Z</time></trkpt><trkpt lat="45.58608122206687" lon="10.11002279886928"><ele>162.0</ele><time>2026-05-04T16:54:21.001Z</time></trkpt><trkpt lat="45.58615700960121" lon="10.110041180492157"><ele>162.0</ele><time>2026-05-04T16:54:24.001Z</time></trkpt><trkpt lat="45.586233128190784" lon="10.11005501636174"><ele>162.0</ele><time>2026-05-04T16:54:27.001Z</time></trkpt><trkpt lat="45.58630804490353" lon="10.110084631772551"><ele>162.0</ele><time>2026-05-04T16:54:30.001Z</time></trkpt><trkpt lat="45.586385907613234" lon="10.110105875986937"><ele>162.0</ele><time>2026-05-04T16:54:33.001Z</time></trkpt><trkpt lat="45.58646179288726" lon="10.110126088809993"><ele>162.14285714285714</ele><time>2026-05-04T16:54:36.001Z</time></trkpt><trkpt lat="45.58653800687638" lon="10.110141737904488"><ele>162.28571428571428</ele><time>2026-05-04T16:54:39.001Z</time></trkpt><trkpt lat="45.586611152873544" lon="10.11016451703631"><ele>162.42857142857144</ele><time>2026-05-04T16:54:42.001Z</time></trkpt><trkpt lat="45.58668495562489" lon="10.110186738812128"><ele>162.57142857142856</ele><time>2026-05-04T16:54:45.001Z</time></trkpt><trkpt lat="45.58675550536426" lon="10.110203644221118"><ele>162.7142857142857</ele><time>2026-05-04T16:54:48.001Z</time></trkpt><trkpt lat="45.58682209497274" lon="10.110236231864155"><ele>162.85714285714286</ele><time>2026-05-04T16:54:51.001Z</time></trkpt><trkpt lat="45.58689755945007" lon="10.110251965097406"><ele>163.0</ele><time>2026-05-04T16:54:54.001Z</time></trkpt><trkpt lat="45.58696723569494" lon="10.110277014426012"><ele>163.16666666666669</ele><time>2026-05-04T16:54:57.001Z</time></trkpt><trkpt lat="45.58704428529304" lon="10.110305185386087"><ele>163.33333333333334</ele><time>2026-05-04T16:55:00.001Z</time></trkpt><trkpt lat="45.58711019468145" lon="10.110321329460414"><ele>163.5</ele><time>2026-05-04T16:55:03.001Z</time></trkpt><trkpt lat="45.587188391791535" lon="10.110349601345478"><ele>163.66666666666666</ele><time>2026-05-04T16:55:06.001Z</time></trkpt><trkpt lat="45.58725442565255" lon="10.110377933964148"><ele>163.83333333333331</ele><time>2026-05-04T16:55:09.001Z</time></trkpt><trkpt lat="45.58733014090348" lon="10.110400681418561"><ele>164.0</ele><time>2026-05-04T16:55:12Z</time></trkpt><trkpt lat="45.58740693489712" lon="10.110426771050323"><ele>164.0</ele><time>2026-05-04T16:55:15Z</time></trkpt><trkpt lat="45.58748251837983" lon="10.110445830883387"><ele>164.0</ele><time>2026-05-04T16:55:18.001Z</time></trkpt><trkpt lat="45.58755531354161" lon="10.110457182013935"><ele>164.0</ele><time>2026-05-04T16:55:21.001Z</time></trkpt><trkpt lat="45.58762613411676" lon="10.110484630129536"><ele>164.0</ele><time>2026-05-04T16:55:24.001Z</time></trkpt><trkpt lat="45.587700958304616" lon="10.110502687075245"><ele>164.0</ele><time>2026-05-04T16:55:27.001Z</time></trkpt><trkpt lat="45.58777971208733" lon="10.110525853874949"><ele>164.0</ele><time>2026-05-04T16:55:30.001Z</time></trkpt><trkpt lat="45.587852013862125" lon="10.110545266459313"><ele>163.83333333333331</ele><time>2026-05-04T16:55:33.001Z</time></trkpt><trkpt lat="45.58792588027152" lon="10.110551538296392"><ele>163.66666666666666</ele><time>2026-05-04T16:55:36.001Z</time></trkpt><trkpt lat="45.588001455722925" lon="10.110555896857306"><ele>163.5</ele><time>2026-05-04T16:55:39.001Z</time></trkpt><trkpt lat="45.58807805171737" lon="10.11056508216535"><ele>163.33333333333334</ele><time>2026-05-04T16:55:42.001Z</time></trkpt><trkpt lat="45.588155440683224" lon="10.110561016379172"><ele>163.16666666666669</ele><time>2026-05-04T16:55:45.001Z</time></trkpt><trkpt lat="45.58822789415974" lon="10.11056254736796"><ele>163.0</ele><time>2026-05-04T16:55:48.001Z</time></trkpt><trkpt lat="45.58830250879771" lon="10.110549871121766"><ele>163.0</ele><time>2026-05-04T16:55:51.001Z</time></trkpt><trkpt lat="45.588376638178545" lon="10.11053750067921"><ele>163.0</ele><time>2026-05-04T16:55:54.001Z</time></trkpt><trkpt lat="45.58844461274232" lon="10.110545005215185"><ele>163.0</ele><time>2026-05-04T16:55:57.001Z</time></trkpt><trkpt lat="45.58851693569727" lon="10.110531541273563"><ele>163.0</ele><time>2026-05-04T16:56:00.001Z</time></trkpt><trkpt lat="45.58859318010629" lon="10.11051392416629"><ele>163.0</ele><time>2026-05-04T16:56:03.001Z</time></trkpt><trkpt lat="45.58866583479816" lon="10.110487689349421"><ele>163.0</ele><time>2026-05-04T16:56:06.001Z</time></trkpt><trkpt lat="45.58873231959854" lon="10.11045608765796"><ele>163.0</ele><time>2026-05-04T16:56:09.001Z</time></trkpt><trkpt lat="45.58880274416618" lon="10.110425487524449"><ele>163.33333333333334</ele><time>2026-05-04T16:56:12.002Z</time></trkpt><trkpt lat="45.58887596999743" lon="10.110389530230382"><ele>163.66666666666669</ele><time>2026-05-04T16:56:15.002Z</time></trkpt><trkpt lat="45.58895513348201" lon="10.110363220453912"><ele>164.0</ele><time>2026-05-04T16:56:18.002Z</time></trkpt><trkpt lat="45.58902799483895" lon="10.110325104983314"><ele>164.33333333333334</ele><time>2026-05-04T16:56:21.002Z</time></trkpt><trkpt lat="45.589098878379296" lon="10.11029005562525"><ele>164.66666666666666</ele><time>2026-05-04T16:56:24.002Z</time></trkpt><trkpt lat="45.589170596253894" lon="10.110263734149916"><ele>165.0</ele><time>2026-05-04T16:56:27.002Z</time></trkpt><trkpt lat="45.589242505513766" lon="10.110241861331254"><ele>165.0</ele><time>2026-05-04T16:56:30.002Z</time></trkpt><trkpt lat="45.58931215434922" lon="10.110229357179117"><ele>165.0</ele><time>2026-05-04T16:56:33.002Z</time></trkpt><trkpt lat="45.58939664664525" lon="10.110202550997908"><ele>165.0</ele><time>2026-05-04T16:56:36.002Z</time></trkpt><trkpt lat="45.589478744536265" lon="10.11016961109979"><ele>165.0</ele><time>2026-05-04T16:56:39.002Z</time></trkpt><trkpt lat="45.58955553513905" lon="10.110148103911023"><ele>165.0</ele><time>2026-05-04T16:56:42.002Z</time></trkpt><trkpt lat="45.589628347896145" lon="10.11012893785222"><ele>165.0</ele><time>2026-05-04T16:56:45.002Z</time></trkpt><trkpt lat="45.58969972935279" lon="10.110113472451571"><ele>165.42857142857144</ele><time>2026-05-04T16:56:48.002Z</time></trkpt><trkpt lat="45.58976661258974" lon="10.11013618144279"><ele>165.85714285714286</ele><time>2026-05-04T16:56:51.002Z</time></trkpt><trkpt lat="45.5898433541443" lon="10.110126185653115"><ele>166.28571428571428</ele><time>2026-05-04T16:56:54.002Z</time></trkpt><trkpt lat="45.589910930068335" lon="10.110106696433467"><ele>166.71428571428572</ele><time>2026-05-04T16:56:57.002Z</time></trkpt><trkpt lat="45.589978993996716" lon="10.110113142648963"><ele>167.14285714285714</ele><time>2026-05-04T16:57:00.002Z</time></trkpt><trkpt lat="45.59005777427359" lon="10.110126731107203"><ele>167.57142857142858</ele><time>2026-05-04T16:57:03.002Z</time></trkpt><trkpt lat="45.59013665225545" lon="10.11011750462192"><ele>168.0</ele><time>2026-05-04T16:57:06.002Z</time></trkpt><trkpt lat="45.59021767116457" lon="10.110102170483236"><ele>168.0</ele><time>2026-05-04T16:57:09.002Z</time></trkpt><trkpt lat="45.590299826512975" lon="10.110079315998954"><ele>168.0</ele><time>2026-05-04T16:57:12.002Z</time></trkpt><trkpt lat="45.590369305873466" lon="10.110069890101112"><ele>168.0</ele><time>2026-05-04T16:57:15.002Z</time></trkpt><trkpt lat="45.59044154198093" lon="10.110055002067496"><ele>168.0</ele><time>2026-05-04T16:57:18.002Z</time></trkpt><trkpt lat="45.59051543482109" lon="10.110045074744189"><ele>168.0</ele><time>2026-05-04T16:57:21.002Z</time></trkpt><trkpt lat="45.59059492187929" lon="10.110046788286184"><ele>168.0</ele><time>2026-05-04T16:57:25.002Z</time></trkpt><trkpt lat="45.59067126631098" lon="10.110045171387842"><ele>168.16666666666666</ele><time>2026-05-04T16:57:28.002Z</time></trkpt><trkpt lat="45.590744144879" lon="10.11005872165447"><ele>168.33333333333334</ele><time>2026-05-04T16:57:31.002Z</time></trkpt><trkpt lat="45.59082646118774" lon="10.110074678095328"><ele>168.5</ele><time>2026-05-04T16:57:34.002Z</time></trkpt><trkpt lat="45.59090562064074" lon="10.110079446644633"><ele>168.66666666666669</ele><time>2026-05-04T16:57:37.002Z</time></trkpt><trkpt lat="45.59098116481571" lon="10.110084280992833"><ele>168.83333333333334</ele><time>2026-05-04T16:57:40.002Z</time></trkpt><trkpt lat="45.59105795707647" lon="10.110074489225221"><ele>169.0</ele><time>2026-05-04T16:57:43.002Z</time></trkpt><trkpt lat="45.59112738007474" lon="10.110080590422239"><ele>169.14285714285714</ele><time>2026-05-04T16:57:46.002Z</time></trkpt><trkpt lat="45.59120572317736" lon="10.11008442908359"><ele>169.28571428571428</ele><time>2026-05-04T16:57:49.002Z</time></trkpt><trkpt lat="45.591280459856826" lon="10.11009180006215"><ele>169.42857142857144</ele><time>2026-05-04T16:57:52.002Z</time></trkpt><trkpt lat="45.591349962522656" lon="10.110094373177228"><ele>169.57142857142856</ele><time>2026-05-04T16:57:55.002Z</time></trkpt><trkpt lat="45.591424737601116" lon="10.110098424701965"><ele>169.7142857142857</ele><time>2026-05-04T16:57:58.003Z</time></trkpt><trkpt lat="45.591498846589275" lon="10.11011247604836"><ele>169.85714285714286</ele><time>2026-05-04T16:58:01.003Z</time></trkpt><trkpt lat="45.591568467247505" lon="10.110118116637024"><ele>170.0</ele><time>2026-05-04T16:58:04.003Z</time></trkpt><trkpt lat="45.5916393447982" lon="10.11014422802631"><ele>170.0</ele><time>2026-05-04T16:58:07.003Z</time></trkpt><trkpt lat="45.591714678429845" lon="10.110167387756286"><ele>170.0</ele><time>2026-05-04T16:58:10.003Z</time></trkpt><trkpt lat="45.591787267769284" lon="10.110201827249435"><ele>170.0</ele><time>2026-05-04T16:58:13.003Z</time></trkpt><trkpt lat="45.59185884294621" lon="10.110256089427438"><ele>170.0</ele><time>2026-05-04T16:58:17.003Z</time></trkpt><trkpt lat="45.591917150755904" lon="10.110306455355799"><ele>170.0</ele><time>2026-05-04T16:58:20.003Z</time></trkpt><trkpt lat="45.59196802740598" lon="10.110370185341848"><ele>170.0</ele><time>2026-05-04T16:58:23.003Z</time></trkpt><trkpt lat="45.592024189644604" lon="10.110454222196667"><ele>170.0</ele><time>2026-05-04T16:58:27.003Z</time></trkpt><trkpt lat="45.59208624376131" lon="10.1105281755985"><ele>170.0</ele><time>2026-05-04T16:58:30.003Z</time></trkpt><trkpt lat="45.59216085602295" lon="10.11058192465566"><ele>170.0</ele><time>2026-05-04T16:58:33.003Z</time></trkpt><trkpt lat="45.59221754597953" lon="10.110650549261202"><ele>170.0</ele><time>2026-05-04T16:58:36.003Z</time></trkpt><trkpt lat="45.592295534683416" lon="10.11069265909269"><ele>170.0</ele><time>2026-05-04T16:58:39.003Z</time></trkpt><trkpt lat="45.592376274608256" lon="10.110724805965067"><ele>170.0</ele><time>2026-05-04T16:58:42.003Z</time></trkpt><trkpt lat="45.59245691627063" lon="10.11075349667341"><ele>170.0</ele><time>2026-05-04T16:58:45.003Z</time></trkpt><trkpt lat="45.59251479566008" lon="10.110789010933628"><ele>170.0</ele><time>2026-05-04T16:58:48.003Z</time></trkpt><trkpt lat="45.592585386719946" lon="10.110791385488575"><ele>170.0</ele><time>2026-05-04T16:58:50.003Z</time></trkpt><trkpt lat="45.59267336275914" lon="10.11080077780246"><ele>170.0</ele><time>2026-05-04T16:58:53.003Z</time></trkpt><trkpt lat="45.592759698024636" lon="10.110806633425614"><ele>170.0</ele><time>2026-05-04T16:58:56.003Z</time></trkpt><trkpt lat="45.59284204960479" lon="10.110822960566571"><ele>170.0</ele><time>2026-05-04T16:58:59.003Z</time></trkpt><trkpt lat="45.5929084866196" lon="10.110841704520666"><ele>170.16666666666666</ele><time>2026-05-04T16:59:02.003Z</time></trkpt><trkpt lat="45.59298028693071" lon="10.11084129275994"><ele>170.33333333333331</ele><time>2026-05-04T16:59:05.003Z</time></trkpt><trkpt lat="45.593053076420794" lon="10.110833676546655"><ele>170.5</ele><time>2026-05-04T16:59:08.003Z</time></trkpt><trkpt lat="45.59312730244635" lon="10.110826937043457"><ele>170.66666666666666</ele><time>2026-05-04T16:59:11.003Z</time></trkpt><trkpt lat="45.59319706786424" lon="10.110885421090066"><ele>170.83333333333334</ele><time>2026-05-04T16:59:14.003Z</time></trkpt><trkpt lat="45.593270977051816" lon="10.110894863338318"><ele>171.0</ele><time>2026-05-04T16:59:17.002Z</time></trkpt><trkpt lat="45.593346567863684" lon="10.110885755051171"><ele>171.0</ele><time>2026-05-04T16:59:20.002Z</time></trkpt><trkpt lat="45.59343233423209" lon="10.11090347180222"><ele>171.0</ele><time>2026-05-04T16:59:23.002Z</time></trkpt><trkpt lat="45.59351276014053" lon="10.110914409313741"><ele>171.0</ele><time>2026-05-04T16:59:26.002Z</time></trkpt><trkpt lat="45.593588595033964" lon="10.110928594496574"><ele>171.0</ele><time>2026-05-04T16:59:29.002Z</time></trkpt><trkpt lat="45.59366309197305" lon="10.11094198053347"><ele>171.0</ele><time>2026-05-04T16:59:32.002Z</time></trkpt><trkpt lat="45.59373715569771" lon="10.110921776322963"><ele>171.0</ele><time>2026-05-04T16:59:35.002Z</time></trkpt><trkpt lat="45.593806209474025" lon="10.110921875091266"><ele>170.99999999999997</ele><time>2026-05-04T16:59:38.002Z</time></trkpt><trkpt lat="45.59387317886943" lon="10.110911742512068"><ele>171.0</ele><time>2026-05-04T16:59:41.002Z</time></trkpt><trkpt lat="45.59393866898108" lon="10.110931950320328"><ele>171.0</ele><time>2026-05-04T16:59:44.002Z</time></trkpt><trkpt lat="45.59401173264814" lon="10.110931726668927"><ele>171.0</ele><time>2026-05-04T16:59:47.002Z</time></trkpt><trkpt lat="45.59407705262181" lon="10.110906966144803"><ele>171.0</ele><time>2026-05-04T16:59:50.002Z</time></trkpt><trkpt lat="45.594146086780164" lon="10.110867390664355"><ele>170.99999999999997</ele><time>2026-05-04T16:59:53.002Z</time></trkpt><trkpt lat="45.59421354800385" lon="10.110816400784094"><ele>171.0</ele><time>2026-05-04T16:59:56.002Z</time></trkpt><trkpt lat="45.59427375666569" lon="10.110763149374366"><ele>171.16666666666666</ele><time>2026-05-04T16:59:59.002Z</time></trkpt><trkpt lat="45.59434118925214" lon="10.11071340081481"><ele>171.33333333333334</ele><time>2026-05-04T17:00:02.002Z</time></trkpt><trkpt lat="45.594402070672885" lon="10.110613900129318"><ele>171.5</ele><time>2026-05-04T17:00:05.002Z</time></trkpt><trkpt lat="45.59445796566559" lon="10.110540403327741"><ele>171.66666666666669</ele><time>2026-05-04T17:00:08.002Z</time></trkpt><trkpt lat="45.59452020665702" lon="10.110481725168762"><ele>171.83333333333334</ele><time>2026-05-04T17:00:11.002Z</time></trkpt><trkpt lat="45.594602296889136" lon="10.110436832775441"><ele>172.0</ele><time>2026-05-04T17:00:14.002Z</time></trkpt><trkpt lat="45.59467629648999" lon="10.110399899889424"><ele>172.0</ele><time>2026-05-04T17:00:17.002Z</time></trkpt><trkpt lat="45.59474815688545" lon="10.110357456170656"><ele>172.0</ele><time>2026-05-04T17:00:20.002Z</time></trkpt><trkpt lat="45.59481875997657" lon="10.11032851129867"><ele>172.0</ele><time>2026-05-04T17:00:23.002Z</time></trkpt><trkpt lat="45.594886002190904" lon="10.11029615756545"><ele>172.0</ele><time>2026-05-04T17:00:26.002Z</time></trkpt><trkpt lat="45.594957588680316" lon="10.110255367225921"><ele>172.0</ele><time>2026-05-04T17:00:29.002Z</time></trkpt><trkpt lat="45.595009590950696" lon="10.110187266308005"><ele>172.0</ele><time>2026-05-04T17:00:32.002Z</time></trkpt><trkpt lat="45.59506280776094" lon="10.11009813753584"><ele>172.00000000000003</ele><time>2026-05-04T17:00:36.002Z</time></trkpt><trkpt lat="45.59511233764109" lon="10.110030676754157"><ele>172.0</ele><time>2026-05-04T17:00:39.002Z</time></trkpt><trkpt lat="45.59515163375346" lon="10.109945841654662"><ele>172.0</ele><time>2026-05-04T17:00:42.002Z</time></trkpt><trkpt lat="45.59519626193716" lon="10.109861626076102"><ele>172.0</ele><time>2026-05-04T17:00:45.002Z</time></trkpt><trkpt lat="45.59524934396433" lon="10.109787073495205"><ele>172.0</ele><time>2026-05-04T17:00:48.002Z</time></trkpt><trkpt lat="45.59528467417145" lon="10.109682110434532"><ele>172.00000000000003</ele><time>2026-05-04T17:00:51.002Z</time></trkpt><trkpt lat="45.5953296867491" lon="10.109593028829213"><ele>172.0</ele><time>2026-05-04T17:00:54.002Z</time></trkpt><trkpt lat="45.5953790379147" lon="10.109499321058813"><ele>172.5</ele><time>2026-05-04T17:00:57.002Z</time></trkpt><trkpt lat="45.59543034591889" lon="10.109420576163494"><ele>173.0</ele><time>2026-05-04T17:01:00.002Z</time></trkpt><trkpt lat="45.59548075631634" lon="10.109317446242086"><ele>173.5</ele><time>2026-05-04T17:01:03.002Z</time></trkpt><trkpt lat="45.59553263021636" lon="10.10923230177963"><ele>174.0</ele><time>2026-05-04T17:01:06.002Z</time></trkpt><trkpt lat="45.59558152532148" lon="10.109148362152599"><ele>174.5</ele><time>2026-05-04T17:01:09.003Z</time></trkpt><trkpt lat="45.59562831646593" lon="10.10906684081116"><ele>175.0</ele><time>2026-05-04T17:01:12.003Z</time></trkpt><trkpt lat="45.595662575326116" lon="10.108965153250615"><ele>175.16666666666669</ele><time>2026-05-04T17:01:18.003Z</time></trkpt><trkpt lat="45.595730095296844" lon="10.108902062231081"><ele>175.33333333333334</ele><time>2026-05-04T17:01:22.002Z</time></trkpt><trkpt lat="45.59580883727059" lon="10.108870003024231"><ele>175.5</ele><time>2026-05-04T17:01:25.002Z</time></trkpt><trkpt lat="45.595876538453" lon="10.108828564266366"><ele>175.66666666666666</ele><time>2026-05-04T17:01:28.002Z</time></trkpt><trkpt lat="45.59593986399613" lon="10.10880444081024"><ele>175.83333333333331</ele><time>2026-05-04T17:01:31.001Z</time></trkpt><trkpt lat="45.596016866514894" lon="10.108765414602148"><ele>176.0</ele><time>2026-05-04T17:01:34.001Z</time></trkpt><trkpt lat="45.59609203927685" lon="10.108745282565033"><ele>176.0</ele><time>2026-05-04T17:01:37.001Z</time></trkpt><trkpt lat="45.596168976395745" lon="10.108734517779935"><ele>176.0</ele><time>2026-05-04T17:01:40.001Z</time></trkpt><trkpt lat="45.59624870202399" lon="10.108712700381833"><ele>176.0</ele><time>2026-05-04T17:01:43.001Z</time></trkpt><trkpt lat="45.596318492028985" lon="10.10868944941213"><ele>176.0</ele><time>2026-05-04T17:01:46.002Z</time></trkpt><trkpt lat="45.59638349432828" lon="10.108680740376016"><ele>176.0</ele><time>2026-05-04T17:01:49.002Z</time></trkpt><trkpt lat="45.59645672617324" lon="10.108678226291925"><ele>176.0</ele><time>2026-05-04T17:01:52.002Z</time></trkpt><trkpt lat="45.59653277776381" lon="10.108671780471301"><ele>176.0</ele><time>2026-05-04T17:01:55.002Z</time></trkpt><trkpt lat="45.596611804440414" lon="10.108655499083234"><ele>175.83333333333331</ele><time>2026-05-04T17:01:58.002Z</time></trkpt><trkpt lat="45.59669094001123" lon="10.108630085923812"><ele>175.66666666666666</ele><time>2026-05-04T17:02:01.002Z</time></trkpt><trkpt lat="45.59677211719863" lon="10.108598752263612"><ele>175.5</ele><time>2026-05-04T17:02:04.002Z</time></trkpt><trkpt lat="45.59684363763768" lon="10.108552072251872"><ele>175.33333333333334</ele><time>2026-05-04T17:02:07.002Z</time></trkpt><trkpt lat="45.59690874412187" lon="10.108506162123271"><ele>175.16666666666669</ele><time>2026-05-04T17:02:10.002Z</time></trkpt><trkpt lat="45.59696501234439" lon="10.108462955284315"><ele>175.0</ele><time>2026-05-04T17:02:13.002Z</time></trkpt><trkpt lat="45.597027442559586" lon="10.108408787942906"><ele>175.0</ele><time>2026-05-04T17:02:16.002Z</time></trkpt><trkpt lat="45.597090593126985" lon="10.10833671176757"><ele>175.0</ele><time>2026-05-04T17:02:19.002Z</time></trkpt><trkpt lat="45.59715412344541" lon="10.108261946041537"><ele>175.0</ele><time>2026-05-04T17:02:22.002Z</time></trkpt><trkpt lat="45.59720129348712" lon="10.108177131831932"><ele>175.0</ele><time>2026-05-04T17:02:25.002Z</time></trkpt><trkpt lat="45.59724583252694" lon="10.108091788571935"><ele>175.0</ele><time>2026-05-04T17:02:28.002Z</time></trkpt><trkpt lat="45.5973127986818" lon="10.108043957727485"><ele>175.0</ele><time>2026-05-04T17:02:31.002Z</time></trkpt><trkpt lat="45.59738105826921" lon="10.107978353666201"><ele>175.0</ele><time>2026-05-04T17:02:34.002Z</time></trkpt><trkpt lat="45.5974173416694" lon="10.107874497166938"><ele>175.0</ele><time>2026-05-04T17:02:37.002Z</time></trkpt><trkpt lat="45.59744187019775" lon="10.107748954442004"><ele>175.0</ele><time>2026-05-04T17:02:40.002Z</time></trkpt><trkpt lat="45.597467889277276" lon="10.107633053584998"><ele>175.0</ele><time>2026-05-04T17:02:43.002Z</time></trkpt><trkpt lat="45.59749283138779" lon="10.107521385793858"><ele>175.0</ele><time>2026-05-04T17:02:46.002Z</time></trkpt><trkpt lat="45.597531673872105" lon="10.107417895298472"><ele>175.0</ele><time>2026-05-04T17:02:49.002Z</time></trkpt><trkpt lat="45.597563442621045" lon="10.107320370492099"><ele>175.0</ele><time>2026-05-04T17:02:53.002Z</time></trkpt><trkpt lat="45.597600504896526" lon="10.10724258141688"><ele>175.0</ele><time>2026-05-04T17:02:56.002Z</time></trkpt><trkpt lat="45.59762509196085" lon="10.107151503537526"><ele>175.0</ele><time>2026-05-04T17:02:59.002Z</time></trkpt><trkpt lat="45.59765241303922" lon="10.107046017730998"><ele>175.0</ele><time>2026-05-04T17:03:02.002Z</time></trkpt><trkpt lat="45.59768895350362" lon="10.106950794120412"><ele>175.0</ele><time>2026-05-04T17:03:05.002Z</time></trkpt><trkpt lat="45.59772101833337" lon="10.106856851148818"><ele>175.0</ele><time>2026-05-04T17:03:08.002Z</time></trkpt><trkpt lat="45.59775554535615" lon="10.106757769048778"><ele>175.0</ele><time>2026-05-04T17:03:11.002Z</time></trkpt><trkpt lat="45.597786990040035" lon="10.106666123997956"><ele>175.0</ele><time>2026-05-04T17:03:14.002Z</time></trkpt><trkpt lat="45.59781680841701" lon="10.106578385586705"><ele>175.0</ele><time>2026-05-04T17:03:17.002Z</time></trkpt><trkpt lat="45.59784943188013" lon="10.106484785051203"><ele>175.0</ele><time>2026-05-04T17:03:20.002Z</time></trkpt><trkpt lat="45.59788685551809" lon="10.106396151647202"><ele>175.0</ele><time>2026-05-04T17:03:23.002Z</time></trkpt><trkpt lat="45.59792705492443" lon="10.106304329746031"><ele>175.0</ele><time>2026-05-04T17:03:26.002Z</time></trkpt><trkpt lat="45.59797695842139" lon="10.106248331821986"><ele>175.0</ele><time>2026-05-04T17:03:29.002Z</time></trkpt><trkpt lat="45.59805039034671" lon="10.106238235773905"><ele>175.0</ele><time>2026-05-04T17:03:32.002Z</time></trkpt><trkpt lat="45.59811480155874" lon="10.106248404393762"><ele>175.57142857142858</ele><time>2026-05-04T17:03:35.002Z</time></trkpt><trkpt lat="45.59819075931499" lon="10.106296071602594"><ele>176.14285714285714</ele><time>2026-05-04T17:03:39.002Z</time></trkpt><trkpt lat="45.59825436309015" lon="10.10632643169186"><ele>176.71428571428572</ele><time>2026-05-04T17:03:42.002Z</time></trkpt><trkpt lat="45.598322378359484" lon="10.106341627500832"><ele>177.28571428571428</ele><time>2026-05-04T17:03:45.002Z</time></trkpt><trkpt lat="45.598387362356426" lon="10.106359792669936"><ele>177.85714285714286</ele><time>2026-05-04T17:03:48.002Z</time></trkpt><trkpt lat="45.59845748118628" lon="10.106390270358961"><ele>178.42857142857144</ele><time>2026-05-04T17:03:51.002Z</time></trkpt><trkpt lat="45.598531294108966" lon="10.106402331095847"><ele>179.0</ele><time>2026-05-04T17:03:54.002Z</time></trkpt><trkpt lat="45.598610810121116" lon="10.1064229263565"><ele>179.16666666666666</ele><time>2026-05-04T17:03:57.002Z</time></trkpt><trkpt lat="45.59866878780393" lon="10.106477420573578"><ele>179.33333333333331</ele><time>2026-05-04T17:04:00.002Z</time></trkpt><trkpt lat="45.598725044482435" lon="10.106563136622594"><ele>179.5</ele><time>2026-05-04T17:04:03.002Z</time></trkpt><trkpt lat="45.59879211487306" lon="10.106626325452526"><ele>179.66666666666666</ele><time>2026-05-04T17:04:06.002Z</time></trkpt><trkpt lat="45.59886016254924" lon="10.106681306684225"><ele>179.83333333333334</ele><time>2026-05-04T17:04:09.002Z</time></trkpt><trkpt lat="45.59893121125763" lon="10.106735408990465"><ele>180.0</ele><time>2026-05-04T17:04:12.002Z</time></trkpt><trkpt lat="45.59898829055782" lon="10.10678826076423"><ele>179.66666666666666</ele><time>2026-05-04T17:04:15.002Z</time></trkpt><trkpt lat="45.599050910830755" lon="10.106834204051092"><ele>179.33333333333334</ele><time>2026-05-04T17:04:18.002Z</time></trkpt><trkpt lat="45.59910814914804" lon="10.10689206276192"><ele>179.0</ele><time>2026-05-04T17:04:21.002Z</time></trkpt><trkpt lat="45.59917613337252" lon="10.106945112103158"><ele>178.66666666666669</ele><time>2026-05-04T17:04:24.002Z</time></trkpt><trkpt lat="45.59925119135489" lon="10.106986371802009"><ele>178.33333333333334</ele><time>2026-05-04T17:04:27.002Z</time></trkpt><trkpt lat="45.59930251734812" lon="10.107056813655998"><ele>178.0</ele><time>2026-05-04T17:04:30.002Z</time></trkpt><trkpt lat="45.59936847973482" lon="10.10712403121292"><ele>178.0</ele><time>2026-05-04T17:04:33.002Z</time></trkpt><trkpt lat="45.599432012236754" lon="10.107184909221056"><ele>178.0</ele><time>2026-05-04T17:04:36.002Z</time></trkpt><trkpt lat="45.59949654979502" lon="10.107255933804634"><ele>178.0</ele><time>2026-05-04T17:04:39.002Z</time></trkpt><trkpt lat="45.59956550573367" lon="10.107302985697272"><ele>178.0</ele><time>2026-05-04T17:04:42.002Z</time></trkpt><trkpt lat="45.599624491442455" lon="10.107363140605077"><ele>178.0</ele><time>2026-05-04T17:04:45.002Z</time></trkpt><trkpt lat="45.599679524953146" lon="10.107423128313979"><ele>178.0</ele><time>2026-05-04T17:04:48.002Z</time></trkpt><trkpt lat="45.599746061781374" lon="10.10748251083688"><ele>178.5</ele><time>2026-05-04T17:04:51.002Z</time></trkpt><trkpt lat="45.599805466326295" lon="10.107542689300379"><ele>179.0</ele><time>2026-05-04T17:04:54.001Z</time></trkpt><trkpt lat="45.599869970114604" lon="10.107591517882689"><ele>179.5</ele><time>2026-05-04T17:04:57.001Z</time></trkpt><trkpt lat="45.59993729839396" lon="10.107637519341495"><ele>180.0</ele><time>2026-05-04T17:05:00.001Z</time></trkpt><trkpt lat="45.600009443185435" lon="10.10767741099063"><ele>180.5</ele><time>2026-05-04T17:05:03Z</time></trkpt><trkpt lat="45.600067993231335" lon="10.107738298070213"><ele>181.0</ele><time>2026-05-04T17:05:06Z</time></trkpt><trkpt lat="45.600145094074165" lon="10.107780973083148"><ele>181.0</ele><time>2026-05-04T17:05:09Z</time></trkpt><trkpt lat="45.60022199516555" lon="10.107820200735764"><ele>181.0</ele><time>2026-05-04T17:05:12Z</time></trkpt><trkpt lat="45.60028975510887" lon="10.107860583371465"><ele>181.0</ele><time>2026-05-04T17:05:15Z</time></trkpt><trkpt lat="45.60035964335382" lon="10.107902653347857"><ele>181.0</ele><time>2026-05-04T17:05:18Z</time></trkpt><trkpt lat="45.60043917441526" lon="10.10793375806658"><ele>181.0</ele><time>2026-05-04T17:05:21Z</time></trkpt><trkpt lat="45.60050619065168" lon="10.107988294055263"><ele>181.0</ele><time>2026-05-04T17:05:24Z</time></trkpt><trkpt lat="45.60057977011855" lon="10.108016004046203"><ele>180.66666666666669</ele><time>2026-05-04T17:05:27Z</time></trkpt><trkpt lat="45.6006561348543" lon="10.108051741456256"><ele>180.33333333333334</ele><time>2026-05-04T17:05:29.999Z</time></trkpt><trkpt lat="45.600726723046996" lon="10.108079656869084"><ele>180.0</ele><time>2026-05-04T17:05:32.999Z</time></trkpt><trkpt lat="45.60080374050326" lon="10.108109170300295"><ele>179.66666666666666</ele><time>2026-05-04T17:05:35.998Z</time></trkpt><trkpt lat="45.6008938204127" lon="10.108136050458464"><ele>179.33333333333331</ele><time>2026-05-04T17:05:38.999Z</time></trkpt><trkpt lat="45.60097553696939" lon="10.1081742200973"><ele>179.0</ele><time>2026-05-04T17:05:41.999Z</time></trkpt><trkpt lat="45.601052462712715" lon="10.10820860506284"><ele>179.00000000000003</ele><time>2026-05-04T17:05:44.999Z</time></trkpt><trkpt lat="45.60111841213299" lon="10.10825615772787"><ele>179.0</ele><time>2026-05-04T17:05:48Z</time></trkpt><trkpt lat="45.601178991229425" lon="10.108315740829628"><ele>179.0</ele><time>2026-05-04T17:05:51Z</time></trkpt><trkpt lat="45.60118251297921" lon="10.108413408019716"><ele>179.0</ele><time>2026-05-04T17:05:54Z</time></trkpt><trkpt lat="45.601173115685945" lon="10.10850441327891"><ele>179.0</ele><time>2026-05-04T17:05:57Z</time></trkpt><trkpt lat="45.60117243979033" lon="10.108606640560126"><ele>179.00000000000003</ele><time>2026-05-04T17:06:00Z</time></trkpt><trkpt lat="45.601176133510904" lon="10.108702659538556"><ele>179.0</ele><time>2026-05-04T17:06:03Z</time></trkpt><trkpt lat="45.60116845573579" lon="10.10880745443214"><ele>178.5</ele><time>2026-05-04T17:06:06Z</time></trkpt><trkpt lat="45.60116323549212" lon="10.108915974078593"><ele>178.0</ele><time>2026-05-04T17:06:09Z</time></trkpt><trkpt lat="45.601144199494165" lon="10.109015381224417"><ele>177.5</ele><time>2026-05-04T17:06:12Z</time></trkpt><trkpt lat="45.601128974418565" lon="10.109125060086667"><ele>177.0</ele><time>2026-05-04T17:06:15.001Z</time></trkpt><trkpt lat="45.601116845944034" lon="10.109237828954782"><ele>176.5</ele><time>2026-05-04T17:06:18.001Z</time></trkpt><trkpt lat="45.601108403700245" lon="10.109335185525001"><ele>176.0</ele><time>2026-05-04T17:06:21.001Z</time></trkpt><trkpt lat="45.60108351491864" lon="10.10945551409029"><ele>176.0</ele><time>2026-05-04T17:06:25.001Z</time></trkpt><trkpt lat="45.60106957404824" lon="10.109556339781493"><ele>176.0</ele><time>2026-05-04T17:06:28.001Z</time></trkpt><trkpt lat="45.60105039271187" lon="10.109663491214825"><ele>176.0</ele><time>2026-05-04T17:06:31.001Z</time></trkpt><trkpt lat="45.6010283246495" lon="10.1097786394658"><ele>176.0</ele><time>2026-05-04T17:06:34.001Z</time></trkpt><trkpt lat="45.60100855802294" lon="10.109869038063177"><ele>176.0</ele><time>2026-05-04T17:06:37.001Z</time></trkpt><trkpt lat="45.600999540590614" lon="10.109983194675502"><ele>176.0</ele><time>2026-05-04T17:06:40.001Z</time></trkpt><trkpt lat="45.6009775449487" lon="10.110090758960334"><ele>176.14285714285714</ele><time>2026-05-04T17:06:43.001Z</time></trkpt><trkpt lat="45.60096881751061" lon="10.110202017926738"><ele>176.28571428571428</ele><time>2026-05-04T17:06:46.001Z</time></trkpt><trkpt lat="45.60100461940342" lon="10.110295743397558"><ele>176.42857142857144</ele><time>2026-05-04T17:06:49.001Z</time></trkpt><trkpt lat="45.601057728149826" lon="10.110377386904341"><ele>176.57142857142856</ele><time>2026-05-04T17:06:53.001Z</time></trkpt><trkpt lat="45.60111705670402" lon="10.110447889564785"><ele>176.7142857142857</ele><time>2026-05-04T17:06:57.001Z</time></trkpt><trkpt lat="45.60117108439465" lon="10.11049486464884"><ele>176.85714285714286</ele><time>2026-05-04T17:07:00.001Z</time></trkpt><trkpt lat="45.60123710274127" lon="10.110547502811212"><ele>177.0</ele><time>2026-05-04T17:07:03.001Z</time></trkpt><trkpt lat="45.601312235145826" lon="10.110590255858265"><ele>177.66666666666666</ele><time>2026-05-04T17:07:06.001Z</time></trkpt><trkpt lat="45.60138988588533" lon="10.110641988294867"><ele>178.33333333333334</ele><time>2026-05-04T17:07:09.001Z</time></trkpt><trkpt lat="45.60146247583208" lon="10.11070411033687"><ele>179.0</ele><time>2026-05-04T17:07:12.001Z</time></trkpt><trkpt lat="45.60152540800461" lon="10.110761002471067"><ele>179.66666666666669</ele><time>2026-05-04T17:07:15.001Z</time></trkpt><trkpt lat="45.60159332879365" lon="10.110803853349699"><ele>180.33333333333334</ele><time>2026-05-04T17:07:18.001Z</time></trkpt><trkpt lat="45.60166436019005" lon="10.110844006341509"><ele>181.0</ele><time>2026-05-04T17:07:21.001Z</time></trkpt><trkpt lat="45.6017524404965" lon="10.110900621605209"><ele>181.0</ele><time>2026-05-04T17:07:25.001Z</time></trkpt><trkpt lat="45.60181932441026" lon="10.110947013871726"><ele>181.0</ele><time>2026-05-04T17:07:28.001Z</time></trkpt><trkpt lat="45.60188181086831" lon="10.110994556645535"><ele>181.0</ele><time>2026-05-04T17:07:31.001Z</time></trkpt><trkpt lat="45.60195269200293" lon="10.111051385731988"><ele>181.0</ele><time>2026-05-04T17:07:34.001Z</time></trkpt><trkpt lat="45.60201787147875" lon="10.11109658264659"><ele>181.0</ele><time>2026-05-04T17:07:37.001Z</time></trkpt><trkpt lat="45.602078097223476" lon="10.111146430006192"><ele>181.0</ele><time>2026-05-04T17:07:40.001Z</time></trkpt><trkpt lat="45.60213717619494" lon="10.111187468570137"><ele>181.0</ele><time>2026-05-04T17:07:43Z</time></trkpt><trkpt lat="45.60220126653848" lon="10.11125823451778"><ele>181.0</ele><time>2026-05-04T17:07:46Z</time></trkpt><trkpt lat="45.60227236696645" lon="10.111306005745982"><ele>181.0</ele><time>2026-05-04T17:07:49Z</time></trkpt><trkpt lat="45.60233324644833" lon="10.111348291774291"><ele>181.0</ele><time>2026-05-04T17:07:52Z</time></trkpt><trkpt lat="45.60239414967639" lon="10.111401221923495"><ele>181.0</ele><time>2026-05-04T17:07:55Z</time></trkpt><trkpt lat="45.602456279140625" lon="10.111462836951416"><ele>181.0</ele><time>2026-05-04T17:07:59Z</time></trkpt><trkpt lat="45.602516154023526" lon="10.111518120692137"><ele>181.0</ele><time>2026-05-04T17:08:02Z</time></trkpt><trkpt lat="45.602571522936906" lon="10.111562760489587"><ele>181.0</ele><time>2026-05-04T17:08:05Z</time></trkpt><trkpt lat="45.60263280595771" lon="10.111620262067536"><ele>180.85714285714286</ele><time>2026-05-04T17:08:10Z</time></trkpt><trkpt lat="45.60270163431824" lon="10.11167243220879"><ele>180.71428571428572</ele><time>2026-05-04T17:08:14Z</time></trkpt><trkpt lat="45.6027648842301" lon="10.111730566670644"><ele>180.57142857142856</ele><time>2026-05-04T17:08:18.001Z</time></trkpt><trkpt lat="45.60283188424722" lon="10.111793368408579"><ele>180.42857142857144</ele><time>2026-05-04T17:08:21.001Z</time></trkpt><trkpt lat="45.60288798837267" lon="10.11183418337074"><ele>180.2857142857143</ele><time>2026-05-04T17:08:23.001Z</time></trkpt><trkpt lat="45.60295309030065" lon="10.111895108918478"><ele>180.14285714285714</ele><time>2026-05-04T17:08:26.001Z</time></trkpt><trkpt lat="45.60301086037548" lon="10.111945183701831"><ele>180.0</ele><time>2026-05-04T17:08:29.001Z</time></trkpt><trkpt lat="45.603069011432716" lon="10.111984070243924"><ele>180.0</ele><time>2026-05-04T17:08:32.001Z</time></trkpt><trkpt lat="45.603130585080706" lon="10.112051844976316"><ele>180.0</ele><time>2026-05-04T17:08:35.001Z</time></trkpt><trkpt lat="45.60318983595052" lon="10.11210741198626"><ele>180.0</ele><time>2026-05-04T17:08:38.001Z</time></trkpt><trkpt lat="45.603254170497166" lon="10.112159496379313"><ele>180.0</ele><time>2026-05-04T17:08:41.001Z</time></trkpt><trkpt lat="45.60333118423974" lon="10.112193532915354"><ele>180.0</ele><time>2026-05-04T17:08:44.001Z</time></trkpt><trkpt lat="45.603401584911005" lon="10.11225551279488"><ele>180.0</ele><time>2026-05-04T17:08:47.001Z</time></trkpt><trkpt lat="45.60345914396113" lon="10.112322313424178"><ele>180.8</ele><time>2026-05-04T17:08:50.001Z</time></trkpt><trkpt lat="45.603689062935736" lon="10.11233885465351"><ele>181.6</ele><time>2026-05-04T17:08:58.001Z</time></trkpt><trkpt lat="45.60376954773189" lon="10.112317719039225"><ele>182.39999999999998</ele><time>2026-05-04T17:09:01.001Z</time></trkpt><trkpt lat="45.60383607029497" lon="10.112326878412125"><ele>183.2</ele><time>2026-05-04T17:09:03.001Z</time></trkpt><trkpt lat="45.60390063219116" lon="10.112348266250681"><ele>184.0</ele><time>2026-05-04T17:09:05.001Z</time></trkpt><trkpt lat="45.603970170020744" lon="10.112345578491167"><ele>184.0</ele><time>2026-05-04T17:09:07.001Z</time></trkpt><trkpt lat="45.604045013824" lon="10.11234382630921"><ele>184.0</ele><time>2026-05-04T17:09:09.001Z</time></trkpt><trkpt lat="45.604108250916504" lon="10.11233879014702"><ele>184.0</ele><time>2026-05-04T17:09:11.001Z</time></trkpt><trkpt lat="45.60418944486261" lon="10.112376182000993"><ele>184.0</ele><time>2026-05-04T17:09:14.001Z</time></trkpt><trkpt lat="45.60423807871781" lon="10.112443775728092"><ele>184.0</ele><time>2026-05-04T17:09:17.001Z</time></trkpt><trkpt lat="45.60428915800507" lon="10.112516855390734"><ele>184.0</ele><time>2026-05-04T17:09:20.001Z</time></trkpt><trkpt lat="45.60433860314106" lon="10.112595333360463"><ele>184.0</ele><time>2026-05-04T17:09:23.001Z</time></trkpt><trkpt lat="45.604379898337655" lon="10.112670044756705"><ele>183.83333333333334</ele><time>2026-05-04T17:09:26.001Z</time></trkpt><trkpt lat="45.60444108848753" lon="10.112737595493183"><ele>183.66666666666669</ele><time>2026-05-04T17:09:29.001Z</time></trkpt><trkpt lat="45.604494512799654" lon="10.11280677836973"><ele>183.5</ele><time>2026-05-04T17:09:32.001Z</time></trkpt><trkpt lat="45.60455843757481" lon="10.112871862338155"><ele>183.33333333333334</ele><time>2026-05-04T17:09:35.001Z</time></trkpt><trkpt lat="45.60461290162163" lon="10.112948712641618"><ele>183.16666666666666</ele><time>2026-05-04T17:09:38.001Z</time></trkpt><trkpt lat="45.60466517943353" lon="10.113029602496296"><ele>183.0</ele><time>2026-05-04T17:09:41.001Z</time></trkpt><trkpt lat="45.60471975584384" lon="10.113110487896149"><ele>183.0</ele><time>2026-05-04T17:09:44.001Z</time></trkpt><trkpt lat="45.6047606069156" lon="10.113200904819642"><ele>183.0</ele><time>2026-05-04T17:09:47Z</time></trkpt><trkpt lat="45.60480617617486" lon="10.11328772272206"><ele>183.0</ele><time>2026-05-04T17:09:50Z</time></trkpt><trkpt lat="45.604845762574875" lon="10.113378590755707"><ele>183.0</ele><time>2026-05-04T17:09:53Z</time></trkpt><trkpt lat="45.60489699619666" lon="10.113460262863512"><ele>183.0</ele><time>2026-05-04T17:09:56Z</time></trkpt><trkpt lat="45.604947975126976" lon="10.113546141462743"><ele>183.0</ele><time>2026-05-04T17:09:59Z</time></trkpt><trkpt lat="45.60498808224972" lon="10.113627793028595"><ele>182.83333333333334</ele><time>2026-05-04T17:10:02Z</time></trkpt><trkpt lat="45.60503226501476" lon="10.113723755818224"><ele>182.66666666666666</ele><time>2026-05-04T17:10:05Z</time></trkpt><trkpt lat="45.60508776992249" lon="10.113804894985453"><ele>182.5</ele><time>2026-05-04T17:10:08Z</time></trkpt><trkpt lat="45.60514996245005" lon="10.113881785643171"><ele>182.33333333333331</ele><time>2026-05-04T17:10:11Z</time></trkpt><trkpt lat="45.60520117542168" lon="10.113959993426727"><ele>182.16666666666666</ele><time>2026-05-04T17:10:14Z</time></trkpt><trkpt lat="45.60525237254677" lon="10.114025991028766"><ele>182.0</ele><time>2026-05-04T17:10:17Z</time></trkpt><trkpt lat="45.60530857827756" lon="10.11410258052591"><ele>182.66666666666666</ele><time>2026-05-04T17:10:20.001Z</time></trkpt><trkpt lat="45.605361064525674" lon="10.114177491603693"><ele>183.33333333333331</ele><time>2026-05-04T17:10:23.001Z</time></trkpt><trkpt lat="45.60540387016632" lon="10.114270890404965"><ele>184.0</ele><time>2026-05-04T17:10:26.001Z</time></trkpt><trkpt lat="45.60544214622989" lon="10.114367665203284"><ele>184.66666666666666</ele><time>2026-05-04T17:10:29.001Z</time></trkpt><trkpt lat="45.605478339671926" lon="10.114467681965586"><ele>185.33333333333334</ele><time>2026-05-04T17:10:32.001Z</time></trkpt><trkpt lat="45.60551174526536" lon="10.11456807599979"><ele>186.0</ele><time>2026-05-04T17:10:35.001Z</time></trkpt><trkpt lat="45.60553456961374" lon="10.114668301893621"><ele>186.00000000000003</ele><time>2026-05-04T17:10:38.001Z</time></trkpt><trkpt lat="45.60556147708817" lon="10.114768696341585"><ele>186.0</ele><time>2026-05-04T17:10:41.001Z</time></trkpt><trkpt lat="45.60559982476765" lon="10.114858576321012"><ele>186.0</ele><time>2026-05-04T17:10:44.001Z</time></trkpt><trkpt lat="45.60564033176036" lon="10.114947674255347"><ele>186.0</ele><time>2026-05-04T17:10:47.001Z</time></trkpt><trkpt lat="45.60568034900263" lon="10.115038399314486"><ele>186.0</ele><time>2026-05-04T17:10:50.001Z</time></trkpt><trkpt lat="45.60571886368331" lon="10.115130135382456"><ele>186.00000000000003</ele><time>2026-05-04T17:10:53.001Z</time></trkpt><trkpt lat="45.60576925521672" lon="10.115206795322678"><ele>186.0</ele><time>2026-05-04T17:10:56.001Z</time></trkpt><trkpt lat="45.60582817067356" lon="10.115279127089481"><ele>186.00000000000003</ele><time>2026-05-04T17:10:59.001Z</time></trkpt><trkpt lat="45.60589263181444" lon="10.115332581896606"><ele>186.0</ele><time>2026-05-04T17:11:02.001Z</time></trkpt><trkpt lat="45.60595919135256" lon="10.115380007146731"><ele>186.0</ele><time>2026-05-04T17:11:05.001Z</time></trkpt><trkpt lat="45.60602875989992" lon="10.11541799590764"><ele>186.0</ele><time>2026-05-04T17:11:08.001Z</time></trkpt><trkpt lat="45.606097310527964" lon="10.115454712528985"><ele>186.0</ele><time>2026-05-04T17:11:11.001Z</time></trkpt><trkpt lat="45.60616879601039" lon="10.115490903929356"><ele>186.00000000000003</ele><time>2026-05-04T17:11:14.001Z</time></trkpt><trkpt lat="45.606237559586056" lon="10.115534336833804"><ele>186.0</ele><time>2026-05-04T17:11:17.001Z</time></trkpt><trkpt lat="45.606312234620724" lon="10.115575950453227"><ele>186.2857142857143</ele><time>2026-05-04T17:11:20.001Z</time></trkpt><trkpt lat="45.60637055056049" lon="10.115637744981093"><ele>186.57142857142858</ele><time>2026-05-04T17:11:23.001Z</time></trkpt><trkpt lat="45.60642747686715" lon="10.115686249918577"><ele>186.85714285714286</ele><time>2026-05-04T17:11:26.001Z</time></trkpt><trkpt lat="45.60648344796957" lon="10.115741054693165"><ele>187.14285714285717</ele><time>2026-05-04T17:11:29.001Z</time></trkpt><trkpt lat="45.60654243782128" lon="10.115797014287528"><ele>187.42857142857142</ele><time>2026-05-04T17:11:32.001Z</time></trkpt><trkpt lat="45.60660234201568" lon="10.115848556026247"><ele>187.71428571428572</ele><time>2026-05-04T17:11:35.001Z</time></trkpt><trkpt lat="45.606666169437894" lon="10.11589902312568"><ele>188.0</ele><time>2026-05-04T17:11:38.001Z</time></trkpt><trkpt lat="45.60672547784005" lon="10.115944491623743"><ele>188.0</ele><time>2026-05-04T17:11:41.001Z</time></trkpt><trkpt lat="45.606784306113404" lon="10.115997166807915"><ele>188.0</ele><time>2026-05-04T17:11:44.001Z</time></trkpt><trkpt lat="45.60683522916262" lon="10.116054919611274"><ele>188.0</ele><time>2026-05-04T17:11:47.001Z</time></trkpt><trkpt lat="45.60689412642939" lon="10.116107867136142"><ele>188.0</ele><time>2026-05-04T17:11:50.001Z</time></trkpt><trkpt lat="45.60695941736854" lon="10.116152913868103"><ele>188.0</ele><time>2026-05-04T17:11:53Z</time></trkpt><trkpt lat="45.607023837495014" lon="10.116202578476823"><ele>188.0</ele><time>2026-05-04T17:11:56Z</time></trkpt><trkpt lat="45.60707957716904" lon="10.116257002498555"><ele>188.0</ele><time>2026-05-04T17:11:59Z</time></trkpt><trkpt lat="45.60713880510631" lon="10.116325089610063"><ele>188.33333333333331</ele><time>2026-05-04T17:12:02Z</time></trkpt><trkpt lat="45.60720679945297" lon="10.116378132281472"><ele>188.66666666666666</ele><time>2026-05-04T17:12:05Z</time></trkpt><trkpt lat="45.60726830665509" lon="10.11643502332976"><ele>189.0</ele><time>2026-05-04T17:12:08Z</time></trkpt><trkpt lat="45.60733231545416" lon="10.116501824037812"><ele>189.33333333333334</ele><time>2026-05-04T17:12:11Z</time></trkpt><trkpt lat="45.607400507885885" lon="10.116557074037003"><ele>189.66666666666669</ele><time>2026-05-04T17:12:14Z</time></trkpt><trkpt lat="45.607482371265654" lon="10.116582028448832"><ele>190.0</ele><time>2026-05-04T17:12:17Z</time></trkpt><trkpt lat="45.60755422603353" lon="10.116615740613051"><ele>190.33333333333334</ele><time>2026-05-04T17:12:20Z</time></trkpt><trkpt lat="45.607623044963844" lon="10.116660170048497"><ele>190.66666666666669</ele><time>2026-05-04T17:12:23Z</time></trkpt><trkpt lat="45.607694757271034" lon="10.116708095584185"><ele>191.0</ele><time>2026-05-04T17:12:26.001Z</time></trkpt><trkpt lat="45.60776361806236" lon="10.116764008697146"><ele>191.33333333333334</ele><time>2026-05-04T17:12:29.001Z</time></trkpt><trkpt lat="45.60783148422258" lon="10.116810620513098"><ele>191.66666666666666</ele><time>2026-05-04T17:12:32.001Z</time></trkpt><trkpt lat="45.607901585615956" lon="10.116828745170924"><ele>192.0</ele><time>2026-05-04T17:12:34.001Z</time></trkpt><trkpt lat="45.607969352644794" lon="10.116880242068623"><ele>192.83333333333334</ele><time>2026-05-04T17:12:37.001Z</time></trkpt><trkpt lat="45.608032196856705" lon="10.116932011817024"><ele>193.66666666666669</ele><time>2026-05-04T17:12:40.001Z</time></trkpt><trkpt lat="45.60808034043181" lon="10.117027238265162"><ele>194.5</ele><time>2026-05-04T17:12:44.001Z</time></trkpt><trkpt lat="45.60813559731052" lon="10.11708325903399"><ele>195.33333333333334</ele><time>2026-05-04T17:12:47.001Z</time></trkpt><trkpt lat="45.6082124248595" lon="10.117124855019684"><ele>196.16666666666669</ele><time>2026-05-04T17:12:50.001Z</time></trkpt><trkpt lat="45.60829360494369" lon="10.117143387238709"><ele>197.0</ele><time>2026-05-04T17:12:53.001Z</time></trkpt><trkpt lat="45.608372997074675" lon="10.117168589509237"><ele>197.0</ele><time>2026-05-04T17:12:56.001Z</time></trkpt><trkpt lat="45.60843947813657" lon="10.117197421296321"><ele>197.0</ele><time>2026-05-04T17:12:59.001Z</time></trkpt><trkpt lat="45.6085004056613" lon="10.117247717048771"><ele>197.0</ele><time>2026-05-04T17:13:02.001Z</time></trkpt><trkpt lat="45.60854307268959" lon="10.117353981237127"><ele>197.0</ele><time>2026-05-04T17:13:05.001Z</time></trkpt><trkpt lat="45.60855001488933" lon="10.117446460727633"><ele>197.0</ele><time>2026-05-04T17:13:07.001Z</time></trkpt><trkpt lat="45.60856556363045" lon="10.117539284858763"><ele>197.0</ele><time>2026-05-04T17:13:10.001Z</time></trkpt><trkpt lat="45.60857104251349" lon="10.117637601178744"><ele>197.0</ele><time>2026-05-04T17:13:13.001Z</time></trkpt><trkpt lat="45.608588039643095" lon="10.117742319265586"><ele>197.00000000000003</ele><time>2026-05-04T17:13:16.001Z</time></trkpt><trkpt lat="45.608584949408446" lon="10.117867269850489"><ele>197.0</ele><time>2026-05-04T17:13:19.001Z</time></trkpt><trkpt lat="45.60858633013629" lon="10.11797504971294"><ele>197.0</ele><time>2026-05-04T17:13:22.001Z</time></trkpt><trkpt lat="45.608581977969166" lon="10.118084225980457"><ele>197.0</ele><time>2026-05-04T17:13:25.001Z</time></trkpt><trkpt lat="45.608578141171165" lon="10.118186997426957"><ele>197.00000000000003</ele><time>2026-05-04T17:13:28.001Z</time></trkpt><trkpt lat="45.608569842681725" lon="10.118289206846148"><ele>197.0</ele><time>2026-05-04T17:13:31.001Z</time></trkpt><trkpt lat="45.60856082795309" lon="10.118393259109393"><ele>196.50000000000003</ele><time>2026-05-04T17:13:34.001Z</time></trkpt><trkpt lat="45.60855282241093" lon="10.11850045645376"><ele>196.0</ele><time>2026-05-04T17:13:37.001Z</time></trkpt><trkpt lat="45.60853681203642" lon="10.118605913641401"><ele>195.5</ele><time>2026-05-04T17:13:40.001Z</time></trkpt><trkpt lat="45.608514939078546" lon="10.118718613577363"><ele>195.0</ele><time>2026-05-04T17:13:43.001Z</time></trkpt><trkpt lat="45.60847104093755" lon="10.11880897288185"><ele>194.50000000000003</ele><time>2026-05-04T17:13:46.001Z</time></trkpt><trkpt lat="45.608400672502604" lon="10.118875227741567"><ele>194.0</ele><time>2026-05-04T17:13:49.001Z</time></trkpt><trkpt lat="45.60833136786993" lon="10.118897670671657"><ele>194.0</ele><time>2026-05-04T17:13:52.001Z</time></trkpt><trkpt lat="45.60827838335767" lon="10.118953265835739"><ele>194.0</ele><time>2026-05-04T17:13:56.001Z</time></trkpt><trkpt lat="45.60826407401696" lon="10.119041235244547"><ele>194.0</ele><time>2026-05-04T17:13:59Z</time></trkpt><trkpt lat="45.60829601228654" lon="10.119174869604844"><ele>194.0</ele><time>2026-05-04T17:14:02Z</time></trkpt><trkpt lat="45.60832078145109" lon="10.119273963257816"><ele>194.0</ele><time>2026-05-04T17:14:05Z</time></trkpt><trkpt lat="45.6083592332887" lon="10.119360756043594"><ele>194.0</ele><time>2026-05-04T17:14:08Z</time></trkpt><trkpt lat="45.60840163897393" lon="10.119440849983373"><ele>194.0</ele><time>2026-05-04T17:14:11Z</time></trkpt><trkpt lat="45.60840674092457" lon="10.11954260020964"><ele>193.57142857142856</ele><time>2026-05-04T17:14:14Z</time></trkpt><trkpt lat="45.60837533978327" lon="10.119640466284688"><ele>193.14285714285717</ele><time>2026-05-04T17:14:17Z</time></trkpt><trkpt lat="45.60829932083029" lon="10.119652279574046"><ele>192.71428571428572</ele><time>2026-05-04T17:14:20Z</time></trkpt><trkpt lat="45.6082264877161" lon="10.11962451461007"><ele>192.28571428571428</ele><time>2026-05-04T17:14:23Z</time></trkpt><trkpt lat="45.608164578511754" lon="10.11958072995894"><ele>191.85714285714283</ele><time>2026-05-04T17:14:26Z</time></trkpt><trkpt lat="45.608096304473754" lon="10.119536030395873"><ele>191.42857142857144</ele><time>2026-05-04T17:14:29Z</time></trkpt><trkpt lat="45.6080353047807" lon="10.119481585421363"><ele>191.0</ele><time>2026-05-04T17:14:32Z</time></trkpt><trkpt lat="45.60797831550799" lon="10.119443293923572"><ele>191.0</ele><time>2026-05-04T17:14:35.001Z</time></trkpt><trkpt lat="45.607908662213816" lon="10.119394793625634"><ele>191.0</ele><time>2026-05-04T17:14:38.001Z</time></trkpt><trkpt lat="45.607830179935384" lon="10.11936308176095"><ele>191.0</ele><time>2026-05-04T17:14:41.001Z</time></trkpt><trkpt lat="45.6077581857581" lon="10.11933048030529"><ele>191.0</ele><time>2026-05-04T17:14:44.001Z</time></trkpt><trkpt lat="45.607685740560285" lon="10.119288309861806"><ele>191.0</ele><time>2026-05-04T17:14:47.001Z</time></trkpt><trkpt lat="45.60760840324873" lon="10.119253678797117"><ele>191.0</ele><time>2026-05-04T17:14:50.001Z</time></trkpt><trkpt lat="45.60754241267393" lon="10.119216364235657"><ele>191.33333333333331</ele><time>2026-05-04T17:14:53.001Z</time></trkpt><trkpt lat="45.607471065080496" lon="10.119187890838653"><ele>191.66666666666666</ele><time>2026-05-04T17:14:56.001Z</time></trkpt><trkpt lat="45.60739750035792" lon="10.119160232703086"><ele>192.0</ele><time>2026-05-04T17:14:59.001Z</time></trkpt><trkpt lat="45.607324365537046" lon="10.11913498350867"><ele>192.33333333333331</ele><time>2026-05-04T17:15:02.001Z</time></trkpt><trkpt lat="45.607245773415514" lon="10.119131398120333"><ele>192.66666666666666</ele><time>2026-05-04T17:15:05.001Z</time></trkpt><trkpt lat="45.60717497344223" lon="10.119114286764061"><ele>193.0</ele><time>2026-05-04T17:15:08.001Z</time></trkpt><trkpt lat="45.60709938004452" lon="10.119087594858978"><ele>193.00000000000003</ele><time>2026-05-04T17:15:11.001Z</time></trkpt><trkpt lat="45.607031965449785" lon="10.119044415444552"><ele>193.0</ele><time>2026-05-04T17:15:14.001Z</time></trkpt><trkpt lat="45.60697464646189" lon="10.11898577650582"><ele>193.0</ele><time>2026-05-04T17:15:17.001Z</time></trkpt><trkpt lat="45.60692330603037" lon="10.118919771505718"><ele>193.0</ele><time>2026-05-04T17:15:20.001Z</time></trkpt><trkpt lat="45.60687100502088" lon="10.118850457671048"><ele>193.0</ele><time>2026-05-04T17:15:23.001Z</time></trkpt><trkpt lat="45.606811864852666" lon="10.118779260848733"><ele>193.00000000000003</ele><time>2026-05-04T17:15:26.001Z</time></trkpt><trkpt lat="45.60675089031173" lon="10.118711631442244"><ele>193.0</ele><time>2026-05-04T17:15:29.001Z</time></trkpt><trkpt lat="45.6066956639154" lon="10.118644275906526"><ele>192.99999999999997</ele><time>2026-05-04T17:15:32.001Z</time></trkpt><trkpt lat="45.60662994860474" lon="10.118583339266769"><ele>193.0</ele><time>2026-05-04T17:15:35.001Z</time></trkpt><trkpt lat="45.606554017708966" lon="10.118543395787992"><ele>193.0</ele><time>2026-05-04T17:15:38.001Z</time></trkpt><trkpt lat="45.60647900335545" lon="10.118532837550276"><ele>193.0</ele><time>2026-05-04T17:15:41.001Z</time></trkpt><trkpt lat="45.60643015707097" lon="10.118444014937907"><ele>192.99999999999997</ele><time>2026-05-04T17:15:44.001Z</time></trkpt><trkpt lat="45.6063801251263" lon="10.118343179703668"><ele>193.0</ele><time>2026-05-04T17:15:47.001Z</time></trkpt><trkpt lat="45.606332857934326" lon="10.118241741864802"><ele>192.49999999999997</ele><time>2026-05-04T17:15:50.001Z</time></trkpt><trkpt lat="45.606268308538" lon="10.118164967890056"><ele>192.0</ele><time>2026-05-04T17:15:53.001Z</time></trkpt><trkpt lat="45.606215648234276" lon="10.118085239164763"><ele>191.5</ele><time>2026-05-04T17:15:56.001Z</time></trkpt><trkpt lat="45.60615509506418" lon="10.118014005980825"><ele>191.0</ele><time>2026-05-04T17:15:59.001Z</time></trkpt><trkpt lat="45.606092610768506" lon="10.117937976804173"><ele>190.5</ele><time>2026-05-04T17:16:02.001Z</time></trkpt><trkpt lat="45.60603649717448" lon="10.11786253668064"><ele>190.0</ele><time>2026-05-04T17:16:05.001Z</time></trkpt><trkpt lat="45.60598018420991" lon="10.117777903616544"><ele>190.0</ele><time>2026-05-04T17:16:08.001Z</time></trkpt><trkpt lat="45.60592423150003" lon="10.117690269514762"><ele>190.0</ele><time>2026-05-04T17:16:11.001Z</time></trkpt><trkpt lat="45.60588031332734" lon="10.117619870307315"><ele>190.0</ele><time>2026-05-04T17:16:13.001Z</time></trkpt><trkpt lat="45.60582717825862" lon="10.11752840048665"><ele>190.0</ele><time>2026-05-04T17:16:16.001Z</time></trkpt><trkpt lat="45.60577772134258" lon="10.117444527962578"><ele>190.0</ele><time>2026-05-04T17:16:19.001Z</time></trkpt><trkpt lat="45.60572047436243" lon="10.117379118708632"><ele>190.0</ele><time>2026-05-04T17:16:22.001Z</time></trkpt><trkpt lat="45.60565595214898" lon="10.117349921378512"><ele>190.42857142857144</ele><time>2026-05-04T17:16:25.001Z</time></trkpt><trkpt lat="45.60560457183851" lon="10.117278675530423"><ele>190.85714285714286</ele><time>2026-05-04T17:16:28.001Z</time></trkpt><trkpt lat="45.60558815738509" lon="10.117168209685879"><ele>191.28571428571428</ele><time>2026-05-04T17:16:32.001Z</time></trkpt><trkpt lat="45.605565788605034" lon="10.117080641063962"><ele>191.71428571428572</ele><time>2026-05-04T17:16:35.001Z</time></trkpt><trkpt lat="45.60554911389159" lon="10.116987407352319"><ele>192.14285714285714</ele><time>2026-05-04T17:16:38.001Z</time></trkpt><trkpt lat="45.60558998226651" lon="10.116873023086352"><ele>192.57142857142858</ele><time>2026-05-04T17:16:41.001Z</time></trkpt><trkpt lat="45.60564328214021" lon="10.116810142505212"><ele>193.0</ele><time>2026-05-04T17:16:43.001Z</time></trkpt><trkpt lat="45.60569326338237" lon="10.116716453430353"><ele>192.99999999999997</ele><time>2026-05-04T17:16:46.001Z</time></trkpt><trkpt lat="45.60569950701705" lon="10.116625537915588"><ele>193.0</ele><time>2026-05-04T17:16:49.001Z</time></trkpt><trkpt lat="45.605660216577924" lon="10.116526770202018"><ele>193.0</ele><time>2026-05-04T17:16:52.001Z</time></trkpt><trkpt lat="45.60565334878083" lon="10.116430652546297"><ele>193.0</ele><time>2026-05-04T17:16:55.001Z</time></trkpt><trkpt lat="45.60563487880894" lon="10.116302358019803"><ele>192.99999999999997</ele><time>2026-05-04T17:16:59.001Z</time></trkpt><trkpt lat="45.605581765117954" lon="10.116211469280703"><ele>193.0</ele><time>2026-05-04T17:17:02.001Z</time></trkpt><trkpt lat="45.605500198176095" lon="10.11615145500553"><ele>192.83333333333331</ele><time>2026-05-04T17:17:05.001Z</time></trkpt><trkpt lat="45.605431607461995" lon="10.116098518572032"><ele>192.66666666666666</ele><time>2026-05-04T17:17:08.001Z</time></trkpt><trkpt lat="45.60536758989718" lon="10.116030833579936"><ele>192.5</ele><time>2026-05-04T17:17:11.001Z</time></trkpt><trkpt lat="45.60531081675162" lon="10.115947029460811"><ele>192.33333333333331</ele><time>2026-05-04T17:17:14.001Z</time></trkpt><trkpt lat="45.60526361239926" lon="10.115838752822793"><ele>192.16666666666666</ele><time>2026-05-04T17:17:17.002Z</time></trkpt><trkpt lat="45.60525066408547" lon="10.1157493778316"><ele>192.0</ele><time>2026-05-04T17:17:19.002Z</time></trkpt><trkpt lat="45.60520545471587" lon="10.115636316439925"><ele>192.0</ele><time>2026-05-04T17:17:22.002Z</time></trkpt><trkpt lat="45.60517832554985" lon="10.115523630387742"><ele>192.0</ele><time>2026-05-04T17:17:25.002Z</time></trkpt><trkpt lat="45.60515264308576" lon="10.115414924289006"><ele>192.0</ele><time>2026-05-04T17:17:28.002Z</time></trkpt><trkpt lat="45.60510360944516" lon="10.115324602376347"><ele>192.0</ele><time>2026-05-04T17:17:31.002Z</time></trkpt><trkpt lat="45.60505064822989" lon="10.115228310579514"><ele>192.0</ele><time>2026-05-04T17:17:34.002Z</time></trkpt><trkpt lat="45.60499111253406" lon="10.115156300455787"><ele>192.0</ele><time>2026-05-04T17:17:37.002Z</time></trkpt><trkpt lat="45.604937699322306" lon="10.115086647642613"><ele>192.0</ele><time>2026-05-04T17:17:40.002Z</time></trkpt><trkpt lat="45.604875381621" lon="10.115011870903807"><ele>192.0</ele><time>2026-05-04T17:17:43.002Z</time></trkpt><trkpt lat="45.60482315348878" lon="10.114924004607701"><ele>192.0</ele><time>2026-05-04T17:17:46.002Z</time></trkpt><trkpt lat="45.604754655952036" lon="10.114868934886823"><ele>192.0</ele><time>2026-05-04T17:17:49.002Z</time></trkpt><trkpt lat="45.60469365679415" lon="10.114795923249632"><ele>192.0</ele><time>2026-05-04T17:17:52.002Z</time></trkpt><trkpt lat="45.604627936647596" lon="10.114729073490476"><ele>192.0</ele><time>2026-05-04T17:17:55.002Z</time></trkpt><trkpt lat="45.60456813513749" lon="10.114658137291093"><ele>190.83333333333334</ele><time>2026-05-04T17:17:58.002Z</time></trkpt><trkpt lat="45.60451767299409" lon="10.114556424633772"><ele>189.66666666666666</ele><time>2026-05-04T17:18:01.002Z</time></trkpt><trkpt lat="45.60448325882016" lon="10.11445287609777"><ele>188.5</ele><time>2026-05-04T17:18:04.002Z</time></trkpt><trkpt lat="45.60446154074494" lon="10.114345843847916"><ele>187.33333333333331</ele><time>2026-05-04T17:18:07.002Z</time></trkpt><trkpt lat="45.60440260370838" lon="10.114270139922505"><ele>186.16666666666666</ele><time>2026-05-04T17:18:10.002Z</time></trkpt><trkpt lat="45.604316283645716" lon="10.114269279001881"><ele>185.0</ele><time>2026-05-04T17:18:13.002Z</time></trkpt><trkpt lat="45.60423933973991" lon="10.114235904250227"><ele>185.0</ele><time>2026-05-04T17:18:16.002Z</time></trkpt><trkpt lat="45.604168996086486" lon="10.114170657721626"><ele>185.0</ele><time>2026-05-04T17:18:19.002Z</time></trkpt><trkpt lat="45.60410628728035" lon="10.114103603487509"><ele>185.0</ele><time>2026-05-04T17:18:22.002Z</time></trkpt><trkpt lat="45.60404663133712" lon="10.114029875430976"><ele>185.0</ele><time>2026-05-04T17:18:25.002Z</time></trkpt><trkpt lat="45.60397922682726" lon="10.1139678185002"><ele>185.0</ele><time>2026-05-04T17:18:28.002Z</time></trkpt><trkpt lat="45.60391298171316" lon="10.11391443007571"><ele>185.0</ele><time>2026-05-04T17:18:31.002Z</time></trkpt><trkpt lat="45.60384714284245" lon="10.113841082429882"><ele>184.5</ele><time>2026-05-04T17:18:34.002Z</time></trkpt><trkpt lat="45.60377939349764" lon="10.11377923804161"><ele>184.0</ele><time>2026-05-04T17:18:37.002Z</time></trkpt><trkpt lat="45.60371535897629" lon="10.113721008754085"><ele>183.5</ele><time>2026-05-04T17:18:40.002Z</time></trkpt><trkpt lat="45.60364246029199" lon="10.113646895377382"><ele>183.0</ele><time>2026-05-04T17:18:43.002Z</time></trkpt><trkpt lat="45.60357202465447" lon="10.113578583133828"><ele>182.5</ele><time>2026-05-04T17:18:46.002Z</time></trkpt><trkpt lat="45.603503921289864" lon="10.11350179668124"><ele>182.0</ele><time>2026-05-04T17:18:49.002Z</time></trkpt><trkpt lat="45.60344557073237" lon="10.113431219447344"><ele>181.66666666666666</ele><time>2026-05-04T17:18:52.002Z</time></trkpt><trkpt lat="45.6033851624356" lon="10.113366155476319"><ele>181.33333333333331</ele><time>2026-05-04T17:18:55.002Z</time></trkpt><trkpt lat="45.60331182369528" lon="10.113302494206332"><ele>181.0</ele><time>2026-05-04T17:18:58.002Z</time></trkpt><trkpt lat="45.60323550489964" lon="10.113242629231301"><ele>180.66666666666666</ele><time>2026-05-04T17:19:01.002Z</time></trkpt><trkpt lat="45.60316117633956" lon="10.113176832424502"><ele>180.33333333333334</ele><time>2026-05-04T17:19:04.002Z</time></trkpt><trkpt lat="45.60310067154469" lon="10.113102103807195"><ele>180.0</ele><time>2026-05-04T17:19:07.002Z</time></trkpt><trkpt lat="45.603031101347355" lon="10.113039948819239"><ele>179.66666666666666</ele><time>2026-05-04T17:19:10.002Z</time></trkpt><trkpt lat="45.60296322948733" lon="10.112973388585365"><ele>179.33333333333334</ele><time>2026-05-04T17:19:13.002Z</time></trkpt><trkpt lat="45.60290308637423" lon="10.112910065700596"><ele>179.0</ele><time>2026-05-04T17:19:16.002Z</time></trkpt><trkpt lat="45.602838905635906" lon="10.112834638518864"><ele>178.66666666666669</ele><time>2026-05-04T17:19:19.002Z</time></trkpt><trkpt lat="45.60278413825774" lon="10.112780237983955"><ele>178.33333333333334</ele><time>2026-05-04T17:19:22.002Z</time></trkpt><trkpt lat="45.60272401272809" lon="10.11271517940011"><ele>178.0</ele><time>2026-05-04T17:19:25.002Z</time></trkpt><trkpt lat="45.60265287634722" lon="10.112664914174688"><ele>179.0</ele><time>2026-05-04T17:19:28.002Z</time></trkpt><trkpt lat="45.60259067769502" lon="10.112611627063524"><ele>180.0</ele><time>2026-05-04T17:19:31.002Z</time></trkpt><trkpt lat="45.60252438810059" lon="10.11253870162539"><ele>181.0</ele><time>2026-05-04T17:19:34.002Z</time></trkpt><trkpt lat="45.602467859297995" lon="10.11246713318096"><ele>182.0</ele><time>2026-05-04T17:19:37.002Z</time></trkpt><trkpt lat="45.602433387098955" lon="10.11238532776131"><ele>183.0</ele><time>2026-05-04T17:19:40.002Z</time></trkpt><trkpt lat="45.60238129195109" lon="10.112285031266586"><ele>184.0</ele><time>2026-05-04T17:19:43.002Z</time></trkpt><trkpt lat="45.60233956687719" lon="10.11217346774784"><ele>184.0</ele><time>2026-05-04T17:19:46.002Z</time></trkpt><trkpt lat="45.60229405433702" lon="10.112081553589999"><ele>184.0</ele><time>2026-05-04T17:19:49.002Z</time></trkpt><trkpt lat="45.60224870821704" lon="10.112001659940537"><ele>184.0</ele><time>2026-05-04T17:19:52.002Z</time></trkpt><trkpt lat="45.602188748254676" lon="10.111921562333224"><ele>184.0</ele><time>2026-05-04T17:19:55.002Z</time></trkpt><trkpt lat="45.60213289812653" lon="10.111846376794363"><ele>184.0</ele><time>2026-05-04T17:19:58.003Z</time></trkpt><trkpt lat="45.602074229361826" lon="10.11177884843573"><ele>184.0</ele><time>2026-05-04T17:20:01.003Z</time></trkpt><trkpt lat="45.60201337198024" lon="10.111711083674114"><ele>183.85714285714286</ele><time>2026-05-04T17:20:04.003Z</time></trkpt><trkpt lat="45.60195468520921" lon="10.111649588273766"><ele>183.7142857142857</ele><time>2026-05-04T17:20:07.003Z</time></trkpt><trkpt lat="45.60191121887608" lon="10.111573151171925"><ele>183.57142857142856</ele><time>2026-05-04T17:20:10.003Z</time></trkpt><trkpt lat="45.60184632516905" lon="10.1115155142176"><ele>183.42857142857144</ele><time>2026-05-04T17:20:13.003Z</time></trkpt><trkpt lat="45.60177784370444" lon="10.11148439608507"><ele>183.28571428571428</ele><time>2026-05-04T17:20:16.003Z</time></trkpt><trkpt lat="45.601694657203176" lon="10.11146762083305"><ele>183.14285714285714</ele><time>2026-05-04T17:20:20.003Z</time></trkpt><trkpt lat="45.60162445905641" lon="10.111432503792052"><ele>183.0</ele><time>2026-05-04T17:20:23.003Z</time></trkpt><trkpt lat="45.60155123617176" lon="10.11139562140734"><ele>183.0</ele><time>2026-05-04T17:20:26.003Z</time></trkpt><trkpt lat="45.60148548325639" lon="10.11134734025707"><ele>183.0</ele><time>2026-05-04T17:20:29.003Z</time></trkpt><trkpt lat="45.601441823522684" lon="10.111243209780824"><ele>183.0</ele><time>2026-05-04T17:20:32.003Z</time></trkpt><trkpt lat="45.60141572590325" lon="10.111128757672645"><ele>183.0</ele><time>2026-05-04T17:20:35.003Z</time></trkpt><trkpt lat="45.601367547339116" lon="10.111039713726935"><ele>183.0</ele><time>2026-05-04T17:20:38.003Z</time></trkpt><trkpt lat="45.60131449010903" lon="10.110960323068538"><ele>183.0</ele><time>2026-05-04T17:20:41.003Z</time></trkpt><trkpt lat="45.60127232174876" lon="10.110862652499918"><ele>183.0</ele><time>2026-05-04T17:20:44.003Z</time></trkpt><trkpt lat="45.60121091857586" lon="10.110787113851881"><ele>183.0</ele><time>2026-05-04T17:20:47.003Z</time></trkpt><trkpt lat="45.60116253573763" lon="10.110711449821636"><ele>183.0</ele><time>2026-05-04T17:20:50.003Z</time></trkpt><trkpt lat="45.6010899165" lon="10.110663959370653"><ele>183.0</ele><time>2026-05-04T17:20:53.003Z</time></trkpt><trkpt lat="45.601017623822706" lon="10.110640635656134"><ele>183.0</ele><time>2026-05-04T17:20:56.003Z</time></trkpt><trkpt lat="45.60094959438845" lon="10.110623163007501"><ele>183.0</ele><time>2026-05-04T17:20:59.003Z</time></trkpt><trkpt lat="45.60086355613383" lon="10.110612076145737"><ele>182.0</ele><time>2026-05-04T17:21:02.003Z</time></trkpt><trkpt lat="45.600792503613675" lon="10.11058813059416"><ele>181.0</ele><time>2026-05-04T17:21:05.003Z</time></trkpt><trkpt lat="45.6007172467966" lon="10.110576964341393"><ele>180.0</ele><time>2026-05-04T17:21:08.003Z</time></trkpt><trkpt lat="45.600641242280325" lon="10.110566909178194"><ele>179.0</ele><time>2026-05-04T17:21:11.003Z</time></trkpt><trkpt lat="45.6005707847771" lon="10.110573768707155"><ele>178.0</ele><time>2026-05-04T17:21:14.003Z</time></trkpt><trkpt lat="45.60049458085632" lon="10.110584883835225"><ele>177.0</ele><time>2026-05-04T17:21:17.003Z</time></trkpt><trkpt lat="45.60040884908262" lon="10.110576214362098"><ele>177.16666666666666</ele><time>2026-05-04T17:21:20.003Z</time></trkpt><trkpt lat="45.60031837873533" lon="10.110575572557902"><ele>177.33333333333334</ele><time>2026-05-04T17:21:23.003Z</time></trkpt><trkpt lat="45.60025357610845" lon="10.110592121818618"><ele>177.5</ele><time>2026-05-04T17:21:25.003Z</time></trkpt><trkpt lat="45.60017211804525" lon="10.110611268240238"><ele>177.66666666666669</ele><time>2026-05-04T17:21:28.003Z</time></trkpt><trkpt lat="45.60009565909761" lon="10.110637705930017"><ele>177.83333333333334</ele><time>2026-05-04T17:21:31.003Z</time></trkpt><trkpt lat="45.60001659594217" lon="10.110672926971978"><ele>178.0</ele><time>2026-05-04T17:21:34.003Z</time></trkpt><trkpt lat="45.59995063355103" lon="10.110731070924471"><ele>177.99999999999997</ele><time>2026-05-04T17:21:37.003Z</time></trkpt><trkpt lat="45.59989375337513" lon="10.110786380273689"><ele>178.0</ele><time>2026-05-04T17:21:40.003Z</time></trkpt><trkpt lat="45.599838561240816" lon="10.110865394767236"><ele>178.0</ele><time>2026-05-04T17:21:43.003Z</time></trkpt><trkpt lat="45.599790753782905" lon="10.110951256365912"><ele>178.0</ele><time>2026-05-04T17:21:46.003Z</time></trkpt><trkpt lat="45.59974901570018" lon="10.111034476460508"><ele>178.0</ele><time>2026-05-04T17:21:49.003Z</time></trkpt><trkpt lat="45.59970930799683" lon="10.11111637227029"><ele>177.99999999999997</ele><time>2026-05-04T17:21:52.003Z</time></trkpt><trkpt lat="45.59965760592707" lon="10.111202617052463"><ele>178.0</ele><time>2026-05-04T17:21:55.003Z</time></trkpt><trkpt lat="45.59961209460607" lon="10.111278536994487"><ele>177.99999999999997</ele><time>2026-05-04T17:21:58.003Z</time></trkpt><trkpt lat="45.599566037128334" lon="10.111354222233693"><ele>178.0</ele><time>2026-05-04T17:22:01.003Z</time></trkpt><trkpt lat="45.59950346935342" lon="10.1114142765112"><ele>178.0</ele><time>2026-05-04T17:22:04.003Z</time></trkpt><trkpt lat="45.599438106063516" lon="10.111446484129265"><ele>178.0</ele><time>2026-05-04T17:22:07.003Z</time></trkpt><trkpt lat="45.59936944402747" lon="10.111464826673707"><ele>178.0</ele><time>2026-05-04T17:22:10.003Z</time></trkpt><trkpt lat="45.59930569672704" lon="10.111480254132868"><ele>177.99999999999997</ele><time>2026-05-04T17:22:13.003Z</time></trkpt><trkpt lat="45.59922988019831" lon="10.111488615019859"><ele>178.0</ele><time>2026-05-04T17:22:16.003Z</time></trkpt><trkpt lat="45.59915729035669" lon="10.111509399673569"><ele>177.57142857142856</ele><time>2026-05-04T17:22:19.003Z</time></trkpt><trkpt lat="45.59909081598221" lon="10.111514979583957"><ele>177.14285714285714</ele><time>2026-05-04T17:22:22.003Z</time></trkpt><trkpt lat="45.59902128178149" lon="10.111511191602707"><ele>176.71428571428572</ele><time>2026-05-04T17:22:25.003Z</time></trkpt><trkpt lat="45.59894517457487" lon="10.111505304726256"><ele>176.28571428571428</ele><time>2026-05-04T17:22:28.003Z</time></trkpt><trkpt lat="45.598878664487245" lon="10.111471119496212"><ele>175.85714285714286</ele><time>2026-05-04T17:22:31.003Z</time></trkpt><trkpt lat="45.59880708657508" lon="10.111447651134897"><ele>175.42857142857142</ele><time>2026-05-04T17:22:34.003Z</time></trkpt><trkpt lat="45.59874213456933" lon="10.111416953441044"><ele>175.0</ele><time>2026-05-04T17:22:37.003Z</time></trkpt><trkpt lat="45.59867098001144" lon="10.111370564889107"><ele>174.85714285714286</ele><time>2026-05-04T17:22:40.004Z</time></trkpt><trkpt lat="45.598609632525374" lon="10.111324802608161"><ele>174.71428571428572</ele><time>2026-05-04T17:22:43.004Z</time></trkpt><trkpt lat="45.59853795868126" lon="10.111274862620201"><ele>174.57142857142856</ele><time>2026-05-04T17:22:47.004Z</time></trkpt><trkpt lat="45.59847305854721" lon="10.111227111396161"><ele>174.42857142857144</ele><time>2026-05-04T17:22:50.004Z</time></trkpt><trkpt lat="45.59840685692295" lon="10.111184083015987"><ele>174.28571428571428</ele><time>2026-05-04T17:22:53.004Z</time></trkpt><trkpt lat="45.59834546880008" lon="10.111132021823462"><ele>174.14285714285714</ele><time>2026-05-04T17:22:56.004Z</time></trkpt><trkpt lat="45.59827507166432" lon="10.111074965189626"><ele>174.0</ele><time>2026-05-04T17:22:59.004Z</time></trkpt><trkpt lat="45.59820463017798" lon="10.111037978595823"><ele>174.0</ele><time>2026-05-04T17:23:02.004Z</time></trkpt><trkpt lat="45.59812037264647" lon="10.110999409445595"><ele>174.0</ele><time>2026-05-04T17:23:05.004Z</time></trkpt><trkpt lat="45.598036144767086" lon="10.110974777062621"><ele>174.0</ele><time>2026-05-04T17:23:08.004Z</time></trkpt><trkpt lat="45.597963311132034" lon="10.110941064571573"><ele>174.0</ele><time>2026-05-04T17:23:11.004Z</time></trkpt><trkpt lat="45.59789992359735" lon="10.110887503179915"><ele>174.0</ele><time>2026-05-04T17:23:14.004Z</time></trkpt><trkpt lat="45.59782816472073" lon="10.110829538332284"><ele>174.0</ele><time>2026-05-04T17:23:17.004Z</time></trkpt><trkpt lat="45.597771046262906" lon="10.11074009964224"><ele>174.28571428571428</ele><time>2026-05-04T17:23:20.004Z</time></trkpt><trkpt lat="45.59771604658804" lon="10.11069259781254"><ele>174.57142857142858</ele><time>2026-05-04T17:23:23.004Z</time></trkpt><trkpt lat="45.59765465081709" lon="10.110766853883952"><ele>174.85714285714286</ele><time>2026-05-04T17:23:27.004Z</time></trkpt><trkpt lat="45.59763899373957" lon="10.110877212261894"><ele>175.14285714285714</ele><time>2026-05-04T17:23:30.004Z</time></trkpt><trkpt lat="45.597612905915874" lon="10.110976317106651"><ele>175.42857142857142</ele><time>2026-05-04T17:23:33.004Z</time></trkpt><trkpt lat="45.597568956680796" lon="10.11106362453051"><ele>175.71428571428572</ele><time>2026-05-04T17:23:36.004Z</time></trkpt><trkpt lat="45.59752151181909" lon="10.11114747260811"><ele>176.0</ele><time>2026-05-04T17:23:39.004Z</time></trkpt><trkpt lat="45.59747633212334" lon="10.11124675138271"><ele>176.14285714285714</ele><time>2026-05-04T17:23:43.004Z</time></trkpt><trkpt lat="45.59747593963262" lon="10.11134876331167"><ele>176.28571428571428</ele><time>2026-05-04T17:23:46.004Z</time></trkpt><trkpt lat="45.59739357579551" lon="10.111373086891438"><ele>176.42857142857144</ele><time>2026-05-04T17:23:48.004Z</time></trkpt><trkpt lat="45.59733388770601" lon="10.111428663831692"><ele>176.57142857142856</ele><time>2026-05-04T17:23:51.004Z</time></trkpt><trkpt lat="45.597292868411095" lon="10.111505625623593"><ele>176.7142857142857</ele><time>2026-05-04T17:23:54.004Z</time></trkpt><trkpt lat="45.597276245734534" lon="10.111597167719845"><ele>176.85714285714286</ele><time>2026-05-04T17:23:57.004Z</time></trkpt><trkpt lat="45.59725355807198" lon="10.111694581004944"><ele>177.0</ele><time>2026-05-04T17:24:00.004Z</time></trkpt><trkpt lat="45.59720107872368" lon="10.111770642628027"><ele>176.66666666666666</ele><time>2026-05-04T17:24:03.004Z</time></trkpt><trkpt lat="45.59715190335532" lon="10.111849759952495"><ele>176.33333333333334</ele><time>2026-05-04T17:24:06.004Z</time></trkpt><trkpt lat="45.597082413285584" lon="10.111919308948195"><ele>176.0</ele><time>2026-05-04T17:24:09.004Z</time></trkpt><trkpt lat="45.597038320043374" lon="10.111999697481346"><ele>175.66666666666669</ele><time>2026-05-04T17:24:12.004Z</time></trkpt><trkpt lat="45.59699189901391" lon="10.11208876755123"><ele>175.33333333333334</ele><time>2026-05-04T17:24:15.004Z</time></trkpt><trkpt lat="45.59694196705143" lon="10.11217767858717"><ele>175.0</ele><time>2026-05-04T17:24:18.004Z</time></trkpt><trkpt lat="45.5969288889205" lon="10.112281864708772"><ele>175.0</ele><time>2026-05-04T17:24:21.004Z</time></trkpt><trkpt lat="45.59691055344743" lon="10.112385407273138"><ele>175.0</ele><time>2026-05-04T17:24:24.004Z</time></trkpt><trkpt lat="45.596895088981114" lon="10.11249251334783"><ele>175.0</ele><time>2026-05-04T17:24:27.004Z</time></trkpt><trkpt lat="45.596874813226634" lon="10.112603400628663"><ele>175.0</ele><time>2026-05-04T17:24:30.004Z</time></trkpt><trkpt lat="45.59686118476601" lon="10.112718294813574"><ele>175.0</ele><time>2026-05-04T17:24:33.004Z</time></trkpt><trkpt lat="45.596845602581105" lon="10.11282045872274"><ele>175.0</ele><time>2026-05-04T17:24:36.004Z</time></trkpt><trkpt lat="45.59683446983931" lon="10.112945072089529"><ele>174.66666666666669</ele><time>2026-05-04T17:24:39.004Z</time></trkpt><trkpt lat="45.596823498403566" lon="10.1130595416953"><ele>174.33333333333334</ele><time>2026-05-04T17:24:42.004Z</time></trkpt><trkpt lat="45.59681577352345" lon="10.113173949139533"><ele>174.0</ele><time>2026-05-04T17:24:45.004Z</time></trkpt><trkpt lat="45.5968015817114" lon="10.113280767214796"><ele>173.66666666666666</ele><time>2026-05-04T17:24:48.004Z</time></trkpt><trkpt lat="45.59679686761189" lon="10.113391146407007"><ele>173.33333333333331</ele><time>2026-05-04T17:24:51.004Z</time></trkpt><trkpt lat="45.59678768192745" lon="10.11349676410486"><ele>173.0</ele><time>2026-05-04T17:24:54.004Z</time></trkpt><trkpt lat="45.59678684031693" lon="10.113606069927682"><ele>173.0</ele><time>2026-05-04T17:24:57.004Z</time></trkpt><trkpt lat="45.59678664585352" lon="10.11370853206328"><ele>173.0</ele><time>2026-05-04T17:25:00.004Z</time></trkpt><trkpt lat="45.59679884473184" lon="10.113826896547266"><ele>173.0</ele><time>2026-05-04T17:25:03.004Z</time></trkpt><trkpt lat="45.596808446920924" lon="10.113946056243872"><ele>173.0</ele><time>2026-05-04T17:25:06.004Z</time></trkpt><trkpt lat="45.59682282314087" lon="10.114053737742475"><ele>173.0</ele><time>2026-05-04T17:25:09.004Z</time></trkpt><trkpt lat="45.596839283413495" lon="10.114162197619047"><ele>173.0</ele><time>2026-05-04T17:25:12.004Z</time></trkpt><trkpt lat="45.59685892669189" lon="10.114266999208947"><ele>172.85714285714286</ele><time>2026-05-04T17:25:15.004Z</time></trkpt><trkpt lat="45.596869678617615" lon="10.11437178325278"><ele>172.71428571428572</ele><time>2026-05-04T17:25:18.004Z</time></trkpt><trkpt lat="45.59688115030655" lon="10.114475446482034"><ele>172.57142857142858</ele><time>2026-05-04T17:25:21.005Z</time></trkpt><trkpt lat="45.59689755778187" lon="10.11456271276039"><ele>172.42857142857144</ele><time>2026-05-04T17:25:24.005Z</time></trkpt><trkpt lat="45.59691722071173" lon="10.114678313889126"><ele>172.28571428571428</ele><time>2026-05-04T17:25:27.005Z</time></trkpt><trkpt lat="45.59692764255381" lon="10.114781061209985"><ele>172.14285714285717</ele><time>2026-05-04T17:25:30.005Z</time></trkpt><trkpt lat="45.59694128153938" lon="10.1148878371026"><ele>172.0</ele><time>2026-05-04T17:25:33.005Z</time></trkpt><trkpt lat="45.596948909962755" lon="10.114985592305771"><ele>171.83333333333334</ele><time>2026-05-04T17:25:36.005Z</time></trkpt><trkpt lat="45.59696025261319" lon="10.115090221668003"><ele>171.66666666666669</ele><time>2026-05-04T17:25:39.005Z</time></trkpt><trkpt lat="45.59697366947393" lon="10.115205679350007"><ele>171.5</ele><time>2026-05-04T17:25:43.005Z</time></trkpt><trkpt lat="45.596995273565646" lon="10.115317386811975"><ele>171.33333333333334</ele><time>2026-05-04T17:25:46.005Z</time></trkpt><trkpt lat="45.59700919843504" lon="10.115421816906053"><ele>171.16666666666666</ele><time>2026-05-04T17:25:49.005Z</time></trkpt><trkpt lat="45.597032569261096" lon="10.115528170856077"><ele>171.0</ele><time>2026-05-04T17:25:52.005Z</time></trkpt><trkpt lat="45.59706369409153" lon="10.115636863967048"><ele>171.14285714285714</ele><time>2026-05-04T17:25:55.005Z</time></trkpt><trkpt lat="45.59707564261806" lon="10.11574275475779"><ele>171.28571428571428</ele><time>2026-05-04T17:25:58.005Z</time></trkpt><trkpt lat="45.597099896236514" lon="10.11583733443532"><ele>171.42857142857144</ele><time>2026-05-04T17:26:01.005Z</time></trkpt><trkpt lat="45.59712487266262" lon="10.115939366727822"><ele>171.57142857142856</ele><time>2026-05-04T17:26:04.005Z</time></trkpt><trkpt lat="45.597129297166695" lon="10.116045049106322"><ele>171.71428571428572</ele><time>2026-05-04T17:26:07.005Z</time></trkpt><trkpt lat="45.59711732135622" lon="10.116152739768845"><ele>171.85714285714286</ele><time>2026-05-04T17:26:10.005Z</time></trkpt><trkpt lat="45.5971361361624" lon="10.116260160157395"><ele>172.0</ele><time>2026-05-04T17:26:13.005Z</time></trkpt><trkpt lat="45.5971591681258" lon="10.11636518214846"><ele>172.00000000000003</ele><time>2026-05-04T17:26:16.005Z</time></trkpt><trkpt lat="45.597166993439" lon="10.116465758651366"><ele>172.0</ele><time>2026-05-04T17:26:19.005Z</time></trkpt><trkpt lat="45.597166609074" lon="10.116571385144026"><ele>172.0</ele><time>2026-05-04T17:26:22.005Z</time></trkpt><trkpt lat="45.5971635709941" lon="10.116671899349116"><ele>172.0</ele><time>2026-05-04T17:26:25.005Z</time></trkpt><trkpt lat="45.59715740532232" lon="10.116779005797085"><ele>172.0</ele><time>2026-05-04T17:26:28.005Z</time></trkpt><trkpt lat="45.59715635429229" lon="10.116883643289748"><ele>172.00000000000003</ele><time>2026-05-04T17:26:31.005Z</time></trkpt><trkpt lat="45.59715319891162" lon="10.117002111540112"><ele>172.0</ele><time>2026-05-04T17:26:34.005Z</time></trkpt><trkpt lat="45.597154272053444" lon="10.11711142263427"><ele>171.83333333333334</ele><time>2026-05-04T17:26:37.005Z</time></trkpt><trkpt lat="45.59715396955003" lon="10.117224083839025"><ele>171.66666666666669</ele><time>2026-05-04T17:26:40.005Z</time></trkpt><trkpt lat="45.597142545097874" lon="10.117341872023177"><ele>171.5</ele><time>2026-05-04T17:26:43.005Z</time></trkpt><trkpt lat="45.597129224141284" lon="10.117444335117543"><ele>171.33333333333334</ele><time>2026-05-04T17:26:46.005Z</time></trkpt><trkpt lat="45.597119006864354" lon="10.117548515649435"><ele>171.16666666666666</ele><time>2026-05-04T17:26:49.005Z</time></trkpt><trkpt lat="45.59710527285673" lon="10.117649452861373"><ele>171.0</ele><time>2026-05-04T17:26:52.005Z</time></trkpt><trkpt lat="45.597084734266254" lon="10.117751269423923"><ele>170.85714285714283</ele><time>2026-05-04T17:26:55.005Z</time></trkpt><trkpt lat="45.597092258943654" lon="10.117851443246154"><ele>170.71428571428572</ele><time>2026-05-04T17:26:58.005Z</time></trkpt><trkpt lat="45.59709455770227" lon="10.11794679217139"><ele>170.57142857142856</ele><time>2026-05-04T17:27:01.005Z</time></trkpt><trkpt lat="45.59709357857858" lon="10.118050353454118"><ele>170.42857142857142</ele><time>2026-05-04T17:27:04.005Z</time></trkpt><trkpt lat="45.59706810876803" lon="10.118156710951581"><ele>170.28571428571428</ele><time>2026-05-04T17:27:07.005Z</time></trkpt><trkpt lat="45.59705881600264" lon="10.118265743077346"><ele>170.14285714285714</ele><time>2026-05-04T17:27:10.005Z</time></trkpt><trkpt lat="45.59703965426847" lon="10.118371406520703"><ele>170.0</ele><time>2026-05-04T17:27:13.005Z</time></trkpt><trkpt lat="45.597012770553874" lon="10.11847980268903"><ele>169.83333333333331</ele><time>2026-05-04T17:27:16.005Z</time></trkpt><trkpt lat="45.59702005086105" lon="10.118569567670006"><ele>169.66666666666666</ele><time>2026-05-04T17:27:19.005Z</time></trkpt><trkpt lat="45.597005887624" lon="10.118676591137856"><ele>169.5</ele><time>2026-05-04T17:27:22.005Z</time></trkpt><trkpt lat="45.597001887512846" lon="10.11879709397585"><ele>169.33333333333334</ele><time>2026-05-04T17:27:25.005Z</time></trkpt><trkpt lat="45.596991487064415" lon="10.11891333132349"><ele>169.16666666666669</ele><time>2026-05-04T17:27:28.005Z</time></trkpt><trkpt lat="45.59697615496567" lon="10.119018686878082"><ele>169.0</ele><time>2026-05-04T17:27:31.005Z</time></trkpt><trkpt lat="45.59695388728475" lon="10.119130507306236"><ele>169.0</ele><time>2026-05-04T17:27:34.005Z</time></trkpt><trkpt lat="45.59694516895724" lon="10.1192499193163"><ele>169.0</ele><time>2026-05-04T17:27:37.005Z</time></trkpt><trkpt lat="45.59693651501005" lon="10.119359701454787"><ele>169.0</ele><time>2026-05-04T17:27:40.005Z</time></trkpt><trkpt lat="45.59694380265071" lon="10.119481596057714"><ele>169.0</ele><time>2026-05-04T17:27:43.005Z</time></trkpt><trkpt lat="45.59691939631622" lon="10.119570049419128"><ele>169.0</ele><time>2026-05-04T17:27:46.005Z</time></trkpt><trkpt lat="45.59689535556085" lon="10.119663709245199"><ele>169.0</ele><time>2026-05-04T17:27:49.005Z</time></trkpt><trkpt lat="45.59690251214507" lon="10.119762951065914"><ele>169.0</ele><time>2026-05-04T17:27:52.005Z</time></trkpt><trkpt lat="45.596913086024486" lon="10.119869489970485"><ele>169.0</ele><time>2026-05-04T17:27:56.005Z</time></trkpt><trkpt lat="45.59691889689971" lon="10.119989447123158"><ele>169.0</ele><time>2026-05-04T17:28:00.005Z</time></trkpt><trkpt lat="45.59691299484404" lon="10.12009240990305"><ele>169.0</ele><time>2026-05-04T17:28:04.006Z</time></trkpt><trkpt lat="45.59690841177714" lon="10.120203435936888"><ele>169.0</ele><time>2026-05-04T17:28:08.006Z</time></trkpt><trkpt lat="45.596920970362085" lon="10.120301868101759"><ele>169.0</ele><time>2026-05-04T17:28:12.006Z</time></trkpt><trkpt lat="45.596902938124735" lon="10.120406170776729"><ele>168.5</ele><time>2026-05-04T17:28:15.006Z</time></trkpt><trkpt lat="45.596875233885264" lon="10.120505739419848"><ele>168.0</ele><time>2026-05-04T17:28:18.006Z</time></trkpt><trkpt lat="45.59685444284777" lon="10.12062194690592"><ele>167.5</ele><time>2026-05-04T17:28:21.006Z</time></trkpt><trkpt lat="45.59686277728552" lon="10.120715870563576"><ele>167.0</ele><time>2026-05-04T17:28:23.006Z</time></trkpt><trkpt lat="45.5968649164617" lon="10.120806942511953"><ele>166.5</ele><time>2026-05-04T17:28:25.006Z</time></trkpt><trkpt lat="45.596866774341954" lon="10.120923665279848"><ele>166.0</ele><time>2026-05-04T17:28:28.006Z</time></trkpt><trkpt lat="45.59686001602824" lon="10.121044535225218"><ele>165.83333333333334</ele><time>2026-05-04T17:28:31.006Z</time></trkpt><trkpt lat="45.59685885511719" lon="10.121137888674001"><ele>165.66666666666669</ele><time>2026-05-04T17:28:33.006Z</time></trkpt><trkpt lat="45.596858255349424" lon="10.121259964191044"><ele>165.5</ele><time>2026-05-04T17:28:36.006Z</time></trkpt><trkpt lat="45.596843042223554" lon="10.121379440612463"><ele>165.33333333333334</ele><time>2026-05-04T17:28:39.006Z</time></trkpt><trkpt lat="45.596820845618346" lon="10.121489818320113"><ele>165.16666666666666</ele><time>2026-05-04T17:28:42.006Z</time></trkpt><trkpt lat="45.59679750036287" lon="10.121585495381598"><ele>165.0</ele><time>2026-05-04T17:28:45.006Z</time></trkpt><trkpt lat="45.59676551372163" lon="10.121701417283127"><ele>165.0</ele><time>2026-05-04T17:28:49.006Z</time></trkpt><trkpt lat="45.5967354912293" lon="10.121807922741086"><ele>165.0</ele><time>2026-05-04T17:28:52.006Z</time></trkpt><trkpt lat="45.596703035739374" lon="10.121906781008049"><ele>165.0</ele><time>2026-05-04T17:28:55.006Z</time></trkpt><trkpt lat="45.596673095332285" lon="10.12200871928591"><ele>165.0</ele><time>2026-05-04T17:28:58.006Z</time></trkpt><trkpt lat="45.59664738873224" lon="10.12212080401832"><ele>165.0</ele><time>2026-05-04T17:29:01.006Z</time></trkpt><trkpt lat="45.59662199076897" lon="10.122226374071447"><ele>165.0</ele><time>2026-05-04T17:29:04.006Z</time></trkpt><trkpt lat="45.59661487196146" lon="10.122324237980445"><ele>165.16666666666666</ele><time>2026-05-04T17:29:07.006Z</time></trkpt><trkpt lat="45.596588301367554" lon="10.12243322586553"><ele>165.33333333333334</ele><time>2026-05-04T17:29:10.006Z</time></trkpt><trkpt lat="45.59656344098453" lon="10.12255106207099"><ele>165.5</ele><time>2026-05-04T17:29:13.006Z</time></trkpt><trkpt lat="45.59655908347087" lon="10.12266595236187"><ele>165.66666666666669</ele><time>2026-05-04T17:29:16.006Z</time></trkpt><trkpt lat="45.596588836687495" lon="10.122762454562876"><ele>165.83333333333334</ele><time>2026-05-04T17:29:18.006Z</time></trkpt><trkpt lat="45.59659311725255" lon="10.122860780797296"><ele>166.0</ele><time>2026-05-04T17:29:20.006Z</time></trkpt><trkpt lat="45.59659763563736" lon="10.122986440571358"><ele>166.0</ele><time>2026-05-04T17:29:23.006Z</time></trkpt><trkpt lat="45.5966032773226" lon="10.123107014495712"><ele>166.0</ele><time>2026-05-04T17:29:26.006Z</time></trkpt><trkpt lat="45.59660010144222" lon="10.123222592365623"><ele>166.0</ele><time>2026-05-04T17:29:29.006Z</time></trkpt><trkpt lat="45.59661258179793" lon="10.123333495044912"><ele>166.0</ele><time>2026-05-04T17:29:32.006Z</time></trkpt><trkpt lat="45.59660579305148" lon="10.123435494406817"><ele>166.0</ele><time>2026-05-04T17:29:35.006Z</time></trkpt><trkpt lat="45.59659879868027" lon="10.123549585296148"><ele>166.0</ele><time>2026-05-04T17:29:38.006Z</time></trkpt><trkpt lat="45.5966044672474" lon="10.123667703731199"><ele>166.28571428571428</ele><time>2026-05-04T17:29:42.006Z</time></trkpt><trkpt lat="45.59660769263728" lon="10.123762270172746"><ele>166.57142857142858</ele><time>2026-05-04T17:29:45.006Z</time></trkpt><trkpt lat="45.59659231436359" lon="10.123864438371356"><ele>166.85714285714286</ele><time>2026-05-04T17:29:48.006Z</time></trkpt><trkpt lat="45.59658729500719" lon="10.12395945983205"><ele>167.14285714285714</ele><time>2026-05-04T17:29:51.006Z</time></trkpt><trkpt lat="45.59659452360502" lon="10.124075611818151"><ele>167.42857142857144</ele><time>2026-05-04T17:29:55.006Z</time></trkpt><trkpt lat="45.596595246749" lon="10.12417357981891"><ele>167.71428571428572</ele><time>2026-05-04T17:29:58.006Z</time></trkpt><trkpt lat="45.59658703704111" lon="10.124270363768256"><ele>168.0</ele><time>2026-05-04T17:30:01.006Z</time></trkpt><trkpt lat="45.596595497529876" lon="10.124385414332199"><ele>168.0</ele><time>2026-05-04T17:30:04.006Z</time></trkpt><trkpt lat="45.59664939553863" lon="10.124474635276634"><ele>168.0</ele><time>2026-05-04T17:30:06.006Z</time></trkpt><trkpt lat="45.596671530859275" lon="10.124587806569211"><ele>168.0</ele><time>2026-05-04T17:30:09.006Z</time></trkpt><trkpt lat="45.596673446349996" lon="10.124694306084145"><ele>168.0</ele><time>2026-05-04T17:30:12.006Z</time></trkpt><trkpt lat="45.59664379584948" lon="10.124791314351958"><ele>168.0</ele><time>2026-05-04T17:30:15.006Z</time></trkpt><trkpt lat="45.59660284957548" lon="10.124897515680871"><ele>168.0</ele><time>2026-05-04T17:30:18.006Z</time></trkpt><trkpt lat="45.596586024867044" lon="10.125011118227453"><ele>168.0</ele><time>2026-05-04T17:30:21.006Z</time></trkpt><trkpt lat="45.59658513327031" lon="10.12511338355371"><ele>168.0</ele><time>2026-05-04T17:30:24.006Z</time></trkpt><trkpt lat="45.596587567886644" lon="10.125222026943193"><ele>168.0</ele><time>2026-05-04T17:30:27.006Z</time></trkpt><trkpt lat="45.596574882799025" lon="10.12532231590454"><ele>168.0</ele><time>2026-05-04T17:30:30.006Z</time></trkpt><trkpt lat="45.59658077863728" lon="10.125432915062973"><ele>168.0</ele><time>2026-05-04T17:30:33.006Z</time></trkpt><trkpt lat="45.59657883750195" lon="10.125542536309625"><ele>168.0</ele><time>2026-05-04T17:30:36.006Z</time></trkpt><trkpt lat="45.59657484645272" lon="10.12565662831848"><ele>168.0</ele><time>2026-05-04T17:30:39.006Z</time></trkpt><trkpt lat="45.596563421161406" lon="10.125768107059075"><ele>168.0</ele><time>2026-05-04T17:30:42.006Z</time></trkpt><trkpt lat="45.59656469658811" lon="10.125875958406317"><ele>168.0</ele><time>2026-05-04T17:30:45.007Z</time></trkpt><trkpt lat="45.59655745448734" lon="10.125978131600377"><ele>168.0</ele><time>2026-05-04T17:30:48.007Z</time></trkpt><trkpt lat="45.59655287699323" lon="10.126082984186459"><ele>168.0</ele><time>2026-05-04T17:30:51.007Z</time></trkpt><trkpt lat="45.59655470749237" lon="10.126195905145673"><ele>168.0</ele><time>2026-05-04T17:30:54.007Z</time></trkpt><trkpt lat="45.59655483921294" lon="10.126298408746152"><ele>168.0</ele><time>2026-05-04T17:30:57.007Z</time></trkpt><trkpt lat="45.59654663823051" lon="10.126393316144744"><ele>168.0</ele><time>2026-05-04T17:31:00.007Z</time></trkpt><trkpt lat="45.59656055067167" lon="10.126501436060396"><ele>168.0</ele><time>2026-05-04T17:31:03.007Z</time></trkpt><trkpt lat="45.59656414880367" lon="10.126624568869545"><ele>168.0</ele><time>2026-05-04T17:31:06.007Z</time></trkpt><trkpt lat="45.596558321620584" lon="10.12674705769892"><ele>168.0</ele><time>2026-05-04T17:31:09.007Z</time></trkpt><trkpt lat="45.596548256832385" lon="10.126855431916427"><ele>168.0</ele><time>2026-05-04T17:31:12.007Z</time></trkpt><trkpt lat="45.596531085794794" lon="10.126972371895755"><ele>167.5</ele><time>2026-05-04T17:31:15.007Z</time></trkpt><trkpt lat="45.59651860532239" lon="10.127090412324726"><ele>167.0</ele><time>2026-05-04T17:31:18.007Z</time></trkpt><trkpt lat="45.59651330818238" lon="10.127207676284277"><ele>166.5</ele><time>2026-05-04T17:31:21.007Z</time></trkpt><trkpt lat="45.596518836743634" lon="10.12732834365151"><ele>166.0</ele><time>2026-05-04T17:31:24.007Z</time></trkpt><trkpt lat="45.59652694387096" lon="10.12743988540217"><ele>165.5</ele><time>2026-05-04T17:31:27.007Z</time></trkpt><trkpt lat="45.596534255853804" lon="10.1275575584588"><ele>165.0</ele><time>2026-05-04T17:31:30.007Z</time></trkpt><trkpt lat="45.59653982490226" lon="10.127660284363692"><ele>164.66666666666666</ele><time>2026-05-04T17:31:33.007Z</time></trkpt><trkpt lat="45.59655129422642" lon="10.127768086315445"><ele>164.33333333333334</ele><time>2026-05-04T17:31:36.007Z</time></trkpt><trkpt lat="45.59656998820517" lon="10.127879060235973"><ele>164.0</ele><time>2026-05-04T17:31:39.007Z</time></trkpt><trkpt lat="45.59657797140356" lon="10.127983784786391"><ele>163.66666666666669</ele><time>2026-05-04T17:31:42.007Z</time></trkpt><trkpt lat="45.59659253141797" lon="10.128080231473422"><ele>163.33333333333334</ele><time>2026-05-04T17:31:45.007Z</time></trkpt><trkpt lat="45.59661292029976" lon="10.128186517125437"><ele>163.0</ele><time>2026-05-04T17:31:48.007Z</time></trkpt><trkpt lat="45.59662558569567" lon="10.128291478598507"><ele>162.71428571428572</ele><time>2026-05-04T17:31:51.007Z</time></trkpt><trkpt lat="45.59663334178614" lon="10.12839872343872"><ele>162.42857142857142</ele><time>2026-05-04T17:31:54.007Z</time></trkpt><trkpt lat="45.59664331806764" lon="10.128490639507145"><ele>162.14285714285714</ele><time>2026-05-04T17:31:57.007Z</time></trkpt><trkpt lat="45.59665844693246" lon="10.128596494311296"><ele>161.85714285714286</ele><time>2026-05-04T17:32:00.007Z</time></trkpt><trkpt lat="45.59667342232645" lon="10.128685251864644"><ele>161.57142857142856</ele><time>2026-05-04T17:32:03.007Z</time></trkpt><trkpt lat="45.596686716493814" lon="10.128783830760534"><ele>161.28571428571428</ele><time>2026-05-04T17:32:06.007Z</time></trkpt><trkpt lat="45.596704394786435" lon="10.128873637899396"><ele>161.0</ele><time>2026-05-04T17:32:09.007Z</time></trkpt><trkpt lat="45.59672212890095" lon="10.12896484764102"><ele>161.0</ele><time>2026-05-04T17:32:12.007Z</time></trkpt><trkpt lat="45.596749601935265" lon="10.129053044261317"><ele>161.0</ele><time>2026-05-04T17:32:15.007Z</time></trkpt><trkpt lat="45.59677508541616" lon="10.129155659989495"><ele>161.0</ele><time>2026-05-04T17:32:18.007Z</time></trkpt><trkpt lat="45.5967834508028" lon="10.129251947455877"><ele>161.0</ele><time>2026-05-04T17:32:21.007Z</time></trkpt><trkpt lat="45.59679580564177" lon="10.129350930717424"><ele>161.0</ele><time>2026-05-04T17:32:24.007Z</time></trkpt><trkpt lat="45.59681355009627" lon="10.129446651516286"><ele>161.0</ele><time>2026-05-04T17:32:27.007Z</time></trkpt><trkpt lat="45.596833560500436" lon="10.129535803939792"><ele>161.0</ele><time>2026-05-04T17:32:30.007Z</time></trkpt><trkpt lat="45.59683480404335" lon="10.129636034864397"><ele>161.28571428571428</ele><time>2026-05-04T17:32:33.007Z</time></trkpt><trkpt lat="45.59683731425571" lon="10.129737836105143"><ele>161.57142857142856</ele><time>2026-05-04T17:32:36.007Z</time></trkpt><trkpt lat="45.59684006161537" lon="10.1298434182187"><ele>161.85714285714286</ele><time>2026-05-04T17:32:39.007Z</time></trkpt><trkpt lat="45.59682658278189" lon="10.129933222212772"><ele>162.14285714285714</ele><time>2026-05-04T17:32:42.007Z</time></trkpt><trkpt lat="45.59682772313729" lon="10.13004747992864"><ele>162.42857142857142</ele><time>2026-05-04T17:32:45.007Z</time></trkpt><trkpt lat="45.59682041774856" lon="10.130145803413992"><ele>162.71428571428572</ele><time>2026-05-04T17:32:48.007Z</time></trkpt><trkpt lat="45.59682194800341" lon="10.130248724450546"><ele>163.0</ele><time>2026-05-04T17:32:51.007Z</time></trkpt><trkpt lat="45.59682307450283" lon="10.130353274368296"><ele>163.0</ele><time>2026-05-04T17:32:54.007Z</time></trkpt><trkpt lat="45.59681848882484" lon="10.130456843154091"><ele>163.0</ele><time>2026-05-04T17:32:57.007Z</time></trkpt><trkpt lat="45.59681399986901" lon="10.130558593068503"><ele>163.0</ele><time>2026-05-04T17:33:00.007Z</time></trkpt><trkpt lat="45.596816741536436" lon="10.130664706106803"><ele>163.0</ele><time>2026-05-04T17:33:03.007Z</time></trkpt><trkpt lat="45.596817677301175" lon="10.130773462312728"><ele>163.0</ele><time>2026-05-04T17:33:06.007Z</time></trkpt><trkpt lat="45.596809324893165" lon="10.130870280410809"><ele>163.0</ele><time>2026-05-04T17:33:09.007Z</time></trkpt><trkpt lat="45.59679761969067" lon="10.130976758498548"><ele>163.0</ele><time>2026-05-04T17:33:12.007Z</time></trkpt><trkpt lat="45.596782274270474" lon="10.131078324107953"><ele>163.14285714285714</ele><time>2026-05-04T17:33:15.007Z</time></trkpt><trkpt lat="45.59675655984261" lon="10.131178121101158"><ele>163.28571428571428</ele><time>2026-05-04T17:33:18.007Z</time></trkpt><trkpt lat="45.59673283222458" lon="10.13127712921224"><ele>163.42857142857142</ele><time>2026-05-04T17:33:21.007Z</time></trkpt><trkpt lat="45.59670706591328" lon="10.131367303142596"><ele>163.57142857142856</ele><time>2026-05-04T17:33:24.007Z</time></trkpt><trkpt lat="45.596682225482645" lon="10.131464171484456"><ele>163.71428571428572</ele><time>2026-05-04T17:33:27.008Z</time></trkpt><trkpt lat="45.59666794637559" lon="10.13155951136524"><ele>163.85714285714283</ele><time>2026-05-04T17:33:30.008Z</time></trkpt><trkpt lat="45.59666043700766" lon="10.131660052891316"><ele>164.0</ele><time>2026-05-04T17:33:33.008Z</time></trkpt><trkpt lat="45.59664619419201" lon="10.131762758482187"><ele>164.42857142857142</ele><time>2026-05-04T17:33:36.008Z</time></trkpt><trkpt lat="45.59658356892603" lon="10.131845206036042"><ele>164.85714285714286</ele><time>2026-05-04T17:33:40.008Z</time></trkpt><trkpt lat="45.59654052164919" lon="10.13192953628133"><ele>165.28571428571428</ele><time>2026-05-04T17:33:43.008Z</time></trkpt><trkpt lat="45.59650106320072" lon="10.132020633953928"><ele>165.71428571428572</ele><time>2026-05-04T17:33:46.008Z</time></trkpt><trkpt lat="45.59644199917548" lon="10.132077786178051"><ele>166.14285714285714</ele><time>2026-05-04T17:33:49.008Z</time></trkpt><trkpt lat="45.59637789097456" lon="10.132109175985555"><ele>166.57142857142856</ele><time>2026-05-04T17:33:52.008Z</time></trkpt><trkpt lat="45.59631100946064" lon="10.132069899556813"><ele>167.0</ele><time>2026-05-04T17:33:55.008Z</time></trkpt><trkpt lat="45.596239001158764" lon="10.132039963617643"><ele>167.0</ele><time>2026-05-04T17:33:59.008Z</time></trkpt><trkpt lat="45.59618215715522" lon="10.131993479556913"><ele>167.0</ele><time>2026-05-04T17:34:02.008Z</time></trkpt><trkpt lat="45.59610869663656" lon="10.131935994320177"><ele>167.0</ele><time>2026-05-04T17:34:06.008Z</time></trkpt><trkpt lat="45.59604097739924" lon="10.131867230042666"><ele>167.0</ele><time>2026-05-04T17:34:09.008Z</time></trkpt><trkpt lat="45.595977762056535" lon="10.131830417483046"><ele>167.0</ele><time>2026-05-04T17:34:12.001Z</time></trkpt><trkpt lat="45.59591115818598" lon="10.131812984231356"><ele>167.0</ele><time>2026-05-04T17:34:15.001Z</time></trkpt><trkpt lat="45.59585628327413" lon="10.13175537534111"><ele>167.0</ele><time>2026-05-04T17:34:18.002Z</time></trkpt><trkpt lat="45.59580326901277" lon="10.131682183101885"><ele>166.66666666666666</ele><time>2026-05-04T17:34:21.002Z</time></trkpt><trkpt lat="45.59573791022059" lon="10.131623487476691"><ele>166.33333333333331</ele><time>2026-05-04T17:34:24.002Z</time></trkpt><trkpt lat="45.59565660729823" lon="10.131626684176819"><ele>166.0</ele><time>2026-05-04T17:34:28.002Z</time></trkpt><trkpt lat="45.59558400182479" lon="10.131632916642374"><ele>165.66666666666666</ele><time>2026-05-04T17:34:31.002Z</time></trkpt><trkpt lat="45.59550120144829" lon="10.13162780958558"><ele>165.33333333333334</ele><time>2026-05-04T17:34:34.002Z</time></trkpt><trkpt lat="45.59542509595499" lon="10.131614952883808"><ele>165.0</ele><time>2026-05-04T17:34:37.002Z</time></trkpt><trkpt lat="45.59534289277558" lon="10.131591054909977"><ele>164.16666666666666</ele><time>2026-05-04T17:34:40.002Z</time></trkpt><trkpt lat="45.595270908154106" lon="10.131595276182344"><ele>163.33333333333334</ele><time>2026-05-04T17:34:43.002Z</time></trkpt><trkpt lat="45.59517405766156" lon="10.131580780839936"><ele>162.5</ele><time>2026-05-04T17:34:46.002Z</time></trkpt><trkpt lat="45.595090631351184" lon="10.13157223578012"><ele>161.66666666666669</ele><time>2026-05-04T17:34:49.002Z</time></trkpt><trkpt lat="45.59503083859694" lon="10.131617422280389"><ele>160.83333333333334</ele><time>2026-05-04T17:34:52.002Z</time></trkpt><trkpt lat="45.595014815589785" lon="10.131716705541228"><ele>160.0</ele><time>2026-05-04T17:34:56.002Z</time></trkpt><trkpt lat="45.59500029104223" lon="10.1318271893442"><ele>160.0</ele><time>2026-05-04T17:35:00.001Z</time></trkpt><trkpt lat="45.59498850651082" lon="10.13191903926529"><ele>160.0</ele><time>2026-05-04T17:35:03.002Z</time></trkpt><trkpt lat="45.59496027046752" lon="10.132018514743917"><ele>160.0</ele><time>2026-05-04T17:35:07.002Z</time></trkpt><trkpt lat="45.594943464750855" lon="10.132106626193005"><ele>160.0</ele><time>2026-05-04T17:35:12.001Z</time></trkpt><trkpt lat="45.5949552092799" lon="10.1322033684228"><ele>160.0</ele><time>2026-05-04T17:35:17.001Z</time></trkpt><trkpt lat="45.5949416845609" lon="10.132327650051025"><ele>160.0</ele><time>2026-05-04T17:35:20.001Z</time></trkpt><trkpt lat="45.594924381165214" lon="10.132444770201568"><ele>160.0</ele><time>2026-05-04T17:35:23.001Z</time></trkpt><trkpt lat="45.59490892292444" lon="10.132570753713182"><ele>160.16666666666669</ele><time>2026-05-04T17:35:26.001Z</time></trkpt><trkpt lat="45.59487056023473" lon="10.132682103338766"><ele>160.33333333333334</ele><time>2026-05-04T17:35:29.001Z</time></trkpt><trkpt lat="45.594838734164256" lon="10.13280071632409"><ele>160.5</ele><time>2026-05-04T17:35:32.001Z</time></trkpt><trkpt lat="45.59481378190017" lon="10.132920717271329"><ele>160.66666666666666</ele><time>2026-05-04T17:35:35.001Z</time></trkpt><trkpt lat="45.594796245188654" lon="10.133021179845068"><ele>160.83333333333331</ele><time>2026-05-04T17:35:38.001Z</time></trkpt><trkpt lat="45.5947674721312" lon="10.13312314561456"><ele>161.0</ele><time>2026-05-04T17:35:42.001Z</time></trkpt><trkpt lat="45.5947507569451" lon="10.133219715785577"><ele>161.5</ele><time>2026-05-04T17:35:45.001Z</time></trkpt><trkpt lat="45.5947329113602" lon="10.133318427213156"><ele>162.0</ele><time>2026-05-04T17:35:48.001Z</time></trkpt><trkpt lat="45.594720744014715" lon="10.13344606435367"><ele>162.5</ele><time>2026-05-04T17:35:51.001Z</time></trkpt><trkpt lat="45.59470387897818" lon="10.133555133628622"><ele>163.0</ele><time>2026-05-04T17:35:55.001Z</time></trkpt><trkpt lat="45.59468799350809" lon="10.133678457763683"><ele>163.5</ele><time>2026-05-04T17:35:58.001Z</time></trkpt><trkpt lat="45.594668090461" lon="10.133790020236237"><ele>164.0</ele><time>2026-05-04T17:36:01.001Z</time></trkpt><trkpt lat="45.59463479282981" lon="10.133896471799916"><ele>164.0</ele><time>2026-05-04T17:36:04.001Z</time></trkpt><trkpt lat="45.59461589019547" lon="10.133990661340851"><ele>164.0</ele><time>2026-05-04T17:36:07.001Z</time></trkpt><trkpt lat="45.59459472374426" lon="10.134093475592325"><ele>164.0</ele><time>2026-05-04T17:36:10.001Z</time></trkpt><trkpt lat="45.594577649763586" lon="10.134202392168781"><ele>164.0</ele><time>2026-05-04T17:36:13.001Z</time></trkpt><trkpt lat="45.59455826645542" lon="10.13430081318742"><ele>164.0</ele><time>2026-05-04T17:36:16.002Z</time></trkpt><trkpt lat="45.59452840269377" lon="10.134415440014976"><ele>164.0</ele><time>2026-05-04T17:36:20.002Z</time></trkpt><trkpt lat="45.59452899396723" lon="10.13452178788698"><ele>164.0</ele><time>2026-05-04T17:36:23.002Z</time></trkpt><trkpt lat="45.59456203030645" lon="10.134607777624245"><ele>164.0</ele><time>2026-05-04T17:37:08.002Z</time></trkpt></trkseg></trk></gpx>